[[{"header":{"parameterUnit":"m.s-1","parameterCategory":1,"la1":30.6,"la2":28.766,"lo1":-90.7593,"lo2":-88.6598,"dy":0.0162,"dx":0.0183,"nx":116,"ny":114,"refTime":"2024-04-06T00:00:00:Z","depth":0,"parameterNumber":2,"parameterNumberName":"U-component_of_WINDS"},"data":[0.0,0.0,0.0,0.0,0.0,0.0,0.0,0.0,0.0,0.0,0.0,0.0,0.0,0.0,0.0,0.0,0.0,0.0,0.0,0.0,0.0,0.0,0.0,0.0,0.0,0.0,0.0,0.0,0.0,0.0,0.0,0.0,0.0,0.0,0.0,0.0,0.0,0.0,0.0,0.0,0.0,0.0,0.0,0.0,0.0,0.0,0.0,0.0,0.0,0.0,0.0,0.0,0.0,0.0,0.0,0.0,0.0,0.0,0.0,0.0,0.0,0.0,0.0,0.0,0.0,0.0,0.0,0.0,0.0,0.0,0.0,0.0,0.0,0.0,0.0,0.0,0.0,0.0,0.0,0.0,0.0,0.0,0.0,0.0,0.0,0.0,0.0,0.0,0.0,0.0,0.0,0.0,0.0,0.0,0.0,0.0,0.0,0.0,0.0,0.0,0.0,0.0,0.0,0.0,0.0,0.0,0.0,0.0,0.0,0.0,0.0,0.0,0.0,0.0,0.0,0.0,0.0,0.0,0.0,0.0,0.0,0.0,0.0,0.0,0.0,0.0,0.0,0.0,0.0,0.0,0.0,0.0,0.0,0.0,0.0,0.0,0.0,0.0,0.0,0.0,0.0,0.0,0.0,0.0,0.0,0.0,0.0,0.0,0.0,0.0,0.0,0.0,0.0,0.0,0.0,0.0,0.0,0.0,0.0,0.0,0.0,0.0,0.0,0.0,0.0,0.0,0.0,0.0,0.0,0.0,0.0,0.0,0.0,0.0,0.0,0.0,0.0,0.0,0.0,0.0,0.0,0.0,0.0,0.0,0.0,0.0,0.0,0.0,0.0,0.0,0.0,0.0,0.0,0.0,0.0,0.0,0.0,0.0,0.0,0.0,0.0,0.0,0.0,0.0,0.0,0.0,0.0,0.0,0.0,0.0,0.0,0.0,0.0,0.0,0.0,0.0,0.0,0.0,0.0,0.0,0.0,0.0,0.0,0.0,0.0,0.0,0.0,0.0,0.0,0.0,0.0,0.0,0.0,0.0,0.0,0.0,0.0,0.0,0.0,0.0,0.0,0.0,0.0,0.0,0.0,0.0,0.0,0.0,0.0,0.0,0.0,0.0,0.0,0.0,0.0,0.0,0.0,0.0,0.0,0.0,0.0,0.0,0.0,0.0,0.0,0.0,0.0,0.0,0.0,0.0,0.0,0.0,0.0,0.0,0.0,0.0,0.0,0.0,0.0,0.0,0.0,0.0,0.0,0.0,0.0,0.0,0.0,0.0,0.0,0.0,0.0,0.0,0.0,0.0,0.0,0.0,0.0,0.0,0.0,0.0,0.0,0.0,0.0,0.0,0.0,0.0,0.0,0.0,0.0,0.0,0.0,0.0,0.0,0.0,0.0,0.0,0.0,0.0,0.0,0.0,0.0,0.0,0.0,0.0,0.0,0.0,0.0,0.0,0.0,0.0,0.0,0.0,0.0,0.0,0.0,0.0,0.0,0.0,0.0,0.0,0.0,0.0,0.0,0.0,0.0,0.0,0.0,0.0,0.0,0.0,0.0,0.0,0.0,0.0,0.0,0.0,0.0,0.0,0.0,0.0,0.0,0.0,0.0,0.0,0.0,0.0,0.0,0.0,0.0,0.0,0.0,0.0,0.0,0.0,0.0,0.0,0.0,0.0,0.0,0.0,0.0,0.0,0.0,0.0,0.0,0.0,0.0,0.0,0.0,0.0,0.0,0.0,0.0,0.0,0.0,0.0,0.0,0.0,0.0,0.0,0.0,0.0,0.0,0.0,0.0,0.0,0.0,0.0,0.0,0.0,0.0,0.0,0.0,0.0,0.0,0.0,0.0,0.0,0.0,0.0,0.0,0.0,0.0,0.0,0.0,0.0,0.0,0.0,0.0,0.0,0.0,0.0,0.0,0.0,0.0,0.0,0.0,0.0,0.0,0.0,0.0,0.0,0.0,0.0,0.0,0.0,0.0,0.0,0.0,0.0,0.0,0.0,0.0,0.0,0.0,0.0,0.0,0.0,0.0,0.0,0.0,0.0,0.0,0.0,0.0,0.0,0.0,0.0,0.0,0.0,0.0,0.0,0.0,0.0,0.0,0.0,0.0,0.0,0.0,0.0,0.0,0.0,0.0,0.0,0.0,0.0,0.0,0.0,0.0,0.0,0.0,0.0,0.0,0.0,0.0,0.0,0.0,0.0,0.0,0.0,0.0,0.0,0.0,0.0,0.0,0.0,0.0,0.0,0.0,0.0,0.0,0.0,0.0,0.0,0.0,0.0,0.0,0.0,0.0,0.0,0.0,0.0,0.0,0.0,0.0,0.0,0.0,0.0,0.0,0.0,0.0,0.0,0.0,0.0,0.0,0.0,0.0,0.0,0.0,0.0,0.0,0.0,0.0,0.0,0.0,0.0,0.0,0.0,0.0,0.0,0.0,0.0,0.0,0.0,0.0,0.0,0.0,0.0,0.0,0.0,0.0,0.0,0.0,0.0,0.0,0.0,0.0,0.0,0.0,0.0,0.0,0.0,0.0,0.0,0.0,0.0,0.0,0.0,0.0,0.0,0.0,0.0,0.0,0.0,0.0,0.0,0.0,0.0,0.0,0.0,0.0,0.0,0.0,0.0,0.0,0.0,0.0,0.0,0.0,0.0,0.0,0.0,0.0,0.0,0.0,0.0,0.0,0.0,0.0,0.0,0.0,0.0,0.0,0.0,0.0,0.0,0.0,0.0,0.0,0.0,0.0,0.0,0.0,0.0,0.0,0.0,0.0,0.0,0.0,0.0,0.0,0.0,0.0,0.0,0.0,0.0,0.0,0.0,0.0,0.0,0.0,0.0,0.0,0.0,0.0,0.0,0.0,0.0,0.0,0.0,0.0,0.0,0.0,0.0,0.0,0.0,0.0,0.0,0.0,0.0,0.0,0.0,0.0,0.0,0.0,0.0,0.0,0.0,0.0,0.0,0.0,0.0,0.0,0.0,0.0,0.0,0.0,0.0,0.0,0.0,0.0,0.0,0.0,0.0,0.0,0.0,0.0,0.0,0.0,0.0,0.0,0.0,0.0,0.0,0.0,0.0,0.0,0.0,0.0,0.0,0.0,0.0,0.0,0.0,0.0,0.0,0.0,0.0,0.0,0.0,0.0,0.0,0.0,0.0,0.0,0.0,0.0,0.0,0.0,0.0,0.0,0.0,0.0,0.0,0.0,0.0,0.0,0.0,0.0,0.0,0.0,0.0,0.0,0.0,0.0,0.0,0.0,0.0,0.0,0.0,0.0,0.0,0.0,0.0,0.0,0.0,0.0,0.0,0.0,0.0,0.0,0.0,0.0,0.0,0.0,0.0,0.0,0.0,0.0,0.0,0.0,0.0,0.0,0.0,0.0,0.0,0.0,0.0,0.0,0.0,0.0,0.0,0.0,0.0,0.0,0.0,0.0,0.0,0.0,0.0,0.0,0.0,0.0,0.0,0.0,0.0,0.0,0.0,0.0,0.0,0.0,0.0,0.0,0.0,0.0,0.0,0.0,0.0,0.0,0.0,0.0,0.0,0.0,0.0,0.0,0.0,0.0,0.0,0.0,0.0,0.0,0.0,0.0,0.0,0.0,0.0,0.0,0.0,0.0,0.0,0.0,0.0,0.0,0.0,0.0,0.0,0.0,0.0,0.0,0.0,0.0,0.0,0.0,0.0,0.0,0.0,0.0,0.0,0.0,0.0,0.0,0.0,0.0,0.0,0.0,0.0,0.0,0.0,0.0,0.0,0.0,0.0,0.0,0.0,0.0,0.0,0.0,0.0,0.0,0.0,0.0,0.0,0.0,0.0,0.0,0.0,0.0,0.0,0.0,0.0,0.0,0.0,0.0,0.0,0.0,0.0,0.0,0.0,0.0,0.0,0.0,0.0,0.0,0.0,0.0,0.0,0.0,0.0,0.0,0.0,0.0,0.0,0.0,0.0,0.0,0.0,0.0,0.0,0.0,0.0,0.0,0.0,0.0,0.0,0.0,0.0,0.0,0.0,0.0,0.0,0.0,0.0,0.0,0.0,0.0,0.0,0.0,0.0,0.0,0.0,0.0,0.0,0.0,0.0,0.0,0.0,0.0,0.0,0.0,0.0,0.0,0.0,0.0,0.0,0.0,0.0,0.0,0.0,0.0,0.0,0.0,0.0,0.0,0.0,0.0,0.0,0.0,0.0,0.0,0.0,0.0,0.0,0.0,0.0,0.0,0.0,0.0,0.0,0.0,0.0,0.0,0.0,0.0,0.0,0.0,0.0,0.0,0.0,0.0,0.0,0.0,0.0,0.0,0.0,0.0,0.0,0.0,0.0,0.0,0.0,0.0,0.0,0.0,0.0,0.0,0.0,0.0,0.0,0.0,0.0,0.0,0.0,0.0,0.0,0.0,0.0,0.0,0.0,0.0,0.0,0.0,0.0,0.0,0.0,0.0,0.0,0.0,0.0,0.0,0.0,0.0,0.0,0.0,0.0,0.0,0.0,0.0,0.0,0.0,0.0,0.0,0.0,0.0,0.0,0.0,0.0,0.0,0.0,0.0,0.0,0.0,0.0,0.0,0.0,0.0,0.0,0.0,0.0,0.0,0.0,0.0,0.0,0.0,0.0,0.0,0.0,0.0,0.0,0.0,0.0,0.0,0.0,0.0,0.0,0.0,0.0,0.0,0.0,0.0,0.0,0.0,0.0,0.0,0.0,0.0,0.0,0.0,0.0,0.0,0.0,0.0,0.0,0.0,0.0,0.0,0.0,0.0,0.0,0.0,0.0,0.0,0.0,0.0,0.0,0.0,0.0,0.0,0.0,0.0,0.0,0.0,0.0,0.0,0.0,0.0,0.0,0.0,0.0,0.0,0.0,0.0,0.0,0.0,0.0,0.0,0.0,0.0,0.0,0.0,0.0,0.0,0.0,0.0,0.0,0.0,0.0,0.0,0.0,0.0,0.0,0.0,0.0,0.0,0.0,0.0,0.0,0.0,0.0,0.0,0.0,0.0,0.0,0.0,0.0,0.0,0.0,0.0,0.0,0.0,0.0,0.0,0.0,0.0,0.0,0.0,0.0,0.0,0.0,0.0,0.0,0.0,0.0,0.0,0.0,0.0,0.0,0.0,0.0,0.0,0.0,0.0,0.0,0.0,0.0,0.0,0.0,0.0,0.0,0.0,0.0,0.0,0.0,0.0,0.0,0.0,0.0,0.0,0.0,0.0,0.0,0.0,0.0,0.0,0.0,0.0,0.0,0.0,0.0,0.0,0.0,0.0,0.0,0.0,0.0,0.0,0.0,0.0,0.0,0.0,0.0,0.0,0.0,0.0,0.0,0.0,0.0,0.0,0.0,0.0,0.0,0.0,0.0,0.0,0.0,0.0,0.0,0.0,0.0,0.0,0.0,0.0,0.0,0.0,0.0,0.0,0.0,0.0,0.0,0.0,0.0,0.0,0.0,0.0,0.0,0.0,0.0,0.0,0.0,0.0,0.0,0.0,0.0,0.0,0.0,0.0,0.0,0.0,0.0,0.0,0.0,0.0,0.0,0.0,0.0,0.0,0.0,0.0,0.0,0.0,0.0,0.0,0.0,0.0,0.0,0.0,0.0,0.0,0.0,0.0,0.0,0.0,0.0,0.0,0.0,0.0,0.0,0.0,0.0,0.0,0.0,0.0,0.0,0.0,0.0,0.0,0.0,0.0,0.0,0.0,0.0,0.0,0.0,0.0,0.0,0.0,0.0,0.0,0.0,0.0,0.0,0.0,0.0,0.0,0.0,0.0,0.0,0.0,0.0,0.0,0.0,0.0,0.0,0.0,0.0,0.0,0.0,0.0,0.0,0.0,0.0,0.0,0.0,0.0,0.0,0.0,0.0,0.0,0.0,0.0,0.0,0.0,0.0,0.0,0.0,0.0,0.0,0.0,0.0,0.0,0.0,0.0,0.0,0.0,0.0,0.0,0.0,0.0,0.0,0.0,0.0,0.0,0.0,0.0,0.0,0.0,0.0,0.0,0.0,0.0,0.0,0.0,0.0,0.0,0.0,0.0,0.0,0.0,0.0,0.0,0.0,0.0,0.0,0.0,0.0,0.0,0.0,0.0,0.0,0.0,0.0,-2.4164,0.0,0.0,0.0,0.0,0.0,0.0,0.0,0.0,0.0,0.0,0.0,0.0,0.0,0.0,0.0,0.0,0.0,0.0,0.0,0.0,0.0,0.0,0.0,0.0,0.1674,0.1695,0.1723,0.1726,0.1733,0.1746,0.0,0.0,0.0,0.0,0.0,0.1791,0.1806,0.1823,0.1839,0.1507,0.0117,-0.2002,-0.1821,-0.2109,-0.2623,0.0,0.0,0.0,0.0,0.0,0.0,0.0,0.0,0.0,0.0,0.0,0.0,0.0,0.0,0.0,0.0,0.0,0.0,0.0,0.0,0.0,0.0,0.0,0.0,0.0,0.0,0.0,0.0,0.0,0.0,0.0,0.0,0.0,0.0,0.0,0.0,0.0,0.0,0.0,0.0,0.0,0.0,0.0,0.0,0.0,0.0,0.0,0.0,0.0,0.0,0.0,0.0,0.0,0.0,0.0,0.0,0.0,0.0,0.0,0.0,0.0,0.0,0.0,0.0,0.0,0.0,0.0,0.0,0.0,0.0,0.0,-2.4884,0.0,0.0,0.0,0.0,0.0,0.0,0.0,0.0,0.0,0.0,0.0,0.0,0.0,0.0,0.0,0.0,0.0,0.0,0.0,0.0,0.0,0.1665,0.1669,0.1695,0.1726,0.1763,0.1765,0.1778,0.1809,0.1835,0.0,0.0,0.1873,0.1888,0.1894,0.1899,0.1785,0.1671,0.1436,0.012,-0.2156,-0.2633,-0.2829,-0.2864,-0.3692,0.0,0.0,0.0,0.0,0.0,0.0,0.0,0.0,0.0,0.0,0.0,0.0,0.0,0.0,0.0,0.0,0.0,0.0,0.0,0.0,0.0,0.0,0.0,0.0,0.0,0.0,0.0,0.0,0.0,0.0,0.0,0.0,0.0,0.0,0.0,0.0,0.0,0.0,0.0,0.0,0.0,0.0,0.0,0.0,0.0,0.0,0.0,0.0,0.0,0.0,0.0,0.0,0.0,0.0,0.0,0.0,0.0,0.0,0.0,0.0,0.0,0.0,0.0,0.0,-2.6002,-2.6334,-2.6683,-2.6793,-2.6756,-2.6291,-2.6237,-2.638,0.0,0.0,0.0,0.0,0.0,0.0,0.0,0.0,0.0,0.0,0.0,0.0,0.0,0.0,0.0,0.0,0.0,0.0,0.0,0.0,0.1671,0.1696,0.1726,0.1767,0.1824,0.1828,0.1842,0.1872,0.1877,0.188,0.188,0.1884,0.1898,0.1925,0.1951,0.1606,0.1001,-0.0127,-0.1402,-0.2678,-0.2933,-0.3413,-0.397,-0.4397,-0.4965,-0.5564,0.0,0.0,0.0,0.0,0.0,0.0,0.0,0.0,0.0,0.0,0.0,0.0,0.0,0.0,0.0,0.0,0.0,0.0,0.0,0.0,0.0,0.0,0.0,0.0,0.0,0.0,0.0,0.0,0.0,0.0,0.0,0.0,0.0,0.0,0.0,0.0,0.0,0.0,0.0,0.0,0.0,-1.7802,-1.8605,0.0,0.0,0.0,0.0,0.0,0.0,0.0,0.0,0.0,0.0,0.0,0.0,0.0,0.0,-2.5138,-2.5189,-2.5604,-2.6162,-2.6558,-2.6936,-2.7164,-2.7505,-2.7618,-2.76,-2.7602,0.0,-2.6929,-2.7485,0.0,0.0,0.0,0.0,0.0,0.0,0.0,0.0,0.0,0.0,0.0,0.0,0.0,0.0,0.0,0.0,0.0,0.0,0.0,0.0,0.0,0.1772,0.1812,0.1838,0.1855,0.1872,0.1885,0.1902,0.1919,0.1936,0.1952,0.1974,0.2005,0.2019,0.102,-0.0906,-0.1432,-0.2098,-0.2909,-0.3305,-0.3801,-0.4517,-0.5319,-0.5766,-0.6007,-0.655,0.0,0.0,0.0,0.0,0.0,0.0,0.0,0.0,0.0,0.0,0.0,0.0,0.0,0.0,0.0,0.0,0.0,0.0,0.0,0.0,0.0,0.0,0.0,0.0,0.0,0.0,0.0,0.0,0.0,0.0,0.0,0.0,0.0,0.0,0.0,0.0,0.0,0.0,0.0,-1.7998,-1.8621,-1.932,-1.9686,-2.02,0.0,0.0,0.0,0.0,0.0,0.0,0.0,0.0,0.0,-2.5172,-2.5189,-2.5446,-2.5994,-2.6217,-2.6626,-2.7107,-2.7815,-2.83,-2.842,-2.8901,-2.914,-2.914,-2.914,-2.9057,-2.8769,-2.8408,-2.8248,-2.8314,0.0,0.0,0.0,0.0,-2.937,-2.9642,0.0,0.0,0.0,0.0,0.0,0.0,0.0,0.0,0.0,0.0,0.0,0.0,0.1757,0.1809,0.1847,0.1862,0.1884,0.1903,0.1918,0.1941,0.1967,0.1997,0.2019,0.2048,0.2086,0.1708,0.0398,-0.201,-0.2277,-0.2694,-0.3131,-0.3673,-0.4327,-0.5085,-0.6019,-0.6477,-0.6611,-0.719,-0.7784,-0.839,0.0,0.0,0.0,0.0,0.0,0.0,0.0,0.0,0.0,0.0,0.0,0.0,0.0,0.0,0.0,0.0,0.0,0.0,0.0,0.0,0.0,0.0,0.0,0.0,0.0,0.0,0.0,0.0,0.0,0.0,0.0,0.0,0.0,0.0,0.0,0.0,0.0,-1.8956,-1.9447,-2.0165,-2.0748,-2.1355,0.0,0.0,0.0,0.0,0.0,0.0,-2.5617,-2.5652,-2.5874,-2.6354,-2.6371,-2.6542,-2.6919,-2.721,-2.7501,-2.7758,-2.8905,-2.9332,-2.935,-3.0192,-3.0497,-3.0497,-3.0387,-3.0351,-3.0241,-2.9512,-2.9355,-2.9489,-2.985,-3.0113,-3.0313,-3.0078,-3.0247,-3.0533,0.0,0.0,0.0,0.0,0.0,0.0,0.0,0.0,0.0,0.0,0.0,0.1727,0.1786,0.1821,0.1864,0.1921,0.1928,0.1952,0.2008,0.2014,0.2027,0.2059,0.2061,0.209,0.2148,0.0689,-0.0419,-0.1259,-0.2517,-0.3215,-0.3357,-0.4055,-0.4893,-0.559,-0.6422,-0.6901,-0.7179,-0.7833,-0.8335,-0.8812,-0.938,0.0,0.0,0.0,0.0,0.0,0.0,0.0,0.0,0.0,0.0,0.0,0.0,0.0,0.0,0.0,0.0,0.0,0.0,0.0,0.0,0.0,0.0,0.0,0.0,0.0,0.0,0.0,0.0,0.0,0.0,0.0,0.0,0.0,0.0,0.0,0.0,0.0,0.0,-2.1237,-2.1609,0.0,0.0,0.0,0.0,-2.5292,-2.5652,-2.6028,-2.6405,-2.6422,-2.6765,-2.7501,-2.7518,-2.7706,-2.81,-2.8117,-2.8152,-2.8169,-2.9291,-2.974,-2.9758,-3.0883,-3.1322,-3.1304,-3.0919,-3.0754,-3.0717,-3.0631,-3.0569,-3.0433,-3.083,-3.1054,-3.1206,-3.0769,-3.095,-3.134,0.0,0.0,0.0,0.0,0.0,0.0,0.1525,0.1577,0.1635,0.1682,0.1697,0.1735,0.1816,0.1851,0.1885,0.1928,0.1966,0.1996,0.2018,0.2037,0.2061,0.2091,0.2112,0.2151,0.2211,-0.0279,-0.1698,-0.2016,-0.2734,-0.3337,-0.3537,-0.4567,-0.5402,-0.5747,-0.7035,-0.7739,-0.8003,-0.8481,-0.8922,-0.9212,-1.0079,-1.0361,0.0,0.0,0.0,0.0,0.0,0.0,0.0,0.0,0.0,0.0,0.0,0.0,0.0,0.0,0.0,0.0,0.0,0.0,0.0,0.0,0.0,0.0,0.0,0.0,0.0,0.0,0.0,0.0,0.0,0.0,0.0,0.0,0.0,0.0,0.0,0.0,0.0,-2.2306,-2.2912,0.0,0.0,-2.5303,-2.5929,-2.6439,-2.6799,-2.7176,-2.7569,-2.7586,-2.7706,-2.798,-2.822,-2.8545,-2.8905,-2.9162,-2.9402,-2.9641,-3.0443,-3.0893,-3.091,-3.1829,-3.2166,-3.2148,-3.2019,-3.1946,-3.1946,-3.193,-3.1537,-3.0944,-3.1309,-3.1595,-3.1919,-3.188,-3.2175,-3.2488,0.0,0.0,0.0,0.0,0.0,0.1525,0.1525,0.1577,0.1637,0.1696,0.1704,0.1742,0.1844,0.1873,0.1906,0.1956,0.1996,0.2027,0.2048,0.2078,0.2108,0.2139,0.2178,0.1946,0.1421,-0.0856,-0.217,-0.2365,-0.2955,-0.3425,-0.3633,-0.4993,-0.5849,-0.6198,-0.7668,-0.8425,-0.8771,-0.9308,-0.9582,-0.989,-1.0706,-1.0986,-1.0981,0.0,0.0,0.0,0.0,0.0,0.0,0.0,0.0,0.0,0.0,0.0,0.0,0.0,0.0,0.0,0.0,0.0,0.0,0.0,0.0,0.0,0.0,0.0,0.0,0.0,0.0,0.0,0.0,0.0,0.0,0.0,0.0,0.0,0.0,0.0,-2.2413,-2.3435,-2.4168,-2.4959,-2.5676,-2.6389,-2.7021,-2.7432,-2.7672,-2.8032,-2.8545,-2.8563,-2.8682,-2.8939,-2.9196,-2.9453,-2.9693,-2.995,-3.0189,-3.0565,-3.1384,-3.1726,-3.1862,-3.2666,-3.301,-3.2991,-3.2863,-3.2808,-3.279,-3.2661,-3.2357,-3.1879,-3.2131,-3.2527,-3.2883,-3.2819,-3.3069,-3.3376,0.0,0.0,0.0,0.0,0.0,0.1525,0.1525,0.1577,0.1637,0.1696,0.1704,0.175,0.1873,0.1885,0.1922,0.2011,0.2019,0.2045,0.2105,0.2139,0.217,0.2202,0.2119,0.1441,-0.0,-0.0887,-0.1646,-0.2425,-0.3181,-0.3635,-0.3637,-0.5304,-0.6362,-0.6808,-0.8013,-0.8795,-0.9313,-1.0041,-1.0588,-1.0877,-1.1387,-1.1524,-1.1421,0.0,0.0,0.0,0.0,0.0,0.0,0.0,0.0,0.0,0.0,0.0,0.0,0.0,0.0,0.0,0.0,0.0,0.0,0.0,0.0,0.0,0.0,0.0,0.0,0.0,0.0,0.0,0.0,0.0,0.0,0.0,0.0,0.0,-2.2084,-2.2941,-2.3764,-2.4449,-2.5478,-2.644,-2.7073,-2.745,-2.7809,-2.8203,-2.8254,-2.858,-2.9299,-2.935,-2.9676,-3.0412,-3.0446,-3.0446,-3.0446,-3.0463,-3.0599,-3.1007,-3.182,-3.2409,-3.2701,-3.3532,-3.3853,-3.3835,-3.345,-3.3266,-3.323,-3.2826,-3.2777,-3.3159,-3.3539,-3.3936,-3.4123,-3.3642,-3.3709,-3.3968,0.0,0.0,0.0,0.0,0.0,0.1525,0.1525,0.1577,0.1637,0.1696,0.1704,0.175,0.1873,0.1885,0.1922,0.2011,0.2038,0.2068,0.2106,0.2158,0.1935,0.1415,0.1871,0.0876,-0.1776,-0.1497,-0.1971,-0.307,-0.3529,-0.4006,-0.466,-0.5748,-0.6645,-0.7201,-0.8116,-0.9106,-1.0008,-1.0357,-1.1181,-1.216,-1.1829,-1.1803,-1.2114,0.0,0.0,0.0,0.0,0.0,0.0,0.0,0.0,0.0,0.0,0.0,0.0,0.0,0.0,0.0,0.0,0.0,0.0,0.0,0.0,0.0,0.0,0.0,0.0,0.0,0.0,0.0,0.0,0.0,0.0,0.0,0.0,-2.3055,-2.3086,-2.4023,-2.5005,-2.5947,-2.652,-2.7204,-2.7843,-2.846,-2.8888,-2.8991,-2.9504,-2.9898,-3.0104,-3.0121,-3.0206,-3.0429,-3.0703,-3.0995,-3.1271,-3.1531,-3.1809,-3.2243,-3.3053,-3.3513,-3.3531,-3.4372,-3.4697,-3.4697,-3.4587,-3.4367,-3.4073,-3.3945,-3.3743,-3.355,-3.3632,-3.3936,-3.4181,-3.4323,-3.4744,-3.5348,0.0,0.0,0.0,0.0,0.0,0.1525,0.1525,0.1577,0.1637,0.1696,0.1704,0.175,0.1873,0.1885,0.1926,0.2029,0.2053,0.2082,0.2125,0.2185,0.1824,0.1153,0.1169,0.0148,-0.2398,-0.1972,-0.2303,-0.3422,-0.3576,-0.4208,-0.5022,-0.5958,-0.6874,-0.7752,-0.8375,-0.9392,-1.0643,-1.0715,-1.1603,-1.2812,-1.2365,-1.2292,-1.2537,-1.3131,-1.3207,-1.3048,-1.3379,-1.3626,-1.382,-1.3446,0.0,0.0,0.0,0.0,0.0,0.0,0.0,0.0,0.0,0.0,0.0,0.0,0.0,0.0,0.0,0.0,0.0,0.0,0.0,0.0,0.0,0.0,0.0,0.0,-2.3709,-2.423,-2.4596,-2.5136,-2.5968,-2.6974,-2.7621,-2.8281,-2.8648,-2.9333,-2.9778,-2.9778,-3.0172,-3.0498,-3.0669,-3.0669,-3.0737,-3.0891,-3.1425,-3.1755,-3.2036,-3.2543,-3.3038,-3.3482,-3.3982,-3.4233,-3.4394,-3.4774,-3.5027,0.0,-3.5027,-3.4899,-3.466,-3.466,-3.4532,0.0,0.0,0.0,0.0,0.0,-3.5258,-3.5621,0.0,0.0,0.0,0.1436,0.1393,0.143,0.1525,0.1577,0.1637,0.1696,0.1704,0.175,0.1873,0.1885,0.1934,0.2053,0.2064,0.2093,0.2161,0.2215,0.1989,0.1312,0.0444,-0.0749,-0.2271,-0.2457,-0.2799,-0.3458,-0.3613,-0.4241,-0.5187,-0.5965,-0.706,-0.8319,-0.8627,-0.9656,-1.1091,-1.1079,-1.1828,-1.3044,-1.285,-1.2828,-1.3054,-1.3681,-1.369,-1.3438,-1.3789,-1.4211,-1.4528,-1.3699,0.0,0.0,0.0,0.0,0.0,0.0,0.0,0.0,0.0,0.0,0.0,0.0,0.0,0.0,0.0,0.0,0.0,0.0,0.0,0.0,0.0,0.0,0.0,0.0,-2.4723,-2.5749,-2.6298,-2.6438,-2.681,-2.7714,-2.8844,-2.9436,-2.9436,-3.0087,-3.0498,-3.0498,-3.0532,-3.072,-3.1114,0.0,0.0,0.0,0.0,-3.2911,-3.2911,-3.3677,-3.4144,-3.4577,-3.4613,-3.4794,-3.51,-3.5137,-3.5174,-3.5174,-3.5174,-3.5137,-3.51,-3.51,-3.5082,-3.4954,-3.4659,-3.4759,-3.5078,-3.5394,-3.55,-3.5369,0.0,0.0,0.0,0.1436,0.1114,0.0954,0.1049,0.138,0.1637,0.1696,0.1704,0.175,0.1873,0.1885,0.1934,0.2053,0.2064,0.211,0.2221,0.2238,0.2131,0.2041,0.0746,-0.0454,-0.1514,-0.2168,-0.2978,-0.377,-0.3768,-0.4574,-0.6204,-0.6302,-0.7248,-0.8744,-0.8816,-0.9698,-1.1219,-1.1115,-1.1947,-1.3372,-1.3073,-1.3286,-1.4001,-1.4101,-1.4104,-1.4235,-1.4471,-1.4587,-1.4599,-1.4477,-1.433,-1.4288,-1.4714,-1.4539,0.0,0.0,0.0,0.0,0.0,0.0,0.0,0.0,0.0,0.0,0.0,0.0,0.0,0.0,0.0,0.0,0.0,0.0,0.0,-2.4706,-2.5205,-2.6107,-2.7668,-2.8093,-2.8404,-2.8946,-2.9761,-3.0206,-3.0206,-3.0635,-3.0909,-3.0909,-3.1183,-3.1508,-3.1902,-3.2204,0.0,-3.2884,-3.3406,-3.3874,-3.4163,-3.4252,-3.4577,-3.4883,0.0,0.0,-3.5522,-3.5834,-3.5981,-3.5981,-3.5981,-3.5797,-3.5504,-3.5504,-3.532,-3.5009,-3.5698,-3.5857,-3.597,-3.6307,-3.6405,-3.6261,0.0,0.0,0.0,0.1436,0.1206,0.1049,0.0954,0.1282,0.1637,0.1696,0.1704,0.175,0.1873,0.1885,0.1928,0.2033,0.2069,0.2132,0.2238,0.1824,0.1847,0.2334,0.0748,-0.0455,-0.1211,-0.2017,-0.2985,-0.3768,-0.3768,-0.4721,-0.6329,-0.6292,-0.7236,-0.8855,-0.8802,-0.9708,-1.1256,-1.1195,-1.204,-1.3468,-1.323,-1.3704,-1.4699,-1.437,-1.4334,-1.464,-1.4875,-1.4893,-1.4923,-1.4945,-1.4991,-1.501,-1.5195,-1.5079,-1.4955,0.0,0.0,0.0,0.0,0.0,0.0,0.0,0.0,0.0,0.0,0.0,0.0,0.0,0.0,-2.2383,-2.324,0.0,-2.4754,-2.5278,-2.602,-2.7079,-2.813,-2.9093,-2.9597,-2.9864,-3.0378,-3.072,-3.072,-3.1063,-3.1371,-3.1559,-3.1748,-3.2148,-3.2671,-3.285,-3.3208,-3.3546,-3.4195,-3.4594,-3.4739,-3.5212,-3.5468,-3.5632,-3.5815,-3.5907,-3.5925,-3.6109,-3.6201,-3.6201,-3.6201,-3.6091,-3.5907,-3.5907,-3.5797,-3.5614,-3.6487,-3.6542,-3.6272,-3.6833,-3.6975,-3.7016,0.0,0.0,0.0,0.1436,0.1206,0.1049,0.0858,0.1282,0.1637,0.1696,0.1704,0.1748,0.1865,0.1883,0.1924,0.2019,0.2078,0.2146,0.2232,0.1541,0.1276,0.1889,0.0596,-0.0454,-0.1211,-0.2013,-0.2978,-0.3768,-0.3768,-0.4714,-0.6295,-0.6281,-0.7221,-0.8812,-0.8788,-0.9708,-1.1262,-1.1262,-1.2106,-1.3476,-1.3319,-1.4032,-1.5263,-1.4692,-1.4647,-1.4852,-1.5216,-1.5276,-1.5236,-1.5314,-1.5472,-1.5632,-1.5569,-1.5615,-1.5695,-1.5801,-1.5885,0.0,0.0,0.0,0.0,0.0,0.0,0.0,0.0,-2.0237,-2.0715,-2.172,-2.2245,-2.2898,-2.4034,-2.4854,-2.5342,-2.5771,-2.7003,-2.7965,-2.8411,-2.9716,-3.0566,-3.0635,-3.0926,-3.1114,-3.1114,-3.1456,-3.1799,-3.2107,-3.2193,-3.2688,-3.336,-3.3524,-3.385,-3.4213,-3.4974,-3.5301,-3.5301,-3.5906,-3.6201,-3.6201,-3.6201,-3.6201,-3.6201,-3.6201,-3.6201,-3.6201,-3.6201,-3.6201,-3.6201,-3.6201,-3.6201,-3.6201,-3.7107,-3.7005,-3.6523,-3.7158,-3.7363,-3.7387,0.0,0.0,0.0,0.0,0.0,0.0286,0.0763,0.1282,0.1637,0.1696,0.1704,0.174,0.1835,0.1869,0.1933,0.2049,0.209,0.2136,0.22,0.1533,0.0847,0.0287,0.0147,-0.0449,-0.1211,-0.215,-0.2953,-0.3768,-0.3768,-0.4734,-0.6373,-0.6305,-0.7252,-0.8916,-0.8821,-0.9708,-1.1262,-1.1262,-1.2106,-1.3476,-1.3319,-1.4032,-1.5263,-1.4692,-1.4864,-1.547,-1.5702,-1.5533,-1.5391,-1.5746,-1.585,-1.5687,-1.5988,-1.6136,-1.6263,-1.6895,-1.7202,-1.741,-1.7728,-1.8167,-1.8728,-1.9192,-1.9467,-1.9981,0.0,-2.1299,-2.185,-2.2731,-2.3469,-2.4049,-2.4838,-2.5342,-2.5786,-2.6454,-2.754,-2.8444,-2.9121,-3.0273,-3.108,-3.1388,-3.1474,-3.1508,-3.1508,-3.185,-3.209,-3.2124,-3.2722,-3.3378,-3.3778,-3.4533,-3.5136,-3.5461,-3.5812,-3.6146,-3.6146,-3.6182,-3.6201,-3.6201,-3.6201,-3.6201,-3.6201,-3.6201,-3.6201,-3.6201,-3.6201,-3.6201,-3.6201,-3.6201,-3.6201,-3.6201,-3.7107,-3.7345,-3.7378,-3.7701,-3.7617,-3.7285,0.0,0.0,0.0,0.0,0.0,0.0095,0.0286,0.1085,0.1632,0.1674,0.1695,0.1733,0.1806,0.1873,0.194,0.2007,0.2056,0.2109,0.217,0.1514,0.084,-0.0,-0.0874,-0.1332,-0.1198,-0.2139,-0.2938,-0.3729,-0.3756,-0.4721,-0.6319,-0.6288,-0.7232,-0.8845,-0.8797,-0.9708,-1.1256,-1.1183,-1.2033,-1.3468,-1.3215,-1.3945,-1.5281,-1.4806,-1.4973,-1.5643,-1.5873,-1.5772,0.0,-1.599,-1.6299,-1.6312,-1.6136,-1.6436,-1.6786,-1.7067,-1.7365,-1.7712,-1.8366,-1.9166,-1.9779,-2.0118,-2.073,-2.1322,-2.1715,-2.1994,-2.2481,-2.3291,-2.3916,-2.4624,-2.5217,-2.5866,-2.6342,0.0,-2.78,-2.8758,-2.927,-3.0358,-3.1148,-3.1525,-3.1559,-3.1645,-3.1867,-3.2039,-3.2313,-3.2758,-3.3388,-3.3926,-3.4461,-3.5074,-3.5591,-3.5903,-3.6052,-3.6201,-3.6201,-3.6201,-3.6201,-3.6201,-3.6201,-3.6201,-3.6201,-3.6201,-3.6201,-3.6201,-3.6201,-3.6201,-3.6201,-3.6201,-3.6201,-3.6201,-3.7107,-3.7421,-3.753,-3.8088,-3.8203,-3.8008,0.0,0.0,0.0,0.0,0.0,0.0095,0.0191,0.0887,0.1424,0.1554,0.1686,0.1731,0.18,0.1874,0.1934,0.1973,0.2022,0.2078,0.2138,0.1492,0.0829,-0.0,-0.1439,-0.2045,-0.1478,-0.2115,-0.2906,-0.3682,-0.3715,-0.466,-0.6213,-0.6213,-0.7142,-0.8693,-0.8693,-0.9613,-1.1146,-1.1054,-1.1894,-1.3334,-1.3096,-1.3817,-1.5131,-1.4798,-1.4964,-1.5567,-1.5923,-1.5883,-1.5737,-1.6263,-1.663,-1.6834,-1.6412,-1.6854,-1.7395,-1.7541,-1.7868,-1.8499,-1.9063,-2.0002,-2.0755,-2.0988,-2.1582,-2.2198,-2.2286,-2.2527,-2.3007,-2.3673,-2.4332,-2.5015,-2.5707,-2.6342,-2.6708,-2.6803,-2.7943,-2.8919,-2.9303,-3.0304,-3.1128,-3.1525,-3.1559,-3.1765,-3.2244,-3.2278,-3.2552,-3.322,-3.3804,-3.4425,-3.4989,-3.5456,-3.5903,-3.6201,-3.6201,-3.6201,-3.6201,-3.6201,-3.6201,-3.6201,-3.6201,-3.6201,-3.6201,-3.6201,-3.6201,-3.6201,-3.6201,-3.6201,-3.6201,-3.6201,-3.6219,-3.6349,-3.7107,-3.7421,-3.7715,-3.8282,-3.8574,-3.8535,0.0,0.0,0.0,0.0,0.0,0.0191,0.0668,0.0789,0.1017,0.1554,0.1686,0.1738,0.1829,0.1868,0.1911,0.1971,0.2003,0.2046,0.2238,0.1471,0.0813,-0.0,-0.1412,-0.2307,-0.2337,-0.2365,-0.2844,-0.3633,-0.3635,-0.4394,-0.606,-0.606,-0.6966,-0.8469,-0.8469,-0.9371,-1.0877,-1.0871,-1.1682,-1.3014,-1.3006,-1.3674,-1.4745,-1.4551,-1.4756,-1.5376,-1.6042,-1.6025,-1.5737,-1.6501,-1.6875,-1.6857,-1.6973,-1.7479,-1.8077,-1.8286,-1.9285,-2.0233,-2.0233,-2.0928,-2.1646,-2.1646,-2.1915,-2.2257,-2.255,-2.2852,-2.3412,-2.4325,-2.4856,-2.5438,-2.6517,-2.666,-2.6787,-2.7137,-2.8044,-2.8923,-2.9336,-3.0383,-3.1135,-3.1559,-3.1559,-3.185,0.0,-3.2672,-3.2826,-3.3237,-3.4346,-3.4989,-3.5007,-3.5754,-3.6201,-3.6201,-3.6201,-3.6201,-3.6201,-3.6201,-3.6201,-3.6201,-3.6201,-3.6201,-3.6201,-3.6201,-3.6201,-3.6201,-3.6201,-3.6201,-3.6201,-3.6201,-3.6367,-3.6812,-3.7255,-3.7715,-3.8009,-3.8428,-3.8574,-3.8574,0.0,0.0,0.0,0.0,0.0,0.0,0.0763,0.0789,0.1012,0.1529,0.1674,0.0,0.0,0.0,0.0,0.0,0.1962,0.2008,0.2049,0.1442,0.0802,-0.0,-0.0966,-0.1683,-0.2275,-0.2323,-0.2794,-0.3545,-0.3604,-0.4389,-0.6053,-0.6053,-0.6958,-0.8459,-0.8459,-0.9361,-1.0859,-1.0767,-1.1524,-1.2827,-1.2723,-1.3388,-1.4534,-1.4349,-1.4691,-1.541,0.0,-1.5772,-1.5737,-1.6501,-1.6875,-1.6868,-1.6984,-1.7491,-1.8114,-1.8749,-1.9721,-2.0561,-2.0801,-2.1506,-2.2097,-2.2219,-2.2515,-2.2828,-2.2915,-2.3192,-2.3499,-2.3848,-2.4776,-2.5545,-2.5908,-2.6593,-2.7057,-2.7185,-2.7868,-2.8663,-2.9303,-3.0182,-3.0865,-3.1542,-3.1559,0.0,0.0,0.0,0.0,-3.3597,-3.4486,-3.5007,-3.5007,-3.5754,-3.6201,-3.6201,-3.6201,-3.6201,-3.6201,-3.6201,-3.6201,-3.6201,-3.6201,-3.6201,-3.6201,-3.6201,-3.6201,-3.6201,-3.6201,-3.6201,-3.6201,-3.6201,-3.6516,-3.6812,-3.7255,-3.7715,-3.8009,-3.8428,-3.8574,-3.8574,0.0,0.0,0.0,0.0,0.0,0.0,0.0,0.0,0.0,0.0,0.0,0.0,0.0,0.0,0.0,0.0,0.0,0.1974,0.2004,0.141,0.0784,-0.0,-0.0675,-0.1507,-0.2213,-0.2271,-0.2589,-0.3453,-0.3508,-0.442,-0.5897,-0.5897,-0.6774,-0.8236,-0.8236,-0.9113,-1.0572,-1.048,-1.1246,-1.2567,-1.247,-1.3117,-1.4244,-1.4121,-1.4566,0.0,-1.5453,-1.5479,-1.5638,-1.6596,-1.6796,-1.6989,-1.7221,-1.7917,-1.8631,-1.9376,-2.0268,-2.1119,-2.1362,-2.1954,-2.2552,-2.2798,-2.2959,-2.3106,-2.3106,-2.323,-2.3524,-2.3768,-2.4508,-2.5288,-2.5665,-2.6315,-2.6925,-2.7051,-2.7637,-2.8397,-2.9012,-2.9804,-3.059,-3.1243,-3.1559,-3.1799,0.0,0.0,0.0,-3.3785,-3.4574,-3.5007,-3.5007,-3.5754,-3.6201,-3.6201,-3.6201,-3.6201,-3.6201,-3.6201,-3.6201,-3.6201,-3.6201,-3.6201,-3.6201,-3.6201,-3.6201,-3.6201,-3.6201,-3.6201,-3.6201,-3.6349,-3.6664,-3.7107,-3.7421,-3.7862,-3.8302,-3.8428,-3.8574,-3.8574,0.0,0.0,0.0,0.0,0.0,0.0,0.0,0.0,0.0,0.0,0.0,0.0,0.0,0.0,0.0,0.0,0.0,0.0,0.1973,0.1377,0.0762,-0.0,-0.0662,-0.1478,-0.215,-0.2208,-0.2658,-0.3357,-0.3361,-0.4203,-0.5607,-0.5607,-0.6442,-0.7831,-0.7831,-0.8665,-1.0058,-1.0058,-1.0882,-1.2239,-1.2239,-1.2855,-1.3735,-1.3735,-1.4272,-1.4798,-1.5162,-1.5391,-1.5571,-1.654,-1.6903,-1.7086,-1.7811,-1.8618,-1.9496,-2.0026,-2.0944,-2.1684,-2.1807,-2.2391,-2.3106,-2.3106,-2.3106,-2.3106,-2.3106,-2.3106,-2.3319,-2.3896,-2.4097,-2.4434,-2.5328,-2.5843,-2.623,-2.6573,-2.7185,-2.794,-2.8721,-2.9355,-3.0136,0.0,0.0,0.0,0.0,0.0,0.0,-3.3751,0.0,-3.5007,-3.5007,-3.5754,-3.6201,-3.6201,-3.6201,-3.6201,-3.6201,-3.6201,-3.6201,-3.6201,-3.6201,-3.6201,-3.6201,-3.6201,-3.6201,-3.6201,-3.6201,-3.6201,-3.6201,-3.6664,-3.7107,-3.7421,-3.7862,-3.8302,-3.8574,-3.8594,-3.8613,-3.8613,0.0,0.0,0.0,0.0,0.0,0.0,0.0,0.0,0.0,0.0,0.0,0.0,0.0,0.0,0.0,0.0,0.0,0.0,0.1939,0.1355,0.0751,-0.0,-0.0646,-0.1434,-0.2087,-0.2124,-0.2558,-0.3263,-0.3298,-0.4164,-0.5607,-0.5607,-0.6442,-0.7831,-0.7831,-0.8665,-1.0058,-1.0058,-1.0763,-1.1903,-1.1903,-1.2489,-1.3453,-1.3453,-1.4057,-1.4941,-1.5064,-1.5287,-1.5709,-1.6605,-1.7267,-1.7811,-1.8219,-1.8877,-1.9784,-2.0456,-2.1204,-2.1992,-2.2242,-2.2673,-2.3106,-2.3106,-2.3106,-2.3106,-2.3106,-2.3106,-2.3135,-2.3348,-2.3806,-2.4157,-2.4464,-2.4963,0.0,-2.6215,-2.6487,0.0,-2.8316,-2.8842,0.0,-3.0539,0.0,-3.1429,-3.209,-3.2467,0.0,0.0,-3.4399,-3.5007,-3.5007,-3.5754,-3.6201,-3.6201,-3.6201,-3.6201,-3.6201,-3.6201,-3.6201,-3.6201,-3.6201,-3.6201,-3.6201,-3.6201,-3.6201,-3.6201,-3.6201,-3.6349,-3.6664,-3.6812,-3.7255,-3.7862,-3.8009,-3.8302,-3.8613,-3.8926,-3.9043,-3.9082,0.0,0.0,0.0,0.0,0.0,0.0,0.0,0.0,0.0,0.0,0.0,0.0,0.0,0.0,0.0,0.0,0.0,0.0,0.0,0.132,0.0731,-0.0,-0.0628,-0.127,-0.2045,-0.2075,-0.2491,-0.3171,-0.3197,-0.4026,-0.541,-0.541,-0.6215,-0.756,-0.7689,-0.8494,-0.9704,-0.9837,-1.0538,0.0,0.0,-1.2171,-1.3172,-1.3172,-1.392,-1.4832,-1.4832,-1.535,-1.6087,-1.6709,-1.7493,-1.8219,-1.8568,-1.927,-2.0024,-2.051,-2.1369,-2.2104,-2.2355,-2.2731,-2.3106,-2.3106,-2.3106,-2.3106,-2.3106,-2.3106,-2.3106,-2.3106,-2.3377,-2.368,-2.3828,-2.4389,-2.4887,0.0,0.0,0.0,-2.7407,-2.8196,-2.9028,0.0,-3.0623,0.0,-3.185,-3.2364,-3.2775,0.0,-3.4241,-3.5007,-3.5007,-3.5754,-3.6201,-3.6201,-3.6201,-3.6201,-3.6201,-3.6201,-3.6201,-3.6201,-3.6201,-3.6201,-3.6201,-3.6201,-3.6349,-3.6516,0.0,-3.6664,-3.7107,-3.7255,-3.7663,-3.8278,-3.8426,-3.8837,-3.918,-3.9414,-3.9512,-3.97,0.0,0.0,0.0,0.0,0.0,0.0,0.0,0.0,0.0,0.0,0.1667,0.1704,0.0,0.0,0.0,0.0,0.0,0.0,0.0,0.0,0.071,-0.0,-0.0609,-0.1359,-0.2004,-0.2031,-0.2431,-0.3079,-0.3213,-0.386,-0.5154,-0.5283,-0.6054,-0.7207,-0.7586,-0.8353,-0.9379,-0.9627,-1.0383,-1.1262,-1.124,-1.2001,-1.2943,0.0,-1.3528,-1.4569,-1.4687,-1.5387,-1.6446,-1.6833,-1.7572,-1.8466,-1.8707,-1.9455,-2.0241,-2.0535,-2.1313,-2.2062,-2.2104,-2.2606,-2.3106,-2.3106,-2.3076,-2.3047,-2.3047,-2.3018,-2.2988,-2.2988,-2.2988,-2.3076,-2.3354,-2.3695,-2.4082,-2.4411,0.0,-2.6137,-2.6542,-2.7557,-2.8598,-2.9593,-3.0143,-3.073,-3.1384,-3.2244,-3.2689,-3.2689,-3.4119,-3.5007,-3.5007,-3.5754,-3.6201,-3.6201,-3.6201,-3.6201,-3.6201,-3.6201,-3.6201,-3.6201,-3.6201,-3.6201,-3.6201,-3.6201,-3.6516,-3.6812,0.0,0.0,-3.7644,-3.7939,-3.8336,-3.887,-3.9148,-3.9551,-3.9902,-3.9961,-3.998,-4.0131,0.0,0.0,0.0,0.0,0.0,0.0,0.0,0.0,0.0,0.0,0.1667,0.1704,0.0,0.0,0.0,0.0,0.0,0.0,0.0,0.0,0.0,-0.0,-0.0593,-0.119,-0.1909,-0.2179,-0.2578,-0.2985,-0.3525,-0.4331,-0.5154,-0.5665,-0.6438,-0.7207,-0.7847,-0.8614,-0.9379,-0.9895,-1.0454,-1.1068,-1.1187,-1.1752,-1.2522,-1.2355,0.0,0.0,-1.4895,-1.5465,-1.6057,-1.6494,-1.7414,-1.8428,-1.8478,-1.9155,-1.9933,-2.0591,-2.1244,-2.192,-2.2409,-2.2856,-2.3106,-2.3106,-2.2901,-2.271,-2.271,-2.252,-2.2345,-2.2345,-2.2345,-2.2359,-2.2418,-2.2623,-2.3024,-2.3738,-2.4447,-2.5257,-2.6137,-2.6941,-2.782,0.0,-2.9576,-3.031,-3.096,-3.21,0.0,0.0,0.0,0.0,-3.5007,-3.5754,-3.6201,-3.6201,-3.6201,-3.6201,-3.6201,-3.6201,-3.6201,-3.6201,-3.6201,-3.6201,-3.6201,-3.6516,-3.6664,-3.6812,-3.7107,0.0,-3.838,-3.8528,-3.8928,-3.9635,-3.9785,-3.9824,-3.9941,-4.0273,-4.0563,-4.1059,0.0,0.0,0.0,0.0,0.0,0.0,0.0,0.1617,0.1622,0.1639,0.1678,0.1704,0.1704,0.1759,0.1795,0.0,0.0,0.0,0.0,0.0,0.0,-0.0,-0.0582,-0.1168,-0.1885,-0.2136,-0.251,-0.2891,0.0,-0.4276,-0.4923,-0.5579,-0.6345,-0.6965,-0.783,-0.8447,-0.8934,-0.9721,-1.0251,-1.0651,-1.0806,-1.1435,-1.2276,-1.2179,0.0,0.0,-1.5004,-1.5558,-1.5908,-1.6261,-1.7074,-1.7805,-1.821,-1.909,-1.9826,-2.0199,-2.0698,-2.1202,-2.1586,-2.1874,-2.2119,-2.2119,-2.2004,-2.189,-2.189,-2.179,-2.1689,-2.1689,-2.1689,-2.1689,-2.1929,-2.2045,-2.2355,-2.3059,-2.3634,-2.4462,-2.5535,-2.6315,-2.7248,-2.8688,-2.9363,-2.997,-3.0943,-3.1786,0.0,0.0,0.0,0.0,-3.4989,-3.5754,-3.6201,-3.6201,-3.6201,-3.6201,-3.6201,-3.6201,-3.6201,-3.6201,-3.6349,-3.6497,-3.6516,-3.696,-3.7368,-3.7724,-3.7892,0.0,-3.9271,-3.9271,-3.9674,-4.0215,-4.0215,-4.0371,-4.0586,-4.1089,-4.1302,-4.1629,0.0,0.0,0.0,0.0,0.0,0.0,0.1617,0.1617,0.1628,0.1659,0.1686,0.1707,0.1714,0.1763,0.1795,0.0,0.0,0.0,0.0,0.0,0.0,0.0,0.0,0.0,-0.175,0.0,0.0,-0.2811,-0.3526,0.0,0.0,0.0,0.0,0.0,-0.7773,-0.8367,-0.8598,-0.9538,-1.0069,0.0,0.0,-1.1282,-1.2082,0.0,0.0,0.0,0.0,-1.54,-1.5735,-1.6028,-1.661,-1.7254,-1.797,-1.879,-1.9522,-1.976,-2.0199,-2.0629,-2.0698,-2.0953,-2.1194,-2.1194,-2.1138,-2.1096,-2.1096,-2.0984,-2.09,-2.09,-2.09,-2.1019,-2.1242,-2.1475,-2.1795,-2.234,-2.3044,-2.3878,-2.494,-2.5696,-2.6666,-2.8325,-2.8979,-2.9738,-3.0684,-3.1582,0.0,0.0,0.0,0.0,0.0,-3.5903,-3.6201,-3.6201,-3.6201,-3.6201,-3.6201,-3.6201,-3.6201,-3.6349,-3.6664,-3.6849,-3.7091,-3.7535,-3.8078,-3.8759,-3.8778,0.0,0.0,-4.0039,-4.0273,-4.0664,-4.0664,-4.0859,-4.1327,-4.1618,-4.1927,-4.2082,0.0,0.0,0.0,0.0,0.0,0.0,0.1617,0.1617,0.1628,0.1659,0.1686,0.1715,0.1742,0.1775,0.1795,0.0,0.0,0.0,0.0,0.0,0.0,0.0,0.0,0.0,0.0,0.0,0.0,-0.2764,-0.3972,0.0,0.0,0.0,0.0,0.0,0.0,-0.8347,-0.8457,-0.9729,0.0,0.0,0.0,0.0,0.0,0.0,0.0,0.0,0.0,-1.4894,-1.5144,-1.5713,-1.6332,-1.6929,-1.7464,-1.8081,-1.8748,-1.9522,-2.005,-2.0369,-2.0643,-2.0953,-2.1194,-2.1194,-2.0984,-2.0892,-2.0892,-2.034,-1.9934,-1.9934,-1.9934,-1.9934,-1.9934,-2.0628,-2.1346,-2.1781,-2.2583,-2.3518,-2.4573,-2.5227,-2.6096,-2.7216,-2.8533,-2.9501,-2.9897,-3.1287,0.0,0.0,0.0,0.0,0.0,-3.6201,-3.6201,-3.6201,-3.6201,-3.6201,-3.6201,-3.6201,-3.6349,-3.6812,-3.6812,-3.7147,-3.797,-3.8269,-3.8817,-3.9221,-3.9674,0.0,0.0,-4.0469,-4.0723,-4.1113,-4.1113,-4.1443,-4.1773,-4.1773,-4.2236,-4.2851,0.0,0.0,0.0,0.0,0.0,0.0,0.1617,0.1633,0.1655,0.1684,0.1714,0.1742,0.1774,0.1787,0.1795,0.1795,0.1795,0.0,0.0,0.0,0.0,0.0,0.0,0.0,0.0,0.0,-0.2719,-0.2719,-0.3987,0.0,0.0,0.0,0.0,0.0,0.0,-0.8329,-0.8323,-0.9483,0.0,0.0,0.0,0.0,0.0,0.0,0.0,0.0,0.0,0.0,-1.4858,-1.5217,-1.5731,-1.6319,-1.6929,-1.741,-1.7935,-1.8977,-1.9381,-1.9564,-1.9861,-2.006,-2.0019,-1.9829,-1.9707,-1.9571,-1.9508,-1.9163,-1.8986,-1.8986,-1.8986,-1.9152,-1.9443,-1.9904,-2.0456,-2.1303,-2.1886,-2.2686,-2.3848,-2.4787,-2.5773,-2.6722,-2.8348,0.0,0.0,0.0,0.0,0.0,0.0,0.0,0.0,-3.6201,-3.6201,-3.6201,-3.6201,-3.6201,-3.6201,-3.6516,-3.6664,-3.6812,-3.75,-3.8006,-3.8345,-3.9063,-3.9562,-3.9969,-4.0121,0.0,0.0,-4.0918,-4.1016,-4.1172,-4.1483,-4.1618,-4.1927,-4.239,-4.2697,-4.3004,0.0,0.0,0.0,0.0,0.0,0.1617,0.1617,0.1643,0.1673,0.17,0.1731,0.1761,0.1791,0.1795,0.1795,0.1795,0.1795,0.0,0.0,0.0,0.0,0.0,0.0,0.0,0.0,0.0,-0.2694,-0.2694,-0.3921,-0.448,0.0,0.0,-0.6379,-0.6379,0.0,0.0,0.0,0.0,0.0,0.0,0.0,0.0,0.0,0.0,0.0,0.0,0.0,0.0,0.0,0.0,0.0,-1.581,-1.6304,-1.67,-1.7041,-1.8249,-1.8685,-1.8838,-1.9052,-1.9105,-1.9052,-1.8851,-1.8798,-1.8744,-1.8544,-1.8424,-1.8357,-1.8357,-1.8357,-1.8534,-1.8959,-1.9248,-1.9763,-2.0741,-2.1403,-2.2103,-2.3394,-2.4523,-2.5436,-2.6308,0.0,0.0,0.0,0.0,0.0,0.0,0.0,0.0,0.0,-3.6201,-3.6201,-3.6201,-3.6201,-3.6201,-3.6349,-3.6664,-3.7016,-3.7295,-3.8193,-3.8759,-3.9159,-3.979,-4.0312,-4.0723,-4.0723,0.0,0.0,-4.1172,-4.1327,-4.1483,-4.1618,-4.1927,-4.2236,-4.2851,-4.3004,-4.3157,0.0,0.0,0.0,0.0,0.0,0.1617,0.1617,0.1643,0.1673,0.17,0.1731,0.1761,0.1791,0.1795,0.1795,0.1795,0.1795,0.0,0.0,0.0,0.0,0.0,0.0,0.0,0.0,0.0,-0.2694,-0.2694,-0.3921,-0.448,-0.448,-0.5712,-0.6274,-0.6386,0.0,0.0,0.0,0.0,-0.9816,0.0,0.0,0.0,0.0,0.0,0.0,0.0,0.0,0.0,0.0,0.0,0.0,0.0,0.0,-1.5927,-1.6193,-1.7676,-1.8269,-1.849,-1.8504,-1.8504,-1.8504,-1.849,-1.849,-1.849,-1.849,-1.8263,-1.805,-1.805,-1.805,-1.805,-1.805,-1.8752,-1.958,-2.0228,-2.1142,-2.2016,-2.2944,-2.4371,-2.5267,0.0,0.0,0.0,0.0,0.0,0.0,0.0,0.0,0.0,0.0,0.0,-3.6201,-3.6201,-3.6201,-3.6349,-3.6812,-3.6812,-3.7462,-3.8624,-3.8624,-3.9217,-4.0508,-4.0508,-4.0762,0.0,0.0,0.0,0.0,-4.1172,-4.1483,-4.1773,-4.1773,-4.2236,-4.3024,-4.3004,-4.331,-4.3615,0.0,0.0,0.0,0.0,0.0,0.0,0.1617,0.1659,0.1695,0.1703,0.1749,0.1785,0.1794,0.1795,0.1795,0.1795,0.1795,0.0,0.0,0.0,0.0,0.0,0.0,0.0,0.0,-0.2356,-0.2694,-0.2694,-0.3921,-0.448,-0.448,-0.5712,-0.6386,-0.6604,-0.7604,-0.8263,0.0,-0.9485,-1.0257,0.0,0.0,0.0,0.0,0.0,0.0,0.0,0.0,0.0,0.0,0.0,0.0,0.0,0.0,0.0,0.0,-1.6147,-1.6945,-1.7663,-1.787,-1.7935,-1.7883,-1.7676,-1.7624,-1.7572,-1.7378,-1.7368,-1.7423,-1.7423,-1.7636,-1.7796,-1.8009,-1.848,-1.9054,-1.9793,-2.0765,-2.1583,-2.2421,-2.4109,0.0,0.0,0.0,0.0,0.0,0.0,0.0,0.0,0.0,0.0,0.0,0.0,-3.6201,-3.6201,-3.6516,-3.6664,-3.6812,-3.7686,-3.8193,-3.8644,-3.9523,-4.0102,-4.0527,-4.084,-4.1035,0.0,0.0,0.0,0.0,-4.1618,-4.1927,-4.2216,-4.2544,-4.2697,-4.3004,-4.331,-4.3462,-4.3656,0.0,0.0,0.0,0.0,0.0,0.0,0.1617,0.1666,0.1704,0.1704,0.1757,0.1795,0.1795,0.1795,0.1795,0.1795,0.1795,0.0,0.0,0.0,0.0,0.0,0.0,0.0,-0.1795,-0.2356,-0.2694,-0.2694,-0.3921,-0.448,-0.448,-0.5712,-0.6497,-0.6715,-0.7604,-0.8374,0.0,-0.9809,-1.0688,-1.1555,0.0,0.0,-1.2202,0.0,0.0,0.0,0.0,0.0,0.0,0.0,0.0,0.0,0.0,0.0,0.0,0.0,-1.5865,-1.6537,-1.6921,-1.7118,-1.7092,-1.7016,-1.6991,-1.6952,-1.6774,-1.6842,-1.7067,-1.7173,-1.7384,-1.7543,-1.7836,-1.821,-1.8766,-1.9501,-2.0508,-2.1435,-2.2064,0.0,0.0,0.0,0.0,0.0,0.0,0.0,0.0,0.0,0.0,0.0,0.0,0.0,-3.6219,-3.6367,-3.6664,-3.6887,-3.7184,-3.8193,-3.8798,-3.9275,-4.0102,-4.0605,-4.0781,-4.1055,-4.1172,0.0,0.0,0.0,0.0,-4.1927,-4.2236,-4.2697,-4.2851,-4.3157,-4.331,-4.3462,-4.3871,-4.4211,0.0,0.0,0.0,0.0,0.0,0.0,0.0,0.1771,0.1812,0.1813,0.1868,0.1908,0.1908,0.1795,0.1795,0.1795,0.1795,0.0,0.0,0.0,0.0,0.0,0.0,0.0,-0.1795,-0.2356,-0.2694,-0.2694,-0.3921,-0.448,-0.4592,-0.5712,-0.6497,-0.6826,-0.7604,-0.8374,-0.903,-1.0249,-1.1017,-1.1546,-1.1666,-1.1887,0.0,0.0,0.0,0.0,0.0,0.0,0.0,0.0,0.0,0.0,0.0,0.0,0.0,0.0,0.0,0.0,0.0,-1.6175,-1.6251,-1.6504,-1.658,-1.6592,-1.6592,-1.6617,0.0,-1.7067,-1.7173,-1.7292,-1.7503,-1.809,-1.8725,-1.9306,-2.0424,-2.1449,-2.2122,-2.3983,0.0,0.0,0.0,0.0,0.0,0.0,0.0,0.0,0.0,0.0,0.0,0.0,-3.6349,-3.6812,-3.6831,-3.7333,-3.8008,-3.8514,-3.9237,-4.0527,-4.0547,-4.0781,-4.1172,-4.1172,-4.1172,0.0,0.0,0.0,0.0,-4.2216,-4.2697,-4.3004,-4.3004,-4.331,-4.3615,-4.3656,-4.4232,-4.4915,0.0,0.0,0.0,0.0,0.0,0.0,0.0,0.0,0.0,0.0,0.2436,0.2468,0.2468,0.2244,0.2132,0.0,0.0,0.0,0.0,0.0,0.0,0.0,0.0,0.0,-0.1795,-0.2356,-0.2694,-0.2694,-0.3921,-0.4592,-0.4819,-0.5824,-0.672,-0.7382,-0.7826,-0.8595,-0.9699,-1.0578,-1.1236,-1.1538,-1.1512,-1.1756,0.0,0.0,0.0,0.0,-1.2662,-1.2856,0.0,0.0,0.0,0.0,0.0,0.0,0.0,0.0,-1.4485,-1.4545,-1.4923,0.0,-1.5413,-1.5475,-1.5646,-1.5793,0.0,-1.607,-1.643,-1.6537,-1.6855,-1.7238,-1.7567,-1.8127,-1.8861,-1.9863,-2.069,-2.1605,-2.2704,0.0,0.0,0.0,0.0,0.0,0.0,0.0,0.0,0.0,0.0,0.0,0.0,0.0,-3.6349,-3.6812,-3.7408,-3.7932,-3.8475,-3.9271,-3.9849,-4.0527,-4.0859,-4.1074,-4.1172,-4.1172,-4.1327,0.0,0.0,0.0,-4.2697,-4.2851,-4.3157,-4.3462,-4.3462,-4.3462,-4.3656,-4.4315,-4.4656,-4.5174,0.0,0.0,0.0,0.0,0.0,0.0,0.0,0.0,0.0,0.0,0.2666,0.2694,0.2694,0.2356,0.2244,0.0,0.0,0.0,0.0,0.0,0.0,0.0,-0.0561,-0.1234,-0.1795,-0.2356,-0.2694,-0.2694,-0.3921,-0.4592,-0.4931,-0.5824,-0.672,-0.7604,-0.8491,-0.9154,-0.9816,-1.0907,-1.1455,-1.1647,-1.1563,0.0,0.0,0.0,0.0,0.0,-1.2759,-1.2759,0.0,-1.305,-1.3147,-1.3147,0.0,0.0,0.0,0.0,-1.4016,-1.4148,-1.4302,-1.4628,-1.4956,-1.5077,-1.5306,-1.5499,-1.5499,-1.581,-1.6111,-1.6217,-1.6744,-1.73,-1.7577,-1.8176,-1.9063,-2.0085,-2.0788,-2.1868,0.0,0.0,0.0,0.0,0.0,0.0,0.0,0.0,0.0,0.0,0.0,0.0,0.0,0.0,-3.6664,-3.7107,-3.78,-3.8422,-3.8932,-3.981,-4.0391,-4.082,-4.1055,-4.1172,-4.1172,-4.1327,-4.1618,0.0,0.0,0.0,-4.3004,-4.3157,-4.3462,-4.3615,-4.3615,-4.3892,-4.4252,-4.4656,-4.5476,-4.623,0.0,0.0,0.0,0.0,0.0,0.0,0.0,0.0,0.0,0.0,0.0,0.0,0.0,0.0,0.0,0.0,0.0,0.0,0.0,0.0,0.0,0.0224,-0.0561,-0.1234,-0.1795,-0.2356,-0.2694,-0.2694,-0.3921,-0.4704,-0.5039,-0.594,-0.6831,-0.7715,-0.9154,-0.9816,-0.9926,-1.1126,-1.1564,-1.1647,-1.1773,0.0,0.0,0.0,0.0,0.0,0.0,0.0,0.0,-1.2909,-1.2995,-1.2995,-1.3239,0.0,0.0,0.0,0.0,0.0,-1.3835,-1.4193,-1.4616,-1.498,-1.5246,-1.5451,-1.5487,-1.5704,-1.6004,-1.6267,-1.6775,-1.729,-1.7598,-1.8401,-1.9334,-2.0238,-2.1131,0.0,0.0,0.0,0.0,0.0,0.0,0.0,0.0,0.0,0.0,0.0,0.0,0.0,0.0,0.0,0.0,-3.7421,-3.8173,-3.8913,-3.943,-4.016,-4.0742,-4.1172,-4.1172,-4.1172,-4.1327,-4.1618,-4.1927,-4.2082,0.0,0.0,-4.3157,-4.3462,-4.3615,-4.3615,-4.3698,-4.4252,-4.4936,-4.5216,-4.623,-4.7561,0.0,0.0,0.0,0.0,0.0,0.0,0.0,0.0,0.0,0.0,0.0,0.0,0.0,0.0,0.0,0.0,0.0,0.0,0.0,0.0,0.0,0.0785,-0.0336,-0.1234,-0.1795,-0.2356,-0.2694,-0.2694,-0.3921,-0.4815,-0.5373,-0.6047,-0.6937,-0.8048,-0.9265,-0.9816,-0.9926,-1.1126,-1.1564,-1.1647,-1.1773,0.0,0.0,0.0,0.0,0.0,0.0,0.0,0.0,-1.2533,-1.2468,-1.2531,-1.2592,0.0,0.0,0.0,0.0,0.0,-1.3545,-1.3665,-1.3854,-1.4616,-1.498,-1.5221,-1.5451,-1.5704,-1.5958,-1.6284,-1.6804,-1.7296,-1.7904,-1.8722,-1.9699,-2.0837,0.0,0.0,0.0,0.0,0.0,0.0,0.0,0.0,0.0,0.0,0.0,0.0,0.0,0.0,0.0,0.0,0.0,-3.7421,-3.8609,-3.9353,-3.9751,-4.0312,-4.0742,-4.1172,-4.1172,-4.1327,-4.1773,-4.1773,-4.2236,-4.2851,0.0,-4.3157,-4.3462,-4.3615,-4.3615,-4.3656,-4.4336,-4.4852,-4.5153,-4.6556,-4.7432,-4.7761,0.0,0.0,0.0,0.0,0.0,0.0,0.0,0.0,0.0,0.0,0.0,0.0,0.0,0.0,0.0,0.0,0.0,0.0,0.0,0.1908,0.157,0.0897,0.0112,-0.0897,-0.1795,-0.2356,-0.2694,-0.2694,-0.3921,-0.4815,-0.5373,-0.6599,-0.7493,-0.8042,-0.9265,-0.9816,-0.9926,-1.1126,-1.1564,-1.1647,0.0,0.0,0.0,0.0,0.0,0.0,0.0,0.0,0.0,0.0,-1.2414,-1.2371,-1.2308,0.0,0.0,0.0,0.0,0.0,-1.3244,-1.334,-1.3636,-1.4313,-1.4713,-1.4969,-1.5439,-1.5813,-1.6139,-1.626,-1.6956,-1.7628,-1.8161,0.0,-1.9826,-2.1435,0.0,0.0,0.0,0.0,0.0,0.0,0.0,0.0,0.0,0.0,0.0,0.0,0.0,0.0,0.0,0.0,0.0,0.0,-3.8951,-3.9849,-4.0234,-4.0664,-4.0976,-4.1172,-4.1483,-4.1618,-4.1773,-4.2236,-4.2697,-4.3004,0.0,-4.3462,-4.3615,-4.3615,-4.3912,-4.4315,-4.4677,-4.5518,-4.6514,-4.7826,-4.8243,-4.8444,0.0,0.0,0.0,0.0,0.0,0.0,0.0,0.0,0.0,0.0,0.0,0.0,0.0,0.0,0.0,0.0,0.0,0.0,0.0,0.1896,0.1564,0.1121,0.0449,-0.0561,-0.1795,-0.2356,-0.2694,-0.2694,-0.3921,-0.4927,-0.5596,-0.7265,-0.8048,-0.8042,-0.9265,-0.9816,-0.9926,-1.1126,-1.1564,-1.1647,0.0,0.0,0.0,0.0,0.0,0.0,0.0,0.0,0.0,0.0,0.0,0.0,0.0,0.0,0.0,-1.2328,-1.2628,-1.305,-1.305,-1.3191,-1.3532,-1.4072,-1.4378,-1.4777,-1.5315,-1.5851,-1.6198,-1.6368,-1.7141,-1.784,-1.8478,0.0,0.0,0.0,0.0,0.0,0.0,0.0,0.0,0.0,0.0,0.0,0.0,0.0,0.0,0.0,0.0,0.0,0.0,0.0,0.0,0.0,-3.9217,-4.0098,-4.0527,-4.0957,-4.1172,-4.1327,-4.1618,-4.1927,-4.2082,-4.2697,-4.3004,-4.3157,-4.3462,-4.3615,-4.3615,-4.3767,-4.419,-4.4915,-4.5195,-4.6407,-4.7913,-4.8597,-4.8907,-4.9065,0.0,0.0,0.0,0.0,0.0,0.0,0.0,0.0,0.0,0.0,0.0,0.0,0.0,0.0,0.0,0.0,0.0,0.0,0.0,0.1972,0.1765,0.1682,0.0673,-0.0561,-0.1795,-0.2244,-0.2468,-0.2694,-0.3921,-0.5039,-0.6274,-0.7493,-0.8048,-0.8042,-0.9265,-0.9816,-0.9926,-1.1126,-1.1564,-1.1647,-1.1773,0.0,0.0,0.0,0.0,0.0,0.0,0.0,0.0,0.0,0.0,0.0,0.0,0.0,-1.2162,-1.2162,-1.2498,-1.2856,-1.2856,-1.3019,-1.3236,-1.3801,-1.4174,-1.4516,-1.5341,-1.567,-1.6038,-1.6622,-1.7322,-1.8139,-1.8758,0.0,0.0,0.0,0.0,0.0,0.0,0.0,0.0,0.0,0.0,0.0,0.0,0.0,0.0,0.0,0.0,0.0,0.0,0.0,0.0,0.0,0.0,-4.0098,-4.0527,-4.0957,-4.1327,-4.1773,-4.1773,-4.2236,-4.2851,-4.3004,-4.3157,-4.3615,-4.3615,-4.3615,-4.3615,-4.405,-4.4495,-4.4957,-4.6326,-4.7545,-4.8842,-4.8886,-4.9223,-4.9538,0.0,0.0,0.0,0.0,0.0,0.0,0.0,0.0,0.0,0.0,0.0,0.3813,0.3589,0.0,0.0,0.0,0.0,0.0,0.2514,0.2188,0.1984,0.1794,0.1009,-0.0,-0.1234,-0.202,-0.2468,-0.2694,-0.4257,-0.5485,-0.6274,-0.7493,-0.8048,-0.8042,-0.9265,-0.9816,-0.9926,-1.1126,-1.1564,-1.1655,-1.1921,-1.1935,0.0,0.0,0.0,0.0,0.0,0.0,0.0,0.0,-1.214,-1.1962,-1.1499,-1.1671,-1.214,-1.214,-1.2393,-1.2759,-1.2759,-1.2931,-1.3168,-1.3507,-1.3904,-1.4423,-1.5298,-1.5806,-1.6287,-1.6535,-1.7358,-1.8274,-1.9496,0.0,0.0,0.0,0.0,0.0,0.0,0.0,0.0,0.0,0.0,0.0,0.0,0.0,0.0,0.0,0.0,0.0,0.0,0.0,0.0,0.0,0.0,-4.0234,-4.0918,-4.1404,-4.1773,-4.2216,-4.2216,-4.2544,-4.3004,-4.331,-4.3462,-4.3615,-4.3615,-4.3767,-4.4092,-4.4516,-4.5222,-4.6193,-4.7588,-4.8423,-4.8907,-4.9223,-4.9381,-4.9538,0.0,0.0,0.0,0.0,0.0,0.0,0.0,0.0,0.4369,0.0,0.0,0.0,0.0,0.3628,0.0,0.0,0.0,0.0,0.258,0.2272,0.2077,0.1779,0.123,0.0336,-0.0897,-0.1795,-0.2356,-0.2694,-0.4369,-0.5601,-0.6274,-0.7382,-0.7937,-0.8042,-0.9265,-0.9816,-0.9926,-1.1017,-1.1455,-1.1664,-1.1898,-1.1906,0.0,0.0,0.0,0.0,0.0,0.0,0.0,0.0,-1.214,-1.1962,-1.1499,-1.1671,-1.214,-1.214,-1.2393,-1.2759,-1.2759,-1.2985,-1.3265,-1.3437,-1.389,-1.4473,-1.5143,-1.5726,-1.6205,-1.6691,-1.7577,-1.8717,-1.9954,-2.1096,0.0,0.0,0.0,0.0,0.0,0.0,0.0,0.0,0.0,0.0,0.0,0.0,0.0,0.0,0.0,0.0,0.0,0.0,0.0,0.0,-3.943,-4.0312,-4.1172,-4.1618,-4.2082,-4.237,-4.2524,-4.2851,-4.3157,-4.3462,-4.3615,-4.3615,-4.3767,-4.3919,-4.4243,-4.5011,-4.6044,-4.7484,-4.8423,-4.8907,-4.8907,-4.9381,-4.9538,-4.9852,0.0,0.0,0.0,0.0,0.0,0.0,0.0,0.0,0.448,0.448,0.448,0.0,0.0,0.0,0.0,0.0,0.0,0.0,0.2486,0.2215,0.204,0.1857,0.1222,0.0336,-0.0897,-0.1458,-0.2132,-0.2694,-0.4148,-0.5377,-0.6274,-0.716,-0.7715,-0.8042,-0.9265,-0.9816,-0.9816,-1.0688,-1.1236,-1.1664,-1.1693,-1.1695,-1.1794,0.0,0.0,0.0,0.0,0.0,0.0,0.0,-1.2048,-1.1962,-1.1499,-1.1671,-1.2048,-1.2048,-1.2382,-1.2759,-1.2759,-1.3114,-1.348,-1.348,-1.4008,-1.46,-1.4826,-1.5303,-1.5892,-1.6856,-1.8131,-1.9474,-2.0295,-2.1018,0.0,0.0,0.0,0.0,0.0,0.0,0.0,0.0,0.0,0.0,0.0,0.0,0.0,0.0,0.0,0.0,0.0,0.0,0.0,0.0,-3.943,-4.0312,-4.1172,-4.1618,-4.2082,-4.237,-4.2851,-4.3157,-4.3615,-4.3615,-4.3615,-4.3615,-4.4071,-4.4222,-4.4243,-4.5641,-4.7006,-4.823,-4.8711,-4.8907,-4.8907,-4.9381,-4.9852,-5.0322,0.0,0.0,0.0,0.0,0.0,0.0,0.0,0.0,0.5043,0.4815,0.4815,0.0,0.0,0.0,0.0,0.0,0.0,0.0,0.2799,0.2502,0.2226,0.1857,0.1208,0.0443,-0.0673,-0.1795,-0.2805,-0.3589,-0.4484,-0.5377,-0.6274,-0.7049,-0.7598,-0.8042,-0.8816,-0.9368,-0.9816,-1.0586,-1.1126,-1.1673,-1.1837,-1.1815,-1.1813,0.0,0.0,0.0,0.0,0.0,0.0,0.0,0.0,0.0,-1.1051,-1.1216,-1.1589,-1.1589,-1.191,-1.2273,-1.2273,-1.2504,0.0,-1.2854,-1.3696,-1.4569,-1.4643,-1.5319,-1.6369,-1.7579,-1.8536,-1.9505,-2.0585,-2.1301,0.0,0.0,0.0,0.0,0.0,0.0,0.0,0.0,0.0,0.0,0.0,0.0,0.0,0.0,0.0,0.0,0.0,0.0,0.0,0.0,-3.9581,-4.0312,-4.1172,-4.1927,-4.2216,-4.237,-4.3136,-4.3462,-4.3615,-4.3615,-4.3767,-4.405,-4.4201,-4.4694,-4.5662,-4.6939,-4.7965,-4.8711,-4.8842,-4.9065,-4.9381,-4.9852,-5.0322,-5.0678,0.0,0.0,0.0,0.0,0.0,0.0,0.5382,0.5382,0.5382,0.5154,0.5043,0.4901,0.0,0.0,0.0,0.3736,0.3672,0.0,0.2871,0.2583,0.2303,0.1712,0.1411,0.0551,-0.1009,-0.202,-0.2917,-0.3589,-0.4369,-0.5154,-0.6158,-0.6715,-0.7376,-0.8042,-0.8595,-0.9258,-0.9816,-1.0366,-1.0907,-1.1455,-1.1673,-1.1763,-1.1615,0.0,0.0,0.0,0.0,0.0,0.0,0.0,0.0,0.0,-1.0889,-1.102,-1.1303,-1.1303,-1.1627,-1.2001,-1.2092,-1.2375,0.0,0.0,-1.3495,-1.4417,-1.4886,0.0,0.0,0.0,-1.8593,-1.9362,-2.0592,0.0,0.0,0.0,0.0,0.0,0.0,0.0,0.0,0.0,0.0,0.0,0.0,0.0,0.0,0.0,0.0,0.0,0.0,0.0,0.0,0.0,-3.9732,-4.0465,-4.1463,-4.2062,-4.2524,-4.2697,-4.331,-4.3615,-4.3615,-4.3615,-4.3767,-4.4222,-4.4715,-4.5662,-4.6789,-4.7704,-4.8449,-4.8907,-4.9065,-4.9223,-4.9538,-5.0165,-5.0746,-5.1129,0.0,0.0,0.5493,0.5493,0.0,0.0,0.5493,0.5493,0.5493,0.5493,0.5382,0.523,0.0,0.0,0.0,0.383,0.3669,0.3433,0.2927,0.2666,0.2277,0.1659,0.1716,0.0661,-0.1678,-0.213,-0.258,-0.3026,-0.4033,-0.4927,-0.5824,-0.6381,-0.716,-0.8042,-0.8595,-0.9147,-0.9816,-1.0147,-1.0586,-1.1126,-1.1455,-1.1558,-1.1426,-1.1719,0.0,0.0,0.0,0.0,0.0,0.0,0.0,0.0,-1.099,-1.1071,-1.1251,-1.1251,-1.1552,-1.1923,-1.2134,0.0,0.0,0.0,0.0,0.0,0.0,0.0,0.0,0.0,0.0,-1.9328,-2.0232,0.0,0.0,0.0,0.0,0.0,0.0,0.0,0.0,0.0,0.0,0.0,0.0,0.0,0.0,0.0,0.0,0.0,0.0,0.0,0.0,0.0,-3.9732,-4.0445,-4.1773,-4.2216,-4.2544,0.0,-4.3462,-4.3615,-4.3615,-4.3615,-4.3898,-4.4395,-4.5662,-4.6768,-4.7531,-4.8034,-4.8492,-4.9065,-4.9381,-4.9538,-4.9695,-5.0478,-5.1084,-5.1672,0.0,0.0,0.6051,0.6051,0.0,0.0,0.6051,0.6051,0.6051,0.5712,0.5712,0.5537,0.5046,0.5014,0.0,0.4275,0.4045,0.3732,0.3433,0.2835,0.2349,0.2281,0.1287,0.0219,-0.1099,-0.2006,-0.258,-0.2805,-0.3921,-0.4927,-0.5824,-0.6163,-0.6937,-0.8048,-0.8152,-0.8816,-0.9816,-0.9926,-1.0366,-1.1126,-1.1455,-1.1648,-1.1627,-1.1775,-1.1661,0.0,0.0,0.0,0.0,0.0,0.0,0.0,-1.076,-1.0836,-1.1019,-1.1019,-1.1192,-1.1404,-1.1452,-1.174,0.0,0.0,0.0,0.0,0.0,0.0,0.0,0.0,0.0,0.0,0.0,0.0,0.0,0.0,0.0,0.0,0.0,0.0,0.0,0.0,0.0,0.0,0.0,0.0,0.0,0.0,0.0,0.0,0.0,0.0,0.0,-3.9712,-3.9883,-4.0445,-4.1773,-4.2216,-4.2544,0.0,-4.3462,-4.3767,-4.4071,-4.4071,-4.4504,-4.5148,-4.6637,-4.7225,-4.7553,-4.8405,-4.8956,-4.9381,-4.9538,-4.9852,-5.0478,-5.0789,-5.1262,-5.2235,0.0,0.0,0.0,0.0,0.0,0.0,0.0,0.0,0.6274,0.6047,0.6047,0.5859,0.5341,0.5324,0.0,0.0,0.4236,0.4034,0.3635,0.3128,0.2545,0.2072,0.1161,0.0215,-0.0765,-0.1655,-0.2336,-0.2694,-0.3701,-0.4592,-0.5377,-0.6051,-0.6831,-0.7826,-0.7937,-0.8602,-0.9596,-0.9706,-1.0147,-1.0806,-1.1236,-1.1458,-1.1487,-1.1695,-1.1681,-1.1501,-1.1387,0.0,0.0,0.0,0.0,0.0,0.0,0.0,-1.0896,-1.0896,-1.1038,-1.1217,-1.1321,0.0,0.0,0.0,0.0,0.0,0.0,0.0,0.0,0.0,0.0,0.0,0.0,0.0,0.0,0.0,0.0,0.0,0.0,0.0,0.0,0.0,0.0,0.0,0.0,0.0,0.0,0.0,0.0,0.0,0.0,-3.7421,-3.8097,-3.9863,-3.9902,-4.0597,-4.2062,-4.237,-4.2677,-4.331,-4.3462,-4.3919,-4.4504,-4.4654,-4.5083,-4.5793,-4.7007,-4.7619,-4.7881,-4.8759,-4.9381,-4.9538,-5.0009,-5.0322,-5.0811,-5.1373,-5.2097,-5.2917,0.0,0.0,0.0,0.0,0.0,0.0,0.0,0.0,0.0,0.6386,0.6386,0.6193,0.5771,0.5642,0.5352,0.0,0.0,0.0,0.3736,0.333,0.2642,0.1651,0.114,0.0422,-0.0652,-0.1419,-0.2096,-0.2694,-0.3589,-0.426,-0.4819,-0.5824,-0.672,-0.7493,-0.7826,-0.8491,-0.9375,-0.9706,-1.0036,-1.0366,-1.0907,-1.115,-1.1335,-1.1514,-1.1613,-1.1512,-1.1447,-1.1306,-1.1246,-1.1208,0.0,0.0,0.0,0.0,-1.0953,-1.0953,-1.1066,-1.1236,-1.1416,0.0,-1.202,-1.2852,0.0,0.0,0.0,0.0,0.0,0.0,0.0,0.0,0.0,0.0,0.0,0.0,0.0,0.0,0.0,0.0,0.0,0.0,0.0,0.0,0.0,0.0,0.0,0.0,0.0,0.0,0.0,-3.7421,-3.8097,-3.9863,-3.9902,-4.0749,-4.237,-4.2524,-4.283,-4.3615,-4.3767,-4.4201,-4.4955,-4.5256,-4.5814,-4.6312,-4.7116,-4.775,-4.8364,-4.9182,-4.9538,-4.9852,-5.0478,-5.0789,-5.1012,-5.1982,-5.2802,-5.3762,0.0,0.0,0.0,0.0,0.0,0.0,0.0,0.0,0.0,0.0,0.6604,0.6518,0.5979,0.5744,0.5452,0.5157,0.4638,0.4236,0.3934,0.0,0.0,0.1622,0.1545,0.0839,-0.0641,-0.141,-0.2096,-0.2694,-0.3589,-0.4148,-0.4592,-0.5712,-0.6604,-0.7265,-0.782,-0.8374,-0.9037,-0.9596,-1.0036,-1.0366,-1.0907,-1.1109,-1.1185,-1.1353,-1.1469,-1.159,-1.1244,-1.1299,-1.1444,-1.1255,-1.1179,0.0,0.0,0.0,-1.1151,-1.1151,-1.1179,-1.1198,0.0,0.0,-1.202,0.0,-1.3069,-1.324,0.0,0.0,0.0,0.0,0.0,0.0,0.0,0.0,0.0,0.0,0.0,0.0,0.0,0.0,0.0,0.0,0.0,0.0,0.0,0.0,0.0,0.0,0.0,0.0,-3.7402,-3.7421,-3.8097,-3.9863,-4.0184,-4.1052,-4.237,-4.2697,-4.3157,-4.3615,-4.4352,-4.4805,-4.5405,-4.5704,-4.6115,-4.6615,-4.7269,-4.7904,-4.883,-4.9339,-5.0009,-5.0633,-5.0789,-5.0944,-5.1477,-5.2449,-5.3092,-5.3762,0.0,0.0,0.0,0.0,0.0,0.0,0.0,0.0,0.0,0.0,0.0,0.6984,0.6383,0.6201,0.5889,0.5337,0.5073,0.4638,0.4034,0.3126,0.2423,0.2019,0.1731,0.1134,-0.0,-0.1175,-0.2067,-0.2545,-0.3124,-0.381,-0.448,-0.5373,-0.6154,-0.6932,-0.7715,-0.8263,-0.8706,-0.9375,-0.9706,-1.0036,-1.0476,-1.0798,-1.1118,-1.115,-1.1272,-1.1478,-1.1308,-1.1102,-1.0997,-1.0907,-1.0798,-1.0708,-1.0708,0.0,0.0,0.0,-1.0708,-1.0753,-1.108,-1.1271,-1.1572,0.0,-1.2757,-1.2971,-1.3712,0.0,0.0,0.0,0.0,0.0,0.0,0.0,0.0,0.0,0.0,0.0,0.0,0.0,0.0,0.0,0.0,0.0,0.0,0.0,0.0,0.0,0.0,-3.5903,-3.7255,-3.7421,-3.8097,-3.9863,-4.0334,-4.1032,-4.237,-4.2851,-4.331,-4.3919,-4.4805,-4.5256,-4.5405,-4.5853,-4.6417,-4.716,-4.7684,-4.8344,-4.9229,-4.992,-5.0478,-5.0789,-5.1099,-5.1592,-5.2201,-5.3023,-5.3826,-5.4839,0.0,0.0,0.0,0.0,0.0,0.0,0.0,0.0,0.0,0.0,0.0,0.7448,0.6883,0.0,0.0,0.0,0.5422,0.4863,0.4034,0.333,0.2725,0.2421,0.1918,0.1223,0.0519,-0.0846,-0.1829,-0.2406,-0.289,-0.3586,-0.448,-0.5146,-0.5819,-0.6604,-0.7493,-0.8042,-0.8374,-0.9085,-0.9543,-0.9765,-1.0254,-1.0604,-1.104,-1.1109,-1.1227,-1.1315,-1.122,-1.1002,-1.0852,-1.0799,-1.065,-1.0492,-1.0492,-1.0457,0.0,0.0,0.0,-1.0501,0.0,0.0,-1.1238,-1.2054,-1.2352,-1.2809,0.0,0.0,0.0,0.0,0.0,0.0,0.0,0.0,0.0,0.0,0.0,0.0,0.0,0.0,0.0,0.0,0.0,0.0,0.0,0.0,0.0,0.0,0.0,-3.5754,-3.7255,-3.7421,-3.804,-3.9687,-4.0275,-4.1123,-4.2189,-4.2943,-4.3615,-4.4352,-4.5106,-4.5405,-4.5555,-4.6002,-4.6699,-4.7641,-4.7925,-4.8785,-4.9852,-5.0478,-5.0789,-5.0944,-5.1408,-5.2017,-5.2837,-5.3662,-5.465,-5.5644,0.0,0.0,0.0,0.0,0.0,0.0,0.0,0.0,0.0,0.0,0.0,0.7773,0.7425,0.7078,0.6765,0.6231,0.5695,0.5035,0.4038,0.3531,0.2927,0.2421,0.1918,0.0,0.0519,-0.0423,-0.1398,-0.2406,-0.289,-0.3586,-0.448,-0.5146,-0.5708,-0.6386,-0.6932,-0.7487,-0.8054,-0.8858,-0.9363,-0.9716,-1.044,-1.0732,-1.0716,-1.09,-1.1172,-1.1338,-1.0991,-1.1061,-1.123,-1.0932,-1.0852,-1.0694,-1.0694,-1.0562,-1.0413,0.0,0.0,0.0,-1.0887,-1.0993,0.0,-1.1722,0.0,0.0,0.0,0.0,0.0,0.0,0.0,0.0,0.0,0.0,0.0,0.0,0.0,0.0,0.0,0.0,0.0,0.0,0.0,0.0,0.0,0.0,0.0,0.0,0.0,-3.5754,-3.7255,-3.7421,-3.7906,-3.9219,-4.0395,-4.1283,-4.1726,-4.3387,-4.4352,-4.4805,-4.5256,-4.5555,-4.6002,-4.6448,-4.7127,-4.8056,-4.8056,-4.9071,-5.0789,-5.0789,-5.0944,-5.1431,-5.187,-5.2326,-5.2993,-5.4287,-5.5121,-5.5803,0.0,0.0,0.0,0.0,0.0,0.0,0.0,0.0,0.0,0.0,0.0,0.0,0.0,0.746,0.7158,0.6749,0.5879,0.5039,0.4038,0.3629,0.3126,0.2421,0.1918,0.1318,0.0714,-0.0315,-0.1283,-0.2043,-0.2545,-0.3253,-0.4148,-0.4592,-0.5373,-0.6274,-0.6937,-0.7533,-0.8182,-0.8678,-0.9205,-0.976,-1.0048,-1.0301,-1.0755,-1.0807,-1.1012,-1.1216,-1.097,-1.0916,-1.09,-1.0609,-1.0531,-1.0355,-1.023,-1.0146,-1.0071,-0.9954,-0.992,-1.0004,-1.0372,-1.0473,0.0,-1.1227,-1.1595,0.0,0.0,0.0,0.0,0.0,0.0,0.0,0.0,0.0,0.0,0.0,0.0,0.0,0.0,0.0,0.0,0.0,0.0,0.0,0.0,0.0,0.0,0.0,0.0,0.0,-3.7255,-3.7421,-3.8035,-3.9495,-4.0524,-4.1854,-4.3346,-4.4117,-4.4805,-4.5256,-4.5555,-4.6002,-4.6448,-4.6596,-4.7425,-4.8838,-4.8838,-4.9553,-5.0789,-5.1099,-5.1408,-5.187,-5.2024,-5.2844,-5.4061,-5.4561,-5.5649,-5.6915,0.0,0.0,0.0,0.9816,0.0,0.9816,0.9816,0.9596,0.9485,0.9258,0.0,0.0,0.0,0.0,0.7563,0.7083,0.6162,0.5201,0.4314,0.3984,0.3358,0.2443,0.2026,0.152,0.0815,-0.0315,-0.1175,-0.1826,-0.2435,-0.3141,-0.3924,-0.4257,-0.5039,-0.6047,-0.6639,-0.737,-0.8142,-0.8571,-0.9013,-0.9573,-0.9856,-1.023,-1.0575,-1.0638,-1.0848,-1.1057,-1.1004,-1.086,-1.0842,-1.0672,-1.0493,-1.0306,-1.0128,-1.003,-0.9941,-0.977,-0.9762,-0.986,-1.0095,-1.0209,-1.0428,0.0,0.0,0.0,0.0,0.0,0.0,0.0,0.0,0.0,0.0,0.0,0.0,0.0,0.0,0.0,0.0,0.0,0.0,0.0,0.0,0.0,0.0,0.0,0.0,0.0,0.0,0.0,-3.7255,-3.7421,-3.8182,-3.9937,-4.0821,-4.2153,-4.397,-4.457,-4.4955,-4.5405,-4.6002,-4.6299,-4.6596,-4.6891,-4.7894,-4.9292,-4.9593,-5.0315,-5.1254,-5.1408,-5.187,-5.2154,-5.2307,-5.34,-5.4788,-5.5099,-5.6239,-5.7631,0.9816,0.9816,0.9816,0.9816,0.9816,0.9816,0.9816,0.9816,0.9816,0.9816,0.0,0.0,0.0,0.0,0.0,0.7089,0.6338,0.5638,0.4786,0.44,0.3736,0.2596,0.2347,0.1732,0.0831,-0.0211,-0.1075,-0.1749,-0.2448,-0.3029,-0.3589,-0.4257,-0.4815,-0.5377,-0.6152,-0.6883,-0.7818,-0.8419,-0.8885,-0.9136,-1.0002,-1.0308,-1.0293,-1.0509,-1.0688,-1.102,-1.0724,-1.0886,-1.1208,-1.1037,-1.0858,-1.068,-1.0501,-1.0314,-1.0128,-0.9949,-1.0022,-1.016,0.0,0.0,0.0,-1.0647,0.0,0.0,0.0,0.0,0.0,0.0,0.0,0.0,0.0,0.0,0.0,0.0,0.0,0.0,0.0,0.0,0.0,0.0,0.0,0.0,0.0,0.0,0.0,0.0,0.0,-3.5356,-3.7217,-3.7402,-3.8329,-4.0378,-4.1285,-4.2328,-4.3509,-4.4421,-4.4955,-4.5405,-4.6299,-4.6596,-4.6596,-4.7502,-4.8339,-4.9442,-5.0169,-5.1071,-5.2,-5.2,-5.2307,-5.2612,-5.3068,-5.3861,-5.4944,-5.5718,-5.6707,-5.7789,1.1126,1.1126,1.1126,1.1126,1.1126,1.1017,1.0798,1.0578,1.0366,0.0,0.0,0.0,0.9265,0.8595,0.7877,0.7089,0.6408,0.5822,0.5112,0.4559,0.3806,0.2856,0.2422,0.1894,0.1377,0.0108,-0.0979,-0.1749,-0.2448,-0.2917,-0.325,-0.4145,-0.4845,-0.5475,-0.6258,-0.6813,-0.7359,-0.8022,-0.8708,-0.9277,-0.9438,-0.9883,-1.0471,-1.0429,-1.066,-1.1004,0.0,-1.0695,-1.0692,-1.0747,-1.0776,-1.0681,-1.061,-1.0412,-1.0152,-1.0103,-1.0119,-1.0193,-1.0322,0.0,0.0,0.0,0.0,0.0,0.0,0.0,0.0,0.0,0.0,0.0,0.0,0.0,0.0,0.0,0.0,0.0,0.0,0.0,0.0,0.0,0.0,0.0,0.0,0.0,0.0,0.0,-3.4138,-3.5229,-3.6929,-3.8234,-3.948,-4.0358,-4.1853,-4.3047,-4.3955,-4.487,-4.5555,-4.6299,-4.6448,-4.6891,-4.7502,-4.7648,-4.8634,-5.0192,-5.0318,-5.1372,-5.2764,-5.2612,-5.2612,-5.3068,-5.3243,-5.4167,-5.5718,-5.6026,-5.7172,-5.8575,1.1564,1.1564,1.1564,1.1564,1.1564,1.1564,1.1345,1.1126,1.1017,0.0,0.0,0.0,0.9493,0.8876,0.8183,0.75,0.6723,0.6041,0.5439,0.4755,0.3984,0.3124,0.2568,0.2138,0.1617,0.0326,-0.0877,-0.1768,-0.2457,-0.2805,-0.2914,-0.4033,-0.4747,-0.5169,-0.6071,-0.6641,-0.7105,-0.7686,-0.8372,-0.9057,-0.9303,-0.9757,-1.0134,-1.0392,-1.0642,0.0,0.0,0.0,-1.0822,-1.0703,-1.0646,-1.0494,-1.0529,-1.039,-1.027,-1.019,-1.0273,-1.0387,-1.0428,-1.0485,-1.0566,-1.0664,0.0,0.0,-1.1707,-1.195,0.0,0.0,0.0,0.0,0.0,0.0,0.0,0.0,0.0,0.0,0.0,0.0,0.0,0.0,0.0,0.0,0.0,0.0,0.0,-3.3109,-3.3839,-3.5102,-3.7172,-3.8754,-3.9835,-4.0407,-4.171,-4.292,-4.3805,-4.4866,-4.5806,-4.6596,-4.6891,-4.7355,-4.7794,-4.8086,-4.9075,-5.049,-5.0912,-5.1821,-5.3243,-5.337,-5.337,-5.3521,-5.3672,-5.4623,-5.6204,-5.6486,-5.7635,-5.8862,0.0,1.1791,1.1791,1.1791,1.1791,1.1791,1.1709,1.1709,1.1608,0.0,1.0974,1.0422,0.9543,0.9328,0.8897,0.8097,0.731,0.6527,0.5967,0.4993,0.4066,0.3296,0.2812,0.2375,0.1755,0.0658,-0.0552,-0.1795,-0.2356,-0.2694,-0.2694,-0.393,-0.4531,-0.461,-0.5622,-0.6428,-0.6909,-0.7351,-0.7942,-0.8591,-0.9206,-0.9532,-0.9653,0.0,-1.0431,-1.0686,-1.0813,-1.0926,-1.1121,-1.0819,-1.0629,-1.036,-1.036,-1.0463,-1.0401,-1.0247,-1.0406,-1.0688,-1.0425,-1.059,-1.0688,-1.0688,-1.0688,0.0,-1.1681,-1.1854,-1.2194,0.0,0.0,0.0,0.0,0.0,0.0,0.0,0.0,0.0,0.0,0.0,0.0,0.0,0.0,0.0,0.0,-2.9814,-3.0814,-3.295,-3.3642,-3.5179,-3.7728,-3.9002,-3.9818,-4.031,-4.1482,-4.2644,-4.3482,-4.4749,-4.5816,-4.6677,-4.7457,-4.7794,-4.7941,-4.8691,-4.9491,-5.0546,-5.1332,-5.222,-5.3299,-5.4098,-5.4272,-5.3972,-5.4248,-5.5229,-5.6333,-5.7095,-5.8096,-5.9018,1.2989,1.2989,1.2989,1.2989,1.2989,1.283,1.2663,1.2571,1.2413,1.2012,1.146,1.089,1.0211,0.9666,0.9089,0.8366,0.7795,0.7101,0.6522,0.5508,0.4665,0.3978,0.3136,0.2448,0.1786,0.0893,-0.0224,-0.1795,-0.2244,-0.258,-0.2694,-0.3978,-0.4613,-0.4805,-0.5831,-0.657,-0.7117,-0.7411,-0.7917,-0.8469,-0.8747,-0.9166,-0.954,-0.9935,-1.0065,-1.0194,-1.0453,-1.0507,-1.0524,-1.0713,-1.0725,-1.0696,-1.0696,-1.0494,-1.0364,-1.0333,-1.0341,-1.0571,-1.054,-1.0556,-1.0688,-1.0688,-1.0688,0.0,-1.1507,-1.1748,-1.2114,0.0,0.0,0.0,0.0,0.0,0.0,0.0,0.0,0.0,0.0,0.0,0.0,0.0,0.0,0.0,0.0,-2.956,-3.06,-3.2155,-3.4176,-3.6028,-3.7871,-3.8724,-3.9637,-4.0719,-4.1892,-4.3049,-4.385,-4.5178,-4.6245,-4.6915,-4.7445,-4.8086,-4.8835,-4.898,-4.9595,-5.091,-5.1483,-5.2449,-5.3493,-5.4227,-5.4397,-5.4248,-5.4719,-5.583,-5.7095,-5.7247,-5.8401,-5.9817,1.3315,1.3315,1.3315,1.3315,1.3406,1.3407,1.3285,1.317,1.306,1.2708,1.2116,1.1446,1.0886,1.0266,0.969,0.8678,0.8096,0.7402,0.6696,0.5718,0.4879,0.4299,0.3231,0.2415,0.184,0.1026,-0.0,-0.1363,-0.1802,-0.2367,-0.2725,-0.3662,-0.4422,-0.4885,-0.5518,-0.6119,-0.6804,-0.7234,-0.7735,-0.8149,-0.8604,0.0,-0.9389,-0.9782,-0.9965,-1.0021,-1.0424,-1.0551,-1.05,-1.063,-1.0679,0.0,-1.0543,-1.0451,-1.031,-1.031,-1.0375,-1.041,-1.041,-1.0514,-1.0612,-1.0612,-1.0651,0.0,0.0,-1.1533,0.0,0.0,0.0,0.0,0.0,0.0,0.0,0.0,0.0,0.0,0.0,0.0,0.0,0.0,0.0,0.0,0.0,-2.9244,-3.0459,-3.2711,-3.4452,-3.6066,-3.7808,-3.8688,-3.9597,-4.0813,-4.1841,-4.2913,-4.3862,-4.518,-4.6244,-4.7046,-4.8003,-4.8546,-4.898,-4.9412,-5.0102,-5.0912,-5.1873,-5.2841,-5.3643,-5.4647,-5.5016,-5.5016,-5.5189,-5.6154,-5.7398,-5.77,-5.8858,-6.0125,1.364,1.364,1.365,1.3692,1.3857,1.4002,1.3973,1.3808,1.3614,1.3346,1.2687,1.2031,1.1561,1.109,1.0278,0.9314,0.8598,0.7892,0.6822,0.5966,0.5115,0.4512,0.3433,0.2599,0.2003,0.1163,0.0231,-0.0924,-0.1482,-0.2166,-0.277,-0.3475,-0.4118,-0.4821,-0.5211,-0.5798,-0.6584,-0.7065,-0.7572,-0.7954,0.0,-0.8995,-0.9177,-0.9609,-0.9823,-0.992,-1.0329,-1.0464,-1.0538,-1.0672,-1.0478,-1.0236,-1.0365,-1.028,-1.0271,-1.0236,-1.0271,-1.0273,-1.0244,-1.0348,-1.0455,-1.056,-1.0571,-1.0785,0.0,0.0,0.0,0.0,0.0,0.0,0.0,0.0,0.0,0.0,0.0,0.0,0.0,0.0,0.0,0.0,0.0,0.0,0.0,-2.8969,-3.0768,-3.3401,-3.4505,-3.5801,-3.7602,-3.8526,-3.9593,-4.0899,-4.1678,-4.2667,-4.3991,-4.5207,-4.6126,-4.7053,-4.8298,-4.9031,-4.9268,-4.9961,-5.0485,-5.1058,-5.2429,-5.3229,-5.3815,-5.5065,-5.5632,-5.5779,-5.5779,-5.66,-5.7549,-5.8301,-5.9311,-6.0431,1.4826,1.4826,1.4894,1.5108,1.4955,1.4899,1.497,1.4835,1.4417,1.3956,1.3301,1.2759,1.2274,1.1564,1.0944,1.0161,0.9532,0.8655,0.7638,0.6545,0.5718,0.4913,0.3633,0.2868,0.2714,0.1529,0.0235,-0.094,-0.1643,-0.2227,-0.2817,-0.3574,-0.4205,-0.4824,-0.5331,-0.595,-0.669,-0.6913,-0.746,0.0,-0.8188,-0.8476,0.0,-0.9302,-0.9492,-0.9642,-0.992,-1.0034,-1.0147,0.0,-1.0373,-1.0141,-1.0538,-1.0466,-1.0202,-1.0066,-1.0148,-1.0222,-1.0087,-1.0171,-1.0394,0.0,-1.0716,0.0,0.0,0.0,0.0,0.0,0.0,0.0,0.0,0.0,0.0,0.0,0.0,0.0,0.0,0.0,0.0,0.0,0.0,0.0,0.0,0.0,-3.1338,-3.3011,-3.4583,-3.5894,-3.7139,-3.8187,-3.9646,-4.1135,-4.1913,-4.3002,-4.4202,-4.5134,-4.6192,-4.7376,-4.8027,-4.8943,-4.9961,-5.0364,-5.0837,-5.1216,-5.269,-5.3611,-5.4022,-5.5209,-5.6072,-5.6656,-5.6656,-5.7339,-5.845,-5.8897,-5.9913,-6.1193,1.5206,1.5155,1.5281,1.5395,1.5546,1.5704,1.555,1.5355,1.5063,1.4508,1.406,1.359,1.2909,1.2131,1.1426,1.0784,0.0,0.898,0.0,0.0,0.6108,0.5189,0.3899,0.3238,0.2946,0.1582,0.0362,-0.0956,-0.1657,-0.2248,-0.2864,-0.3125,-0.3772,-0.4706,-0.514,-0.562,-0.6272,-0.6753,-0.7139,0.0,0.0,0.0,0.0,-0.9275,-0.9672,-0.9937,-1.0006,-1.0072,-1.0284,0.0,-1.0184,0.0,0.0,-1.0238,-1.013,-1.0071,-1.0143,-1.0301,-1.0026,-1.0109,0.0,0.0,0.0,0.0,-1.1241,0.0,-1.2003,0.0,0.0,0.0,0.0,0.0,0.0,0.0,-1.7402,0.0,0.0,0.0,0.0,0.0,0.0,0.0,0.0,0.0,0.0,0.0,-3.3656,-3.5021,-3.6922,-3.7945,-3.929,-4.1029,-4.2,-4.2941,-4.412,-4.5324,-4.638,-4.7423,-4.8357,-4.944,-5.053,-5.0789,-5.1211,-5.1565,-5.2773,-5.3694,-5.4495,-5.5415,-5.6352,-5.7235,-5.7379,-5.7866,-5.8462,-5.9238,-6.0031,-6.0904,1.597,1.5834,1.5975,1.6045,1.6261,1.6333,1.6004,1.5785,1.5546,1.5206,1.474,1.427,1.3731,1.2832,1.1995,1.1468,1.028,0.9221,0.0,0.0,0.6452,0.5381,0.4313,0.35,0.2939,0.1637,0.0373,-0.086,-0.1702,-0.231,-0.2948,-0.2948,-0.3482,-0.457,-0.4966,-0.5433,-0.5833,0.0,-0.6961,-0.723,-0.7681,-0.8275,-0.8715,-0.927,-0.9661,-1.0105,-1.0014,-1.0069,-1.0262,-1.0132,-1.0137,0.0,-0.9986,-1.0091,-1.0021,-0.9946,-1.0045,-1.023,-1.0035,0.0,0.0,0.0,0.0,0.0,0.0,0.0,0.0,0.0,0.0,0.0,0.0,0.0,-1.5788,-1.6534,0.0,-1.8112,0.0,0.0,0.0,0.0,0.0,0.0,0.0,0.0,0.0,-3.215,-3.3175,-3.4612,-3.648,-3.7612,-3.912,-4.0782,-4.1856,-4.3106,-4.4209,-4.5484,-4.6565,-4.7492,-4.8704,-4.9787,-5.0572,-5.1303,-5.1656,-5.1985,-5.3088,-5.3919,-5.4728,-5.571,-5.6724,-5.7523,-5.7784,-5.8186,-5.8507,-5.9523,-6.0319,-6.104,1.7576,1.7576,1.7553,1.7578,1.731,1.6913,1.6462,1.6374,1.6191,1.5883,1.5303,0.0,0.0,0.0,0.0,0.0,0.0,0.9757,0.8921,0.0,0.6806,0.5488,0.4468,0.3606,0.2766,0.1557,0.0386,-0.0772,-0.1673,-0.2444,-0.3091,-0.3091,-0.3606,-0.4643,-0.5099,-0.5565,-0.5915,-0.6409,-0.6966,-0.7429,-0.7522,-0.803,-0.8745,0.0,-0.9661,-0.9671,-0.9666,0.0,0.0,-0.9957,-0.9977,0.0,0.0,0.0,0.0,-0.9734,-0.9788,-1.0116,0.0,0.0,0.0,-1.0447,0.0,0.0,0.0,0.0,-1.2381,0.0,0.0,0.0,-1.3982,-1.4993,-1.5985,-1.6558,-1.7254,0.0,0.0,0.0,0.0,0.0,0.0,0.0,0.0,0.0,0.0,-3.152,-3.3342,-3.4713,-3.5356,-3.7403,-3.9002,-4.0279,-4.1905,-4.3308,-4.4612,-4.5522,-4.6576,-4.7797,-4.8707,-4.9511,-5.0458,-5.1689,-5.2377,-5.2402,-5.3646,-5.4619,-5.5127,-5.6136,-5.6984,-5.7927,-5.7927,-5.8381,-5.9131,-5.9948,-6.0881,-6.1779,1.9052,1.8951,1.8581,1.8021,1.7965,1.7912,1.7584,1.7371,0.0,0.0,0.0,0.0,0.0,0.0,1.3625,0.0,0.0,1.0455,0.9302,0.8302,0.0,0.0,0.0,0.3847,0.0,0.2139,0.1057,-0.0654,-0.1685,-0.2451,-0.3097,-0.3097,-0.3502,-0.4319,-0.4778,-0.5248,0.0,0.0,0.0,0.0,0.0,-0.8071,-0.831,0.0,0.0,-0.9126,-0.9051,-0.9178,0.0,-0.9345,-0.9579,-0.9672,-0.9697,-0.9856,-0.9859,-0.9695,-0.9853,0.0,0.0,0.0,-1.0254,-1.0644,0.0,0.0,0.0,0.0,0.0,0.0,0.0,0.0,-1.4195,-1.5102,-1.5951,-1.633,-1.6857,-1.7637,0.0,-2.02,0.0,0.0,0.0,0.0,0.0,0.0,0.0,-3.1013,-3.2815,-3.4431,-3.5788,-3.7695,-3.9274,-4.0418,-4.2176,-4.3448,-4.448,-4.5521,-4.676,-4.8156,-4.9116,-5.0059,-5.1122,-5.2216,-5.2904,-5.3204,-5.3792,-5.4817,-5.5853,-5.6199,-5.7099,-5.8355,-5.8664,-5.8806,-5.9246,-6.0263,-6.0935,-6.1688,2.0233,1.9951,1.9573,1.8584,1.8652,1.868,1.8494,0.0,0.0,0.0,1.7151,0.0,1.5643,0.0,1.414,0.0,1.2058,1.0878,0.9695,0.8675,0.0,0.5981,0.5042,0.0,0.0,0.2495,0.1504,-0.0135,-0.147,-0.2394,-0.2793,-0.3058,-0.3475,-0.4179,-0.4623,-0.509,-0.5441,-0.6133,-0.6524,0.0,0.0,-0.7924,0.0,0.0,-0.8494,-0.8826,0.0,-0.8886,-0.9021,-0.8873,-0.9127,-0.9257,-0.9292,-0.9465,-0.949,-0.9512,-0.9671,-0.9944,-0.9863,-1.0072,0.0,-1.0507,-1.0948,0.0,-1.1431,0.0,0.0,0.0,0.0,0.0,-1.433,-1.5171,-1.5977,-1.6363,-1.6857,-1.7564,0.0,-2.0484,0.0,0.0,0.0,0.0,0.0,0.0,-2.9526,-3.0701,-3.2327,-3.3989,0.0,0.0,-3.8993,-4.0285,-4.1888,-4.3378,-4.4594,-4.5788,-4.7029,-4.816,-4.9425,-5.0506,-5.153,-5.2553,-5.3316,-5.3751,-5.3997,-5.5047,-5.6271,-5.6548,-5.7503,-5.8806,-5.9088,-5.9368,-5.9641,-6.0668,-6.1502,-6.2416,2.0934,2.0773,2.0415,1.9535,1.9331,1.916,0.0,0.0,1.8384,0.0,1.7617,1.7004,1.6085,1.5398,1.4621,1.3304,1.2258,0.0,0.9844,0.8935,0.0,0.0,0.5245,0.444,0.3508,0.2599,0.171,0.0843,-0.1123,-0.2105,-0.2243,-0.3083,-0.3645,-0.3928,-0.4631,-0.5091,-0.5301,-0.5953,-0.6473,-0.6567,-0.7273,-0.7586,-0.768,-0.777,-0.8237,-0.8795,-0.8786,-0.8786,-0.8912,-0.8707,-0.8636,-0.8617,-0.896,-0.9004,-0.8892,-0.9211,-0.9529,-0.9688,-0.9556,-1.007,-1.0554,-1.0143,0.0,0.0,0.0,0.0,-1.2389,0.0,0.0,0.0,-1.459,-1.5194,-1.5963,-1.6851,-1.7092,-1.7741,-1.9136,-2.0601,-2.1748,0.0,0.0,0.0,0.0,-2.8009,-2.9167,-3.0591,-3.1962,-3.3445,0.0,0.0,-3.8199,-3.9938,-4.1514,-4.3136,-4.4984,-4.6155,-4.7206,-4.805,-4.99,-5.0955,-5.1405,-5.281,-5.3725,-5.3997,-5.4376,-5.5184,-5.6409,-5.7099,-5.8058,-5.9088,-5.9508,-5.9927,-6.0365,-6.1096,-6.2389,-6.37,2.1441,2.138,2.123,2.1024,2.0393,1.9839,0.0,0.0,0.0,0.0,1.8418,1.7663,1.6992,1.633,1.5403,1.4109,1.3033,0.0,0.0,0.0,0.0,0.6844,0.5532,0.4553,0.36,0.2667,0.1756,0.0866,-0.0715,-0.1699,-0.2243,-0.3083,-0.3645,-0.393,-0.4578,-0.4915,-0.5232,-0.5493,-0.607,-0.6818,-0.7413,-0.768,0.0,0.0,-0.8048,-0.8182,-0.811,-0.8245,-0.8549,-0.8418,-0.854,-0.8826,-0.8794,-0.8711,-0.8673,-0.9014,-0.905,-0.9222,-0.9672,-0.9859,-1.0028,-1.041,-1.0697,-1.1108,0.0,0.0,0.0,0.0,0.0,0.0,0.0,0.0,-1.6369,-1.668,-1.7703,-1.8687,-1.9454,-2.0649,0.0,-2.2876,0.0,-2.5412,-2.6547,-2.7777,-2.9141,-3.0822,-3.225,-3.3904,-3.5678,0.0,0.0,-4.0509,-4.1793,-4.3569,-4.5605,-4.6183,-4.7231,-4.8812,-5.0431,-5.138,-5.1671,-5.3458,-5.4241,-5.4376,-5.5046,-5.5995,-5.7099,-5.7645,-5.8445,-5.9508,-5.99,-6.0585,-6.1349,-6.1966,-6.2722,-6.3569,2.232,2.2215,2.2126,2.1997,2.145,0.0,2.0781,0.0,0.0,1.9861,1.8863,0.0,1.7398,1.6816,1.592,1.4373,1.3422,0.0,0.0,0.0,0.0,0.7171,0.5859,0.4696,0.3692,0.2904,0.0,0.1037,-0.0442,-0.1608,-0.2322,-0.3192,-0.3626,-0.3774,-0.442,-0.4892,-0.5049,-0.5328,-0.5907,-0.6652,-0.7087,-0.7162,0.0,-0.7297,-0.7331,-0.7323,-0.7275,-0.7725,-0.8169,-0.8071,-0.8176,-0.8441,-0.848,-0.8384,-0.8454,-0.8702,-0.876,-0.8795,-0.927,-0.9479,-0.9678,-1.0058,-1.0505,-1.0967,-1.1354,-1.1725,-1.2219,0.0,0.0,0.0,0.0,0.0,-1.6384,-1.705,-1.832,-1.9223,-1.9787,0.0,0.0,0.0,-2.4526,-2.5711,-2.6673,-2.7921,-2.9213,-3.086,-3.2148,-3.362,0.0,0.0,0.0,-4.041,-4.1574,-4.3346,-4.5525,-4.6299,-4.7499,-4.8982,-5.0726,-5.1778,-5.2331,-5.386,-5.4645,-5.5046,-5.5472,-5.6424,-5.7645,-5.8025,-5.8856,-5.99,-6.0342,-6.0807,-6.1352,-6.2361,-6.3041,-6.3496,2.3237,2.3107,2.3022,2.2759,2.2579,0.0,0.0,2.073,0.0,2.034,0.0,1.8449,1.7577,1.7123,1.6233,1.4516,0.0,1.2573,1.1277,0.9978,0.8675,0.7359,0.6044,0.4849,0.3796,0.3001,0.2029,0.122,-0.0457,-0.1672,-0.2429,-0.3181,-0.3482,-0.3633,-0.4399,-0.4715,-0.4888,-0.5468,-0.5874,-0.6428,-0.656,-0.6622,-0.6635,-0.6703,-0.6727,-0.6727,-0.6727,-0.7187,-0.7773,-0.7685,-0.7601,-0.7693,-0.7986,-0.8024,-0.789,-0.8338,-0.8412,-0.8459,-0.882,-0.9076,-0.9454,-0.9666,-1.0161,-1.0818,-1.1087,-1.1625,-1.2157,-1.2672,-1.3282,-1.3868,0.0,0.0,-1.656,-1.7852,-1.8797,-1.9583,0.0,0.0,0.0,0.0,0.0,0.0,-2.7237,-2.8133,-2.9387,-3.0949,-3.1906,-3.3157,0.0,0.0,0.0,-4.0025,-4.1349,-4.297,-4.5146,0.0,-4.7706,-4.8913,-5.0966,-5.2305,-5.2854,-5.4126,-5.5046,-5.5604,-5.5736,-5.6531,-5.8025,-5.8402,-5.9237,-6.0315,-6.0755,-6.0892,-6.1056,-6.2644,-6.3269,-6.3558,2.4039,2.3894,2.3784,0.0,0.0,2.3054,2.3082,2.1969,2.1129,2.0911,1.9828,0.0,1.8418,1.7702,1.6567,1.5187,1.4196,0.0,0.0,0.0,0.0,0.813,0.6717,0.5316,0.3937,0.2925,0.2088,0.1267,-0.0471,-0.1709,-0.2461,-0.2891,-0.333,-0.3633,-0.413,-0.4663,-0.5071,-0.5623,0.0,-0.6082,-0.6437,-0.6652,-0.671,-0.6724,-0.6727,-0.6727,-0.6727,-0.6717,-0.6864,-0.6787,-0.6749,-0.688,-0.7069,-0.7167,-0.7287,-0.7998,-0.8216,-0.813,-0.8569,-0.8804,-0.9159,-0.9459,-0.9931,-1.0681,-1.11,-1.1788,-1.249,-1.3006,-1.3671,-1.428,-1.5125,0.0,0.0,-1.8151,-1.905,0.0,0.0,0.0,0.0,0.0,0.0,-2.6268,-2.7113,-2.8114,-2.9474,-3.1475,0.0,-3.3595,0.0,0.0,0.0,0.0,-4.1781,0.0,0.0,0.0,-4.8359,-4.9191,-5.1485,-5.2672,-5.2854,-5.4656,-5.5472,-5.5604,-5.6289,-5.7195,-5.8402,-5.8697,-5.9832,-6.1166,-6.1166,-6.1438,-6.1819,-6.3032,-6.3556,-6.3691,0.0,0.0,0.0,0.0,0.0,0.0,0.0,2.29,0.0,2.146,2.0305,1.9403,1.8645,1.8036,1.6894,1.5376,1.4358,1.3495,1.2638,1.0746,0.9348,0.8272,0.686,0.0,0.4042,0.3163,0.214,0.1303,-0.0483,-0.1756,-0.254,-0.2996,-0.3303,-0.3774,-0.4428,-0.4947,-0.5164,0.0,0.0,-0.5628,-0.5864,-0.6081,-0.6111,-0.6145,-0.6139,-0.6108,-0.6108,-0.6087,-0.605,-0.652,-0.6646,-0.6601,-0.6693,-0.6773,-0.6861,-0.7457,-0.7537,-0.7611,-0.8175,-0.8435,-0.8521,-0.9014,-0.9492,-1.0111,-1.0768,-1.1302,-1.1977,-1.2673,-1.3505,-1.437,-1.5643,-1.6594,0.0,0.0,0.0,0.0,0.0,0.0,0.0,0.0,0.0,0.0,0.0,0.0,0.0,0.0,0.0,-3.3595,0.0,0.0,0.0,0.0,0.0,0.0,0.0,0.0,0.0,-4.9135,-5.1614,-5.2958,-5.34,-5.4945,-5.5736,-5.6132,-5.6551,-5.7486,-5.8751,-5.9777,-6.0782,-6.1546,-6.1546,-6.1681,-6.1955,-6.3445,-6.3917,-6.4111,0.0,2.5524,0.0,0.0,2.5007,0.0,0.0,2.3581,2.3127,2.2142,2.075,1.9742,1.8853,1.8361,1.722,1.5549,1.4534,1.368,1.2811,1.0893,0.9495,0.8448,0.7188,0.5752,0.4148,0.3411,0.2363,0.0,-0.0165,-0.1479,-0.2624,-0.2943,-0.3424,-0.3905,-0.4739,0.0,0.0,0.0,-0.5349,-0.536,-0.5455,-0.5493,-0.5499,-0.5542,-0.5531,-0.5493,-0.5493,-0.5455,-0.5572,-0.6246,-0.6366,-0.6304,-0.6453,-0.6367,-0.6431,-0.6738,-0.6835,-0.7072,-0.7627,-0.7903,-0.8171,-0.8829,-0.9185,-0.97,-1.0411,-1.0951,-1.1626,-1.2335,-1.344,-1.4692,-1.6054,-1.6829,0.0,0.0,0.0,0.0,0.0,0.0,0.0,0.0,0.0,0.0,-2.833,0.0,0.0,0.0,0.0,-3.366,-3.5512,-3.7175,-3.8801,0.0,0.0,-4.3866,-4.555,0.0,-4.8506,-4.9276,-5.1793,-5.3347,-5.3915,-5.5207,-5.6132,-5.6682,-5.6812,-5.7748,-5.9339,-6.0809,-6.1546,-6.1951,-6.1951,-6.1951,-6.2224,-6.3747,-6.4358,-6.4525,0.0,0.0,0.0,0.0,0.0,0.0,0.0,2.4234,2.3312,2.2487,2.11,2.01,1.9467,1.8849,1.7655,1.6054,1.5111,1.4282,1.3381,1.1373,0.9913,0.882,0.7765,0.6258,0.4468,0.3853,0.2772,0.0,0.0,-0.0847,-0.2684,-0.2656,-0.3121,-0.3909,0.0,0.0,0.0,-0.5488,-0.5534,-0.5537,-0.5548,-0.5551,-0.5553,-0.5556,-0.5556,-0.5551,-0.5551,-0.5515,-0.5466,-0.5637,-0.5594,-0.5533,-0.5805,-0.5943,-0.6082,-0.6509,-0.6759,-0.7016,-0.7009,-0.7582,-0.8274,-0.8631,-0.9203,-0.9775,-1.0122,-1.1026,-1.1935,-1.2372,-1.3847,-1.5358,-1.6069,-1.7044,-1.8001,0.0,0.0,0.0,0.0,0.0,-2.4282,-2.5116,0.0,-2.7548,-2.8777,-2.9735,0.0,0.0,-3.2987,-3.4117,-3.6341,-3.7808,-3.9368,-4.11,0.0,-4.4438,-4.613,-4.8019,-4.9328,-5.0214,-5.2638,-5.3889,-5.3915,-5.5755,-5.6682,-5.6682,-5.7303,-5.8502,-5.9973,-6.1292,-6.1951,-6.2381,-6.2381,-6.2515,-6.295,-6.4319,-6.4769,-6.4937,0.0,0.0,0.0,0.0,0.0,0.0,0.0,2.4603,2.4103,2.3413,2.1736,2.0487,1.9741,1.9084,1.8051,1.6265,1.5237,1.4362,1.3272,1.1436,0.9972,0.8869,0.7885,0.6395,0.4389,0.3966,0.339,0.0,0.0,-0.0521,-0.1888,-0.2392,-0.3063,0.0,0.0,-0.4805,-0.4979,-0.5367,-0.5559,-0.5564,-0.56,-0.5613,-0.5619,-0.5654,-0.5646,-0.5613,-0.5265,-0.5207,-0.4962,-0.4788,-0.4925,-0.5379,-0.5521,-0.5654,-0.5616,-0.6082,-0.6191,-0.6448,-0.6883,-0.7164,-0.7591,-0.8279,-0.8669,-0.9218,-0.978,-1.0577,-1.1353,-1.1997,-1.3452,-1.5005,-1.6029,-1.7058,-1.8028,0.0,0.0,0.0,0.0,0.0,0.0,-2.5588,-2.6715,-2.7977,-2.9205,-3.0198,0.0,0.0,0.0,-3.4667,-3.6521,-3.7943,-3.9623,-4.1557,0.0,-4.4705,-4.6753,-4.8294,-4.9477,-5.0663,-5.2791,-5.4145,-5.4554,-5.5988,-5.7131,-5.7874,-5.8749,-5.9772,-6.0893,-6.1753,-6.2381,-6.2648,-6.2648,-6.2781,-6.3083,-6.4319,-6.4769,-6.4937,2.8852,0.0,2.7616,0.0,2.7195,2.7,2.5647,2.5071,2.4687,2.4109,2.2351,2.0975,2.0062,1.9382,1.8304,1.6438,1.5385,1.4507,1.345,1.1562,1.0073,0.8987,0.8006,0.0,0.4463,0.4234,0.365,0.2901,0.1259,-0.0178,-0.1411,-0.2454,-0.2966,0.0,-0.4187,-0.4542,-0.4893,-0.5255,-0.5435,-0.5616,-0.566,-0.5676,-0.5504,-0.5546,-0.5357,-0.5324,-0.4792,-0.4737,-0.4489,-0.4299,-0.4606,-0.5069,-0.5051,-0.502,-0.5153,-0.5482,-0.5604,-0.5872,-0.6469,-0.6905,-0.7175,-0.7901,-0.8279,-0.8669,-0.9433,-1.0258,-1.1033,-1.2079,-1.3282,-1.4771,-1.6187,-1.72,-1.8171,-1.9459,0.0,0.0,0.0,-2.381,0.0,-2.598,-2.7124,-2.8387,-2.9634,-3.0529,0.0,0.0,0.0,0.0,-3.686,-3.8315,0.0,0.0,0.0,0.0,0.0,-4.8621,-4.9878,-5.153,-5.3203,-5.448,-5.5176,-5.6455,-5.7629,-5.8879,-5.9745,-6.0774,-6.1649,-6.2264,-6.2648,-6.2942,-6.2942,-6.2942,-6.3083,-6.4319,-6.4769,-6.4937,2.9152,2.8907,2.8559,2.7776,2.8137,2.8003,2.6646,2.5748,2.5003,2.4383,2.3058,2.1601,2.0516,1.9807,1.8651,1.6627,1.5652,1.4858,1.3859,1.1847,1.0317,0.0,0.0,0.6568,0.4506,0.4465,0.3888,0.2964,0.0,0.0,-0.1458,-0.2321,-0.2988,-0.3481,-0.3517,-0.4062,-0.4951,-0.4998,-0.5199,-0.5739,-0.5739,-0.538,-0.502,-0.5022,-0.4664,-0.4307,-0.4307,-0.4277,-0.4232,-0.4185,-0.414,-0.4095,-0.405,-0.4372,-0.4707,-0.4707,-0.5335,-0.5949,-0.5949,-0.6499,-0.7027,-0.7501,-0.791,-0.8466,-0.9241,-0.9921,-1.0866,-1.2835,-1.3992,-1.5026,-1.6183,-1.7248,-1.8468,-1.9983,0.0,0.0,0.0,-2.473,0.0,-2.6321,-2.7534,-2.8816,-3.0081,-3.099,0.0,0.0,0.0,0.0,0.0,0.0,0.0,-4.3634,-4.4531,0.0,-4.8948,-4.929,-5.0611,-5.2965,-5.3954,-5.4922,-5.5895,-5.7159,-5.8402,-5.9651,-6.0292,-6.1193,-6.2071,-6.2689,-6.2942,-6.2942,-6.2942,-6.2942,-6.3083,-6.4319,-6.4769,-6.4937,3.0526,3.0047,2.9239,2.8424,2.8288,2.7987,2.6786,2.586,2.5161,2.4897,2.34,2.188,2.0932,1.9979,1.8752,0.0,1.587,1.501,0.0,1.2047,1.0496,0.9363,0.8343,0.6773,0.4647,0.4604,0.4185,0.3024,0.0,0.0,0.0,-0.2745,-0.2913,-0.3087,-0.3461,-0.383,-0.4014,-0.4393,-0.4766,-0.4766,-0.4766,-0.4746,-0.4534,-0.4534,-0.4514,-0.4307,-0.3949,-0.3743,-0.3707,-0.3344,-0.3127,-0.3078,-0.3066,-0.3555,-0.4204,-0.4204,-0.4695,-0.5177,-0.5303,-0.5757,-0.6354,-0.7054,-0.7485,-0.8076,-0.8793,-0.9927,-1.1207,-1.267,-1.3729,-1.475,-1.5931,-1.7235,-1.8455,-1.9358,-2.0589,0.0,-2.306,0.0,-2.5644,-2.6802,-2.8008,-2.9337,-3.0667,-3.186,0.0,0.0,0.0,0.0,0.0,0.0,0.0,0.0,-4.4928,0.0,-4.8948,-4.9923,-5.1399,-5.3395,-5.4333,-5.5518,-5.7159,-5.8402,-5.9422,-6.0292,-6.1193,-6.194,-6.2661,-6.2858,-6.2942,-6.2942,-6.2942,-6.2942,-6.3083,-6.4319,-6.4769,-6.4937,3.1167,3.0615,2.9923,2.9057,2.8828,2.8305,2.7234,2.6115,2.536,2.5148,2.3646,2.2138,2.1244,2.0232,0.0,1.7102,1.6025,1.5162,1.4146,1.2158,1.0592,0.9457,0.8449,0.6866,0.4712,0.0,0.0,0.3086,0.1725,-0.019,-0.2435,-0.2809,-0.2983,-0.2961,-0.3332,-0.3518,-0.3703,-0.4073,-0.4259,-0.4444,-0.4444,-0.4242,-0.4216,-0.4199,-0.3994,-0.3789,-0.3416,-0.3396,-0.3198,-0.2831,-0.2803,-0.2767,-0.2746,-0.3064,-0.3551,-0.3705,-0.4036,-0.4535,-0.4836,-0.5308,-0.5766,-0.6658,-0.7095,-0.7689,-0.8859,-1.0153,-1.1447,-1.2665,-1.3597,-1.4646,-1.5865,-1.7233,-1.8359,-1.9239,-2.0683,-2.1927,-2.2987,-2.4393,-2.5649,-2.6935,-2.8295,0.0,0.0,-3.225,-3.3477,0.0,0.0,0.0,0.0,0.0,0.0,-4.4249,-4.5643,0.0,-4.9256,-5.0689,-5.2173,-5.384,-5.5276,-5.6568,-5.7971,-5.909,-6.0086,-6.0858,-6.1604,-6.2352,-6.2942,-6.2942,-6.2942,-6.2942,-6.2942,-6.2942,-6.3083,-6.4319,-6.4769,-6.4937,3.1258,3.0869,0.0,0.0,2.9281,0.0,2.7772,2.6637,2.5553,2.5217,2.3613,2.2367,2.1442,2.0548,1.9053,1.7154,0.0,0.0,0.0,1.2221,1.0638,0.9749,0.8489,0.688,0.472,0.4718,0.4125,0.2946,0.0982,-0.0584,-0.1528,-0.2676,-0.3028,-0.2973,-0.2973,-0.3159,-0.3714,-0.3714,-0.3898,-0.4267,-0.4267,-0.408,-0.3703,-0.3667,-0.3285,-0.2912,-0.2886,-0.2875,-0.287,-0.2841,-0.283,-0.2819,-0.2762,-0.2742,-0.2732,-0.3208,-0.3701,-0.4036,-0.4542,-0.4841,-0.5462,-0.6285,-0.688,-0.7609,-0.9118,-1.0426,-1.1585,-1.2811,-1.3617,-1.4565,-1.6064,-1.724,-1.8342,-1.9558,-2.1076,-2.2432,-2.3254,-2.4627,-2.5959,-2.7066,0.0,0.0,0.0,-3.2163,-3.3638,0.0,0.0,0.0,0.0,0.0,-4.2925,-4.5281,-4.6609,-4.8027,-4.9742,-5.1511,-5.3058,-5.458,-5.6759,-5.7971,-5.8281,-5.9273,-6.0298,-6.12,-6.1818,-6.2408,-6.2942,-6.2942,-6.2942,-6.2942,-6.2942,-6.2942,-6.3083,-6.4319,-6.4769,-6.4937,0.0,0.0,3.0508,3.031,2.9217,2.8321,2.7902,2.6402,2.5251,2.49,2.3662,2.234,2.1085,2.0219,1.9044,1.7494,1.6363,1.5466,1.4421,1.2416,1.0817,0.964,0.8625,0.7015,0.4814,0.4782,0.3757,0.1964,0.0589,-0.0588,-0.156,-0.2536,-0.3114,-0.31,-0.31,-0.3086,-0.3258,-0.3258,-0.3243,-0.3409,-0.3409,-0.3394,-0.3182,-0.3175,-0.2957,-0.2915,-0.2908,-0.2891,-0.2872,-0.2866,-0.2848,-0.2826,-0.2811,-0.2776,-0.2732,-0.2871,-0.3197,-0.3701,-0.4036,-0.4533,-0.5015,-0.5799,-0.688,-0.7936,-0.88,-1.0024,-1.1233,-1.2057,-1.3392,-1.4549,-1.5479,-1.6768,-1.8148,-1.9079,-2.0624,-2.2007,-2.3434,-2.4758,-2.5952,0.0,-2.8809,-3.0241,-3.1672,-3.3244,-3.4823,0.0,0.0,0.0,0.0,-4.2389,-4.3712,-4.5306,-4.6984,-4.8432,-4.9742,-5.203,-5.4145,-5.5834,-5.7332,-5.8319,-5.8916,-6.0198,-6.1071,-6.1818,-6.2436,-6.2802,-6.2942,-6.2942,-6.2942,-6.2942,-6.2942,-6.2942,-6.3083,-6.4319,-6.4769,-6.4937,3.2846,3.169,3.0781,3.0733,2.9394,2.8445,2.8207,2.6737,2.54,2.4973,2.3904,2.2586,2.1173,2.0211,1.9199,1.772,1.6349,1.5196,1.447,1.2479,1.09,0.973,0.8723,0.7119,0.4906,0.4884,0.384,0.1602,0.0598,-0.0397,-0.0988,-0.2372,-0.3156,-0.3142,-0.3142,-0.3134,-0.3118,-0.3118,-0.31,-0.3073,-0.3073,-0.3055,-0.3026,-0.3011,-0.2986,-0.2954,-0.2926,-0.2906,-0.2891,-0.2878,-0.2863,-0.2846,-0.2833,-0.2806,-0.277,-0.2727,-0.2872,-0.3197,-0.3533,-0.4036,-0.4703,-0.6007,-0.7099,-0.8006,-0.8931,-0.9998,-1.1037,-1.1854,-1.3226,-1.4415,-1.5311,-1.6642,-1.7931,-1.9033,-2.06,-2.2149,-2.3456,-2.4862,-2.6309,-2.7826,-2.9174,-3.0659,-3.2125,-3.3764,-3.544,-3.6944,-3.8573,0.0,-4.2224,-4.3391,-4.469,-4.6068,-4.7633,-4.909,-5.0537,-5.3076,-5.5156,-5.6712,-5.7926,-5.8778,-5.9137,-6.083,-6.1706,-6.2043,-6.2661,-6.2942,-6.2942,-6.2942,-6.2942,-6.2942,-6.2942,-6.2942,-6.3083,-6.4319,-6.4769,-6.4937,3.3227,3.2043,3.1108,3.0881,2.9703,2.8565,2.85,2.7097,2.5774,2.5065,2.4146,2.2843,2.1302,2.0173,1.9077,1.7855,1.6096,1.4913,1.4507,1.2511,1.0748,0.9824,0.8808,0.7199,0.4978,0.4771,0.3722,0.1848,0.0611,-0.0,-0.0,-0.2001,-0.2987,-0.3156,-0.3156,-0.3153,-0.3149,-0.3149,-0.3131,-0.3104,-0.3099,-0.3082,-0.3055,-0.3025,-0.301,-0.2999,-0.2943,-0.292,-0.2912,-0.2883,-0.2874,-0.287,-0.2844,-0.2833,-0.2818,-0.2767,-0.2727,-0.2866,-0.32,-0.3701,-0.4539,-0.6224,-0.7176,-0.7942,-0.8921,-0.9988,-1.1011,-1.1842,-1.3082,-1.4289,-1.5358,-1.6536,-1.7844,-1.9287,-2.0865,-2.2251,-2.3615,0.0,-2.6638,-2.8158,-2.9539,-3.1059,-3.2545,-3.4127,-3.5798,-3.7632,-3.9387,-4.1283,-4.3013,-4.4324,-4.5691,-4.7174,-4.8255,-4.9977,-5.2104,-5.4232,-5.5934,-5.7201,-5.8549,-5.9137,-5.9275,-6.1091,-6.2071,-6.2183,-6.2717,-6.2942,-6.2942,-6.2942,-6.2942,-6.2942,-6.2942,-6.2942,-6.3083,-6.4319,-6.4769,-6.4937,3.3517,3.2193,3.1071,3.1203,2.9654,2.868,2.878,2.7217,2.5656,2.4909,2.4007,2.2818,2.0932,1.9894,1.8813,1.7863,1.5991,1.4446,1.4042,1.2227,1.0648,0.93,0.8689,0.7247,0.4978,0.4151,0.3318,0.29,0.1035,-0.0,-0.0,-0.1224,-0.2233,-0.3219,-0.3217,-0.3204,-0.3182,-0.3182,-0.3164,-0.3133,-0.3108,-0.3095,-0.3086,-0.3056,-0.3029,-0.3002,-0.2966,-0.2938,-0.2912,-0.2883,-0.2874,-0.2874,-0.2868,-0.2849,-0.2827,-0.2818,-0.2774,-0.2725,-0.3207,-0.4038,-0.4878,-0.6392,-0.6717,-0.7357,-0.877,-0.9559,-1.0329,-1.1505,-1.2755,-1.398,-1.5072,-1.6587,-1.8067,-1.952,-2.1141,-2.2608,-2.4182,0.0,-2.6982,-2.8381,-2.9921,-3.1443,-3.2947,-3.5081,-3.7032,-3.8605,-4.0372,-4.2038,-4.3167,-4.4728,-4.6275,-4.7889,-4.9003,-5.1229,-5.4702,-5.5146,-5.5934,-5.7201,-5.8549,-5.9358,-5.9883,-6.1417,-6.2296,-6.2802,-6.2886,-6.2942,-6.2942,-6.2942,-6.2942,-6.2942,-6.2942,-6.2942,-6.3083,-6.4319,-6.4769,-6.4937,3.3899,3.2354,3.1147,3.1301,2.9853,2.8742,2.849,2.7283,2.5828,2.4599,2.386,2.2644,2.0889,1.9585,1.8488,1.7392,1.5655,1.4339,1.3243,1.2169,1.0745,0.918,0.8563,0.7327,0.5052,0.3982,0.3345,0.3345,0.1665,0.0622,-0.0,-0.1238,-0.2259,-0.3258,-0.3255,-0.3238,-0.321,-0.321,-0.3194,-0.3164,-0.3134,-0.3112,-0.3095,-0.3063,-0.3043,-0.3028,-0.2996,-0.2966,-0.2936,-0.2908,-0.2527,-0.2156,-0.2156,-0.2147,-0.2137,-0.2656,-0.2785,-0.2901,-0.3544,-0.4036,-0.4707,-0.6053,-0.656,-0.7052,-0.851,-0.9492,-1.0288,-1.1475,-1.2747,-1.3989,-1.509,-1.6791,-1.8319,-1.9934,-2.1486,0.0,-2.4552,-2.5918,-2.7371,-2.9138,-3.0743,-3.2368,-3.3988,-3.5902,-3.7669,-3.9048,-4.0857,-4.2342,-4.3689,-4.5383,-4.6863,-4.8439,-5.0463,-5.2724,-5.5252,-5.5572,-5.6417,-5.7662,-5.9044,-5.9911,-6.0518,-6.1817,-6.2661,-6.2942,-6.2942,-6.2942,-6.2942,-6.2942,-6.2942,-6.2942,-6.2942,-6.2942,-6.3083,-6.4319,-6.4769,-6.4937,3.4174,3.263,3.1427,3.1427,3.0066,2.8825,2.8322,2.7381,2.6141,2.4661,2.3655,2.2583,2.1022,1.9478,1.8168,1.7092,1.5551,1.4042,1.2573,1.1904,1.0869,0.906,0.8223,0.6771,0.5115,0.4024,0.3377,0.3377,0.2305,0.1044,-0.0,-0.1249,-0.228,-0.3288,-0.328,-0.3262,-0.324,-0.3234,-0.3217,-0.3195,-0.3165,-0.3135,-0.3104,-0.3074,-0.3058,-0.3048,-0.3017,-0.2991,-0.2966,-0.2565,-0.2178,-0.1621,-0.1258,-0.1257,-0.1614,-0.2312,-0.2625,-0.2923,-0.373,-0.3883,-0.4385,-0.5552,-0.6392,-0.7063,-0.8395,-0.9397,-1.0377,-1.1599,-1.2893,-1.415,-1.5273,-1.6986,-1.8562,-2.0252,0.0,0.0,0.0,-2.6298,-2.7849,-2.9739,-3.1376,-3.3068,-3.481,-3.6513,-3.8006,-3.9384,-4.1156,-4.2726,-4.412,-4.592,-4.769,-4.9328,-5.1892,-5.3867,-5.5336,-5.6025,-5.6954,-5.8069,-5.9594,-6.0463,-6.0933,-6.2236,-6.2942,-6.2942,-6.2942,-6.2942,-6.2942,-6.2942,-6.2942,-6.2942,-6.2942,-6.2942,-6.3083,-6.4319,-6.4769,-6.48,3.4174,3.2805,3.1749,3.1749,3.0358,2.9179,2.8867,2.7617,2.6197,2.4872,2.3746,2.2583,2.1022,1.9593,1.8297,1.7106,1.5738,1.4238,1.2584,1.2045,1.083,0.8724,0.6384,0.5324,0.5115,0.4048,0.3408,0.3408,0.2341,0.106,-0.0,-0.1261,-0.23,-0.3317,-0.3288,-0.3275,-0.327,-0.3242,-0.323,-0.3224,-0.3197,-0.3167,-0.3137,-0.3106,-0.3077,-0.3048,-0.3017,-0.3005,-0.2808,-0.1836,-0.2006,-0.2547,-0.072,-0.0718,-0.1436,-0.1435,-0.2135,-0.281,-0.3267,-0.376,-0.4259,-0.523,-0.6056,-0.7063,-0.8395,-0.9068,-0.9903,-1.1724,-1.2873,-1.3816,-1.5456,-1.7038,-1.8736,-2.0273,0.0,0.0,-2.5172,-2.6805,-2.8447,-3.0118,-3.1759,-3.3221,-3.4847,-3.678,-3.8462,-3.9616,-4.182,-4.3611,-4.4295,-4.6215,-4.8539,-5.1247,-5.2565,-5.3941,-5.5551,-5.6505,-5.7356,-5.8069,-6.0006,-6.085,-6.0933,-6.2236,-6.2942,-6.2942,-6.2942,-6.2942,-6.2942,-6.2942,-6.2942,-6.2942,-6.2942,-6.2942,-6.3083,-6.4319,-6.4632,-6.4387,3.3769,3.2779,3.1889,3.1158,3.0293,2.9218,2.8198,2.7198,2.599,2.4525,2.2974,2.1854,2.0992,1.9284,1.7791,1.696,1.5854,1.429,1.2265,1.1887,1.0852,0.8521,0.6392,0.5115,0.5115,0.405,0.3412,0.3412,0.2345,0.1064,-0.0,-0.0424,-0.1689,-0.3348,-0.3337,-0.3311,-0.3275,-0.3264,-0.3247,-0.3228,-0.32,-0.317,-0.314,-0.311,-0.3078,-0.3051,-0.3039,-0.3022,-0.2813,-0.185,-0.1284,-0.091,-0.018,-0.0718,-0.1436,-0.2156,-0.2507,-0.2848,-0.2981,-0.3648,-0.4308,-0.4942,-0.5945,-0.7116,-0.8072,-0.8901,-0.9903,-1.1736,-1.2727,-1.3858,-1.5607,-1.7394,-1.916,-2.0676,0.0,-2.3897,-2.5462,-2.6988,-2.8597,-3.0466,-3.2143,-3.3709,-3.5265,-3.6915,-3.8583,-4.002,-4.1647,-4.3257,-4.4705,-4.7445,-4.9806,-5.1615,-5.3341,-5.4712,-5.573,-5.6611,-5.7625,-5.8914,-6.0286,-6.1098,-6.1457,-6.2403,-6.2942,-6.2942,-6.2942,-6.2942,-6.2942,-6.2942,-6.2942,-6.2942,-6.2942,-6.2942,-6.3083,-6.4019,-6.4358,-6.4249,3.3573,3.2913,3.2025,3.1101,3.022,2.928,2.7759,2.6749,2.5701,2.4156,2.265,2.156,2.0907,1.9219,1.7545,1.6513,1.5749,1.4144,1.2118,1.1276,1.0216,0.8521,0.6392,0.5115,0.5115,0.405,0.3412,0.3412,0.2345,0.1066,-0.0,-0.0,-0.1062,-0.2957,-0.3159,-0.3337,-0.329,-0.328,-0.3258,-0.3228,-0.3209,-0.3183,-0.3153,-0.3123,-0.3093,-0.3065,-0.3055,-0.3039,-0.3017,-0.1867,-0.0924,-0.0,-0.0,-0.072,-0.1616,-0.2694,-0.2874,-0.287,-0.2848,-0.3534,-0.4376,-0.4484,-0.567,-0.7024,-0.7993,-0.88,-0.9958,-1.1795,-1.2759,-1.388,-1.5695,-1.7501,-1.9307,-2.1092,-2.2556,-2.4182,-2.5766,-2.7284,-2.891,-3.0678,-3.2208,-3.3863,-3.5449,-3.7128,-3.8651,-4.0264,-4.175,-4.3628,-4.6011,-4.8638,-5.064,-5.2042,-5.381,-5.516,-5.602,-5.7138,-5.8105,-5.9317,-6.0428,-6.1268,-6.1789,-6.2515,-6.2781,-6.2942,-6.2942,-6.2942,-6.2942,-6.2942,-6.2942,-6.2942,-6.2942,-6.2921,-6.3068,-6.3967,-6.4194,-6.4221,3.3911,3.3243,3.2343,3.141,3.0518,2.9554,2.8031,2.6863,2.5701,2.4156,2.2774,2.1514,2.0516,1.9222,1.7783,1.6126,1.5628,1.4229,1.2122,0.9792,0.8521,0.8521,0.6392,0.5115,0.5115,0.405,0.3412,0.3412,0.2345,0.1066,-0.0,-0.0,-0.0639,-0.1704,-0.2957,-0.335,-0.332,-0.3288,-0.3258,-0.3231,-0.323,-0.3213,-0.3185,-0.3155,-0.3125,-0.3093,-0.3063,-0.3052,-0.2857,-0.1885,-0.0747,-0.0,-0.0,-0.0724,-0.1616,-0.2694,-0.2874,-0.2874,-0.2874,-0.3592,-0.4285,-0.4195,-0.5559,-0.7122,-0.8161,-0.8955,-1.0073,-1.1763,-1.283,-1.3887,-1.5695,-1.7501,-1.9307,-2.1092,-2.2694,-2.4455,-2.6228,-2.779,-2.9353,-3.0593,-3.2283,-3.3788,-3.5387,-3.7107,-3.8648,-4.0275,-4.2364,-4.4888,-4.8209,-4.9532,-5.0912,-5.2558,-5.3708,-5.4937,-5.6482,-5.8052,-5.8906,-5.9317,-6.062,-6.1438,-6.1789,-6.2248,-6.2515,-6.2942,-6.2942,-6.2942,-6.2942,-6.2942,-6.2942,-6.2942,-6.2942,-6.304,-6.3357,-6.397,-6.4166,-6.4067,3.3314,3.3013,3.2459,3.076,2.9886,2.9184,2.7453,2.6089,2.4988,2.437,2.2472,2.1221,2.0663,1.9371,1.7826,1.6269,1.5685,1.4229,1.2122,0.9792,0.8521,0.8521,0.6392,0.5115,0.5115,0.405,0.3412,0.3412,0.2345,0.1066,-0.0,-0.0,-0.0639,-0.1705,-0.2976,-0.3381,-0.3351,-0.3321,-0.329,-0.326,-0.3239,-0.3213,-0.3187,-0.3178,-0.3142,-0.3096,-0.3088,-0.307,-0.2857,-0.1885,-0.075,-0.0,-0.0,-0.0724,-0.1616,-0.2694,-0.2874,-0.2874,-0.2874,-0.3592,-0.4293,-0.4234,-0.5621,-0.7188,-0.8173,-0.9003,-1.0184,-1.2069,-1.3055,-1.4182,-1.5909,-1.7714,-1.9318,-2.0952,-2.2694,-2.4455,-2.6228,-2.7647,-2.9145,-3.0934,-3.2349,-3.3872,-3.533,-3.7075,-3.8633,-4.0406,-4.3419,-4.6146,-4.8232,-4.9532,-5.0912,-5.2558,-5.4084,-5.551,-5.6482,-5.8052,-5.8982,-5.952,-6.0674,-6.1438,-6.1789,-6.2248,-6.2515,-6.2942,-6.2942,-6.2942,-6.2942,-6.2942,-6.2942,-6.2942,-6.2648,-6.2906,-6.3384,-6.3418,-6.3606,-6.4067,3.307,3.2661,3.2029,3.0319,2.9554,2.8608,2.7249,2.5777,2.4526,2.4077,2.2459,2.1027,2.0225,1.9076,1.7704,1.5914,1.4651,1.3174,1.1276,0.958,0.8309,0.8093,0.6179,0.5115,0.5115,0.405,0.3412,0.3412,0.2345,0.1066,-0.0,-0.0,-0.0639,-0.1706,-0.2985,-0.3395,-0.3365,-0.3335,-0.3303,-0.3273,-0.3242,-0.322,-0.3204,-0.3193,-0.3157,-0.3114,-0.3101,-0.3078,-0.305,-0.2273,-0.1132,-0.0187,-0.0918,-0.1271,-0.1625,-0.2517,-0.2874,-0.2874,-0.3053,-0.3769,-0.4301,-0.4451,-0.5861,-0.7268,-0.8277,-0.9109,-1.0294,-1.22,-1.3191,-1.4323,-1.6084,-1.7918,-1.9551,-2.1227,-2.3004,-2.4789,-2.6573,-2.7852,-2.9354,-3.0974,-3.2408,-3.3792,-3.5418,-3.703,-3.9069,-4.147,-4.4313,-4.6596,-4.8086,-4.9432,-5.0914,-5.2617,-5.4302,-5.5568,-5.6841,-5.814,-5.9024,-5.9648,-6.0618,-6.1302,-6.1546,-6.1951,-6.2381,-6.2648,-6.2781,-6.2942,-6.2942,-6.2942,-6.2781,-6.2676,-6.2794,-6.297,-6.317,-6.3359,-6.3679,-6.4109,3.3351,3.2421,3.1284,3.0319,2.9171,2.8224,2.7283,2.5918,2.4492,2.3551,2.2489,2.1088,1.945,1.876,1.7594,1.5493,1.3174,1.1487,1.0216,0.9159,0.8309,0.7674,0.5971,0.5123,0.5127,0.4053,0.3412,0.3412,0.2345,0.1279,-0.0,-0.0,-0.0639,-0.1706,-0.2985,-0.3396,-0.3369,-0.3339,-0.3307,-0.3277,-0.3246,-0.3232,-0.3227,-0.3202,-0.3174,-0.3142,-0.3112,-0.3082,-0.3055,-0.3054,-0.1706,-0.0375,-0.2208,-0.2193,-0.164,-0.2706,-0.2878,-0.3056,-0.3411,-0.3949,-0.4487,-0.5022,-0.6097,-0.7531,-0.8421,-0.9242,-1.0414,-1.2336,-1.3281,-1.4386,-1.6244,-1.8113,-1.9972,-2.163,-2.3465,-2.5285,-2.7105,-2.8409,-2.9719,-3.1037,-3.23,-3.37,-3.5356,-3.7288,-3.9777,-4.3269,-4.5106,-4.6618,-4.7863,-4.9445,-5.1126,-5.2889,-5.4225,-5.5616,-5.7379,-5.8096,-5.8947,-5.9648,-6.0342,-6.0892,-6.1302,-6.1681,-6.1951,-6.2381,-6.2648,-6.2781,-6.2781,-6.2781,-6.2648,-6.2437,-6.2915,-6.3115,-6.3164,-6.3766,-6.4082,-6.4165,3.3351,3.2421,3.1284,3.0319,2.898,2.7704,2.694,2.5447,2.4227,2.3355,2.246,2.114,1.9607,1.8619,1.7174,1.5493,1.3174,1.1487,1.0216,0.9159,0.8332,0.7745,0.6029,0.5185,0.5221,0.4079,0.3412,0.3412,0.3198,0.1919,-0.0,-0.0,-0.0639,-0.1706,-0.2985,-0.3408,-0.34,-0.337,-0.3339,-0.3309,-0.3279,-0.3251,-0.323,-0.3224,-0.3204,-0.3174,-0.3144,-0.3114,-0.3084,-0.2486,-0.1705,-0.1314,-0.1683,-0.2228,-0.2762,-0.2917,-0.2908,-0.3082,-0.3417,-0.3949,-0.4487,-0.5383,-0.6458,-0.7531,-0.8421,-0.9299,-1.053,-1.2479,-1.3507,-1.4674,-1.645,-1.8317,-1.9978,-2.1662,-2.3465,-2.5285,-2.7105,-2.8084,-2.9468,-3.1371,-3.2357,-3.3774,-3.5731,-3.8614,-4.1325,-4.3442,-4.5106,-4.6751,-4.8316,-4.963,-5.1293,-5.34,-5.4277,-5.5616,-5.7379,-5.8096,-5.8947,-5.9648,-6.0065,-6.0618,-6.1302,-6.1438,-6.1574,-6.1951,-6.1951,-6.2086,-6.2086,-6.2086,-6.1951,-6.2007,-6.237,-6.27,-6.3164,-6.3482,-6.365,-6.3726,3.2611,3.1664,3.07,2.9554,2.8319,2.7284,2.643,2.5273,2.4095,2.31,2.198,2.0836,1.9253,1.8013,1.6545,1.4229,1.2757,1.1276,0.958,0.8765,0.8158,0.6905,0.5853,0.5008,0.4813,0.3905,0.3232,0.2575,0.3205,0.2132,-0.0,-0.0,-0.0639,-0.1706,-0.2985,-0.3412,-0.341,-0.338,-0.335,-0.3318,-0.3288,-0.3257,-0.323,-0.323,-0.3213,-0.3185,-0.3153,-0.3114,-0.3073,-0.2674,-0.2471,-0.2269,-0.2258,-0.2621,-0.2977,-0.2947,-0.2939,-0.3114,-0.3809,-0.416,-0.4695,-0.5747,-0.6637,-0.7531,-0.8599,-0.9491,-1.0565,-1.252,-1.3578,-1.4787,-1.6633,-1.853,-2.022,-2.1991,-2.3821,-2.5669,-2.7516,-2.851,-2.9721,-3.172,-3.2717,-3.4391,-3.6992,-3.9531,-4.1812,-4.3751,-4.5297,-4.6849,-4.8539,-4.9984,-5.1396,-5.3004,-5.4304,-5.5601,-5.7091,-5.7667,-5.8381,-5.9368,-5.99,-6.0453,-6.1029,-6.1166,-6.1438,-6.1546,-6.1681,-6.1789,-6.1789,-6.1789,-6.1847,-6.2041,-6.2536,-6.2692,-6.3008,-6.3344,-6.3338,-6.3165,3.1853,3.0752,2.9808,2.8861,2.7926,2.6934,2.5981,2.5121,2.4167,2.256,2.1466,2.0312,1.885,1.7384,1.5704,1.2968,1.2122,1.0856,0.8751,0.8593,0.7775,0.6069,0.546,0.5047,0.4393,0.3733,0.2837,0.1728,0.2359,0.1921,-0.0,-0.0,-0.0639,-0.1706,-0.2985,-0.3412,-0.341,-0.3385,-0.3356,-0.3326,-0.3295,-0.3265,-0.3238,-0.3232,-0.3216,-0.3191,-0.3161,-0.3111,-0.3059,-0.3054,-0.3052,-0.3048,-0.3022,-0.3014,-0.3009,-0.2979,-0.2969,-0.3147,-0.4216,-0.4387,-0.4741,-0.6308,-0.7011,-0.7549,-0.9134,-0.9847,-1.0565,-1.252,-1.3755,-1.4992,-1.6761,-1.8681,-2.0598,-2.233,-2.4212,-2.6091,-2.7786,-2.8978,-3.0332,-3.2009,-3.3296,-3.5221,-3.8286,-4.0235,-4.2146,-4.4081,-4.5418,-4.692,-4.8776,-5.0375,-5.1709,-5.2577,-5.4202,-5.5485,-5.6656,-5.7091,-5.7953,-5.8947,-5.9648,-6.0204,-6.0755,-6.1029,-6.1166,-6.1166,-6.1546,-6.1681,-6.1681,-6.1792,-6.185,-6.2122,-6.2832,-6.2953,-6.2893,-6.3365,-6.3017,-6.2422,3.1664,3.0715,2.9722,2.8958,2.7986,2.6838,2.584,2.4505,2.3194,2.2122,2.1137,1.9903,1.8641,1.6755,1.4651,1.2334,1.1911,1.0882,0.8821,0.862,0.7818,0.6179,0.5526,0.5102,0.4471,0.4,0.3073,0.1728,0.0863,0.0215,-0.0,-0.0,-0.0639,-0.1706,-0.2985,-0.3412,-0.3411,-0.3407,-0.3388,-0.3358,-0.3328,-0.3296,-0.3266,-0.324,-0.3228,-0.3221,-0.3193,-0.3142,-0.3088,-0.3061,-0.3052,-0.3051,-0.3047,-0.3046,-0.304,-0.301,-0.3001,-0.3181,-0.4076,-0.4434,-0.4792,-0.6744,-0.7272,-0.7798,-0.9514,-1.0209,-1.1099,-1.252,-1.3932,-1.5344,-1.6761,-1.8681,-2.0598,-2.233,-2.4212,-2.6091,-2.7786,-2.9328,-3.068,-3.2009,-3.4278,-3.6529,-3.8444,-4.0502,-4.2484,-4.4102,-4.5736,-4.7421,-4.9138,-5.0582,-5.1722,-5.31,-5.4397,-5.5485,-5.6219,-5.7091,-5.781,-5.8523,-5.9088,-5.9648,-6.0315,-6.0618,-6.0892,-6.0892,-6.0892,-6.0892,-6.0947,-6.1409,-6.1681,-6.1732,-6.256,-6.2876,-6.2748,-6.2804,-6.2422,-6.1947,3.0754,3.0016,2.9224,2.8438,2.7457,2.6455,2.5348,2.4246,2.3119,2.2175,2.0729,1.9477,1.8641,1.6545,1.444,1.2122,1.1963,1.0947,0.8839,0.8705,0.791,0.5758,0.5562,0.4914,0.4039,0.3804,0.3102,0.174,0.065,-0.0,-0.0,-0.0,-0.0639,-0.1706,-0.2985,-0.3412,-0.3412,-0.3412,-0.3395,-0.3363,-0.3333,-0.3303,-0.3272,-0.3242,-0.323,-0.3227,-0.3198,-0.3149,-0.3096,-0.3082,-0.3066,-0.3052,-0.3052,-0.3052,-0.305,-0.3036,-0.3221,-0.3594,-0.4304,-0.4666,-0.5213,-0.6997,-0.7347,-0.7885,-0.9667,-1.0695,-1.1531,-1.2716,-1.3938,-1.5344,-1.6761,-1.8681,-2.0598,-2.233,-2.4212,-2.6091,-2.7786,-2.9328,-3.0998,-3.2983,-3.4929,-3.6937,-3.8755,-4.0693,-4.2743,-4.4981,-4.6152,-4.7744,-4.9807,-5.0734,-5.1745,-5.2916,-5.4272,-5.5337,-5.5926,-5.6946,-5.7667,-5.8212,-5.8806,-5.9508,-6.0177,-6.0342,-6.0618,-6.0782,-6.0782,-6.0782,-6.081,-6.1379,-6.1674,-6.1912,-6.249,-6.2737,-6.2645,-6.2168,-6.1796,-6.1495]},{"header":{"parameterUnit":"m.s-1","parameterCategory":1,"la1":30.6,"la2":28.766,"lo1":-90.7593,"lo2":-88.6598,"dy":0.0162,"dx":0.0183,"nx":116,"ny":114,"refTime":"2024-04-06T00:00:00:Z","depth":0,"parameterNumber":3,"parameterNumberName":"V-component_of_WINDS"},"data":[0.0,0.0,0.0,0.0,0.0,0.0,0.0,0.0,0.0,0.0,0.0,0.0,0.0,0.0,0.0,0.0,0.0,0.0,0.0,0.0,0.0,0.0,0.0,0.0,0.0,0.0,0.0,0.0,0.0,0.0,0.0,0.0,0.0,0.0,0.0,0.0,0.0,0.0,0.0,0.0,0.0,0.0,0.0,0.0,0.0,0.0,0.0,0.0,0.0,0.0,0.0,0.0,0.0,0.0,0.0,0.0,0.0,0.0,0.0,0.0,0.0,0.0,0.0,0.0,0.0,0.0,0.0,0.0,0.0,0.0,0.0,0.0,0.0,0.0,0.0,0.0,0.0,0.0,0.0,0.0,0.0,0.0,0.0,0.0,0.0,0.0,0.0,0.0,0.0,0.0,0.0,0.0,0.0,0.0,0.0,0.0,0.0,0.0,0.0,0.0,0.0,0.0,0.0,0.0,0.0,0.0,0.0,0.0,0.0,0.0,0.0,0.0,0.0,0.0,0.0,0.0,0.0,0.0,0.0,0.0,0.0,0.0,0.0,0.0,0.0,0.0,0.0,0.0,0.0,0.0,0.0,0.0,0.0,0.0,0.0,0.0,0.0,0.0,0.0,0.0,0.0,0.0,0.0,0.0,0.0,0.0,0.0,0.0,0.0,0.0,0.0,0.0,0.0,0.0,0.0,0.0,0.0,0.0,0.0,0.0,0.0,0.0,0.0,0.0,0.0,0.0,0.0,0.0,0.0,0.0,0.0,0.0,0.0,0.0,0.0,0.0,0.0,0.0,0.0,0.0,0.0,0.0,0.0,0.0,0.0,0.0,0.0,0.0,0.0,0.0,0.0,0.0,0.0,0.0,0.0,0.0,0.0,0.0,0.0,0.0,0.0,0.0,0.0,0.0,0.0,0.0,0.0,0.0,0.0,0.0,0.0,0.0,0.0,0.0,0.0,0.0,0.0,0.0,0.0,0.0,0.0,0.0,0.0,0.0,0.0,0.0,0.0,0.0,0.0,0.0,0.0,0.0,0.0,0.0,0.0,0.0,0.0,0.0,0.0,0.0,0.0,0.0,0.0,0.0,0.0,0.0,0.0,0.0,0.0,0.0,0.0,0.0,0.0,0.0,0.0,0.0,0.0,0.0,0.0,0.0,0.0,0.0,0.0,0.0,0.0,0.0,0.0,0.0,0.0,0.0,0.0,0.0,0.0,0.0,0.0,0.0,0.0,0.0,0.0,0.0,0.0,0.0,0.0,0.0,0.0,0.0,0.0,0.0,0.0,0.0,0.0,0.0,0.0,0.0,0.0,0.0,0.0,0.0,0.0,0.0,0.0,0.0,0.0,0.0,0.0,0.0,0.0,0.0,0.0,0.0,0.0,0.0,0.0,0.0,0.0,0.0,0.0,0.0,0.0,0.0,0.0,0.0,0.0,0.0,0.0,0.0,0.0,0.0,0.0,0.0,0.0,0.0,0.0,0.0,0.0,0.0,0.0,0.0,0.0,0.0,0.0,0.0,0.0,0.0,0.0,0.0,0.0,0.0,0.0,0.0,0.0,0.0,0.0,0.0,0.0,0.0,0.0,0.0,0.0,0.0,0.0,0.0,0.0,0.0,0.0,0.0,0.0,0.0,0.0,0.0,0.0,0.0,0.0,0.0,0.0,0.0,0.0,0.0,0.0,0.0,0.0,0.0,0.0,0.0,0.0,0.0,0.0,0.0,0.0,0.0,0.0,0.0,0.0,0.0,0.0,0.0,0.0,0.0,0.0,0.0,0.0,0.0,0.0,0.0,0.0,0.0,0.0,0.0,0.0,0.0,0.0,0.0,0.0,0.0,0.0,0.0,0.0,0.0,0.0,0.0,0.0,0.0,0.0,0.0,0.0,0.0,0.0,0.0,0.0,0.0,0.0,0.0,0.0,0.0,0.0,0.0,0.0,0.0,0.0,0.0,0.0,0.0,0.0,0.0,0.0,0.0,0.0,0.0,0.0,0.0,0.0,0.0,0.0,0.0,0.0,0.0,0.0,0.0,0.0,0.0,0.0,0.0,0.0,0.0,0.0,0.0,0.0,0.0,0.0,0.0,0.0,0.0,0.0,0.0,0.0,0.0,0.0,0.0,0.0,0.0,0.0,0.0,0.0,0.0,0.0,0.0,0.0,0.0,0.0,0.0,0.0,0.0,0.0,0.0,0.0,0.0,0.0,0.0,0.0,0.0,0.0,0.0,0.0,0.0,0.0,0.0,0.0,0.0,0.0,0.0,0.0,0.0,0.0,0.0,0.0,0.0,0.0,0.0,0.0,0.0,0.0,0.0,0.0,0.0,0.0,0.0,0.0,0.0,0.0,0.0,0.0,0.0,0.0,0.0,0.0,0.0,0.0,0.0,0.0,0.0,0.0,0.0,0.0,0.0,0.0,0.0,0.0,0.0,0.0,0.0,0.0,0.0,0.0,0.0,0.0,0.0,0.0,0.0,0.0,0.0,0.0,0.0,0.0,0.0,0.0,0.0,0.0,0.0,0.0,0.0,0.0,0.0,0.0,0.0,0.0,0.0,0.0,0.0,0.0,0.0,0.0,0.0,0.0,0.0,0.0,0.0,0.0,0.0,0.0,0.0,0.0,0.0,0.0,0.0,0.0,0.0,0.0,0.0,0.0,0.0,0.0,0.0,0.0,0.0,0.0,0.0,0.0,0.0,0.0,0.0,0.0,0.0,0.0,0.0,0.0,0.0,0.0,0.0,0.0,0.0,0.0,0.0,0.0,0.0,0.0,0.0,0.0,0.0,0.0,0.0,0.0,0.0,0.0,0.0,0.0,0.0,0.0,0.0,0.0,0.0,0.0,0.0,0.0,0.0,0.0,0.0,0.0,0.0,0.0,0.0,0.0,0.0,0.0,0.0,0.0,0.0,0.0,0.0,0.0,0.0,0.0,0.0,0.0,0.0,0.0,0.0,0.0,0.0,0.0,0.0,0.0,0.0,0.0,0.0,0.0,0.0,0.0,0.0,0.0,0.0,0.0,0.0,0.0,0.0,0.0,0.0,0.0,0.0,0.0,0.0,0.0,0.0,0.0,0.0,0.0,0.0,0.0,0.0,0.0,0.0,0.0,0.0,0.0,0.0,0.0,0.0,0.0,0.0,0.0,0.0,0.0,0.0,0.0,0.0,0.0,0.0,0.0,0.0,0.0,0.0,0.0,0.0,0.0,0.0,0.0,0.0,0.0,0.0,0.0,0.0,0.0,0.0,0.0,0.0,0.0,0.0,0.0,0.0,0.0,0.0,0.0,0.0,0.0,0.0,0.0,0.0,0.0,0.0,0.0,0.0,0.0,0.0,0.0,0.0,0.0,0.0,0.0,0.0,0.0,0.0,0.0,0.0,0.0,0.0,0.0,0.0,0.0,0.0,0.0,0.0,0.0,0.0,0.0,0.0,0.0,0.0,0.0,0.0,0.0,0.0,0.0,0.0,0.0,0.0,0.0,0.0,0.0,0.0,0.0,0.0,0.0,0.0,0.0,0.0,0.0,0.0,0.0,0.0,0.0,0.0,0.0,0.0,0.0,0.0,0.0,0.0,0.0,0.0,0.0,0.0,0.0,0.0,0.0,0.0,0.0,0.0,0.0,0.0,0.0,0.0,0.0,0.0,0.0,0.0,0.0,0.0,0.0,0.0,0.0,0.0,0.0,0.0,0.0,0.0,0.0,0.0,0.0,0.0,0.0,0.0,0.0,0.0,0.0,0.0,0.0,0.0,0.0,0.0,0.0,0.0,0.0,0.0,0.0,0.0,0.0,0.0,0.0,0.0,0.0,0.0,0.0,0.0,0.0,0.0,0.0,0.0,0.0,0.0,0.0,0.0,0.0,0.0,0.0,0.0,0.0,0.0,0.0,0.0,0.0,0.0,0.0,0.0,0.0,0.0,0.0,0.0,0.0,0.0,0.0,0.0,0.0,0.0,0.0,0.0,0.0,0.0,0.0,0.0,0.0,0.0,0.0,0.0,0.0,0.0,0.0,0.0,0.0,0.0,0.0,0.0,0.0,0.0,0.0,0.0,0.0,0.0,0.0,0.0,0.0,0.0,0.0,0.0,0.0,0.0,0.0,0.0,0.0,0.0,0.0,0.0,0.0,0.0,0.0,0.0,0.0,0.0,0.0,0.0,0.0,0.0,0.0,0.0,0.0,0.0,0.0,0.0,0.0,0.0,0.0,0.0,0.0,0.0,0.0,0.0,0.0,0.0,0.0,0.0,0.0,0.0,0.0,0.0,0.0,0.0,0.0,0.0,0.0,0.0,0.0,0.0,0.0,0.0,0.0,0.0,0.0,0.0,0.0,0.0,0.0,0.0,0.0,0.0,0.0,0.0,0.0,0.0,0.0,0.0,0.0,0.0,0.0,0.0,0.0,0.0,0.0,0.0,0.0,0.0,0.0,0.0,0.0,0.0,0.0,0.0,0.0,0.0,0.0,0.0,0.0,0.0,0.0,0.0,0.0,0.0,0.0,0.0,0.0,0.0,0.0,0.0,0.0,0.0,0.0,0.0,0.0,0.0,0.0,0.0,0.0,0.0,0.0,0.0,0.0,0.0,0.0,0.0,0.0,0.0,0.0,0.0,0.0,0.0,0.0,0.0,0.0,0.0,0.0,0.0,0.0,0.0,0.0,0.0,0.0,0.0,0.0,0.0,0.0,0.0,0.0,0.0,0.0,0.0,0.0,0.0,0.0,0.0,0.0,0.0,0.0,0.0,0.0,0.0,0.0,0.0,0.0,0.0,0.0,0.0,0.0,0.0,0.0,0.0,0.0,0.0,0.0,0.0,0.0,0.0,0.0,0.0,0.0,0.0,0.0,0.0,0.0,0.0,0.0,0.0,0.0,0.0,0.0,0.0,0.0,0.0,0.0,0.0,0.0,0.0,0.0,0.0,0.0,0.0,0.0,0.0,0.0,0.0,0.0,0.0,0.0,0.0,0.0,0.0,0.0,0.0,0.0,0.0,0.0,0.0,0.0,0.0,0.0,0.0,0.0,0.0,0.0,0.0,0.0,0.0,0.0,0.0,0.0,0.0,0.0,0.0,0.0,0.0,0.0,0.0,0.0,0.0,0.0,0.0,0.0,0.0,0.0,0.0,0.0,0.0,0.0,0.0,0.0,0.0,0.0,0.0,0.0,0.0,0.0,0.0,0.0,0.0,0.0,0.0,0.0,0.0,0.0,0.0,0.0,0.0,0.0,0.0,0.0,0.0,0.0,0.0,0.0,0.0,0.0,0.0,0.0,0.0,0.0,0.0,0.0,0.0,0.0,0.0,0.0,0.0,0.0,0.0,0.0,0.0,0.0,0.0,0.0,0.0,0.0,0.0,0.0,0.0,0.0,0.0,0.0,0.0,0.0,0.0,0.0,0.0,0.0,0.0,0.0,0.0,0.0,0.0,0.0,0.0,0.0,0.0,0.0,0.0,0.0,0.0,0.0,0.0,0.0,0.0,0.0,0.0,0.0,0.0,0.0,0.0,0.0,0.0,0.0,0.0,0.0,0.0,0.0,0.0,0.0,0.0,0.0,0.0,0.0,0.0,0.0,0.0,0.0,0.0,0.0,0.0,0.0,0.0,0.0,0.0,0.0,0.0,0.0,0.0,0.0,0.0,0.0,0.0,0.0,0.0,0.0,0.0,0.0,0.0,0.0,0.0,0.0,0.0,0.0,0.0,0.0,0.0,0.0,0.0,0.0,0.0,0.0,0.0,0.0,0.0,0.0,0.0,0.0,0.0,0.0,0.0,0.0,0.0,0.0,0.0,0.0,0.0,0.0,0.0,0.0,0.0,0.0,0.0,0.0,0.0,0.0,0.0,0.0,0.0,0.0,0.0,0.0,0.0,0.0,0.0,0.0,0.0,0.0,0.0,0.0,0.0,0.0,0.0,0.0,0.0,0.0,0.0,0.0,0.0,0.0,0.0,0.0,0.0,0.0,0.0,0.0,0.0,0.0,0.0,0.0,0.0,0.0,0.0,0.0,0.0,0.0,0.0,0.0,0.0,0.0,0.0,0.0,0.0,0.0,0.0,0.0,0.0,0.0,0.0,0.0,0.0,0.0,0.0,0.0,0.0,0.0,0.0,0.0,0.0,-4.3818,0.0,0.0,0.0,0.0,0.0,0.0,0.0,0.0,0.0,0.0,0.0,0.0,0.0,0.0,0.0,0.0,0.0,0.0,0.0,0.0,0.0,0.0,0.0,0.0,-4.7939,-4.8525,-4.9345,-4.9423,-4.9618,-5.0008,0.0,0.0,0.0,0.0,0.0,-5.1297,-5.1726,-5.2195,-5.2663,-5.3104,-5.3554,-5.3947,-5.2156,-5.0855,-5.0048,0.0,0.0,0.0,0.0,0.0,0.0,0.0,0.0,0.0,0.0,0.0,0.0,0.0,0.0,0.0,0.0,0.0,0.0,0.0,0.0,0.0,0.0,0.0,0.0,0.0,0.0,0.0,0.0,0.0,0.0,0.0,0.0,0.0,0.0,0.0,0.0,0.0,0.0,0.0,0.0,0.0,0.0,0.0,0.0,0.0,0.0,0.0,0.0,0.0,0.0,0.0,0.0,0.0,0.0,0.0,0.0,0.0,0.0,0.0,0.0,0.0,0.0,0.0,0.0,0.0,0.0,0.0,0.0,0.0,0.0,0.0,-4.4892,0.0,0.0,0.0,0.0,0.0,0.0,0.0,0.0,0.0,0.0,0.0,0.0,0.0,0.0,0.0,0.0,0.0,0.0,0.0,0.0,0.0,-4.7666,-4.7783,-4.8525,-4.9423,-5.0477,-5.0555,-5.0906,-5.1804,-5.2546,0.0,0.0,-5.3639,-5.4068,-5.4225,-5.4381,-5.4541,-5.4701,-5.4825,-5.4883,-5.4879,-5.4819,-5.3988,-5.2461,-5.1195,0.0,0.0,0.0,0.0,0.0,0.0,0.0,0.0,0.0,0.0,0.0,0.0,0.0,0.0,0.0,0.0,0.0,0.0,0.0,0.0,0.0,0.0,0.0,0.0,0.0,0.0,0.0,0.0,0.0,0.0,0.0,0.0,0.0,0.0,0.0,0.0,0.0,0.0,0.0,0.0,0.0,0.0,0.0,0.0,0.0,0.0,0.0,0.0,0.0,0.0,0.0,0.0,0.0,0.0,0.0,0.0,0.0,0.0,0.0,0.0,0.0,0.0,0.0,0.0,-5.0758,-5.0587,-5.0448,-5.039,-5.0321,-4.8931,-4.8072,-4.7592,0.0,0.0,0.0,0.0,0.0,0.0,0.0,0.0,0.0,0.0,0.0,0.0,0.0,0.0,0.0,0.0,0.0,0.0,0.0,0.0,-4.7861,-4.8564,-4.9423,-5.0594,-5.2234,-5.2351,-5.2741,-5.36,-5.3756,-5.3834,-5.3834,-5.3951,-5.4342,-5.5123,-5.5864,-5.6618,-5.7374,-5.8086,-5.8421,-5.8415,-5.8403,-5.7868,-5.6775,-5.4354,-5.2775,-5.1851,0.0,0.0,0.0,0.0,0.0,0.0,0.0,0.0,0.0,0.0,0.0,0.0,0.0,0.0,0.0,0.0,0.0,0.0,0.0,0.0,0.0,0.0,0.0,0.0,0.0,0.0,0.0,0.0,0.0,0.0,0.0,0.0,0.0,0.0,0.0,0.0,0.0,0.0,0.0,0.0,0.0,-4.0221,-4.1787,0.0,0.0,0.0,0.0,0.0,0.0,0.0,0.0,0.0,0.0,0.0,0.0,0.0,0.0,-5.154,-5.1645,-5.192,-5.2472,-5.2405,-5.2299,-5.2181,-5.2002,-5.1942,-5.1908,-5.1641,0.0,-4.934,-4.9078,0.0,0.0,0.0,0.0,0.0,0.0,0.0,0.0,0.0,0.0,0.0,0.0,0.0,0.0,0.0,0.0,0.0,0.0,0.0,0.0,0.0,-5.075,-5.1882,-5.2624,-5.3132,-5.36,-5.399,-5.4459,-5.4966,-5.5435,-5.5903,-5.6528,-5.7426,-5.7816,-5.8428,-5.9329,-5.967,-6.008,-6.0555,-6.0535,-5.9997,-5.9046,-5.7881,-5.6032,-5.3767,-5.3349,0.0,0.0,0.0,0.0,0.0,0.0,0.0,0.0,0.0,0.0,0.0,0.0,0.0,0.0,0.0,0.0,0.0,0.0,0.0,0.0,0.0,0.0,0.0,0.0,0.0,0.0,0.0,0.0,0.0,0.0,0.0,0.0,0.0,0.0,0.0,0.0,0.0,0.0,0.0,-4.0903,-4.1823,-4.3393,-4.3957,-4.4582,0.0,0.0,0.0,0.0,0.0,0.0,0.0,0.0,0.0,-5.161,-5.1645,-5.2172,-5.3296,-5.3752,-5.4291,-5.4968,-5.5183,-5.5243,-5.5181,-5.4931,-5.4805,-5.4805,-5.4805,-5.4362,-5.3542,-5.1514,-5.0441,-5.0045,0.0,0.0,0.0,0.0,-4.7928,-4.7668,0.0,0.0,0.0,0.0,0.0,0.0,0.0,0.0,0.0,0.0,0.0,0.0,-5.0321,-5.1804,-5.2897,-5.3327,-5.3951,-5.4498,-5.4927,-5.5591,-5.6333,-5.7192,-5.7816,-5.8636,-5.9729,-6.021,-6.0741,-6.1412,-6.1364,-6.1699,-6.2343,-6.2274,-6.188,-6.1195,-6.111,-5.9138,-5.586,-5.5552,-5.4525,-5.2972,0.0,0.0,0.0,0.0,0.0,0.0,0.0,0.0,0.0,0.0,0.0,0.0,0.0,0.0,0.0,0.0,0.0,0.0,0.0,0.0,0.0,0.0,0.0,0.0,0.0,0.0,0.0,0.0,0.0,0.0,0.0,0.0,0.0,0.0,0.0,0.0,0.0,-4.2828,-4.3679,-4.5027,-4.5792,-4.6589,0.0,0.0,0.0,0.0,0.0,0.0,-5.2523,-5.2593,-5.305,-5.4033,-5.4068,-5.4419,-5.5191,-5.5788,-5.6385,-5.6912,-5.7346,-5.7567,-5.7602,-5.7386,-5.7357,-5.7357,-5.715,-5.7081,-5.6874,-5.4072,-5.2686,-5.2388,-5.2227,-5.1896,-5.1462,-5.0557,-5.0092,-4.9826,0.0,0.0,0.0,0.0,0.0,0.0,0.0,0.0,0.0,0.0,0.0,-4.9462,-5.1141,-5.2156,-5.3366,-5.5005,-5.5201,-5.5903,-5.7504,-5.766,-5.805,-5.8948,-5.9026,-5.9846,-6.1525,-6.3199,-6.4061,-6.4089,-6.4052,-6.4021,-6.4053,-6.4012,-6.3954,-6.3896,-6.3779,-6.1764,-5.8467,-5.7555,-5.6616,-5.5635,-5.459,0.0,0.0,0.0,0.0,0.0,0.0,0.0,0.0,0.0,0.0,0.0,0.0,0.0,0.0,0.0,0.0,0.0,0.0,0.0,0.0,0.0,0.0,0.0,0.0,0.0,0.0,0.0,0.0,0.0,0.0,0.0,0.0,0.0,0.0,0.0,0.0,0.0,0.0,-4.66,-4.7417,0.0,0.0,0.0,0.0,-5.1856,-5.2593,-5.3366,-5.4138,-5.4173,-5.4875,-5.6385,-5.642,-5.6806,-5.7614,-5.7649,-5.7719,-5.7754,-5.8113,-5.8368,-5.8403,-5.8699,-5.8909,-5.8875,-5.815,-5.784,-5.7771,-5.6709,-5.572,-5.4903,-5.477,-5.4059,-5.2977,-5.2236,-5.1765,-5.1393,0.0,0.0,0.0,0.0,0.0,0.0,-4.3684,-4.5168,-4.6807,-4.8174,-4.8603,-4.9696,-5.1999,-5.3014,-5.399,-5.5201,-5.6294,-5.7153,-5.7777,-5.8324,-5.9026,-5.9885,-6.0471,-6.1603,-6.3321,-6.3984,-6.486,-6.5985,-6.592,-6.644,-6.7485,-6.7423,-6.6774,-6.5686,-6.5561,-6.4183,-6.1828,-6.0344,-5.8819,-5.7351,-5.5737,-5.4572,0.0,0.0,0.0,0.0,0.0,0.0,0.0,0.0,0.0,0.0,0.0,0.0,0.0,0.0,0.0,0.0,0.0,0.0,0.0,0.0,0.0,0.0,0.0,0.0,0.0,0.0,0.0,0.0,0.0,0.0,0.0,0.0,0.0,0.0,0.0,0.0,0.0,-4.8946,-4.9699,0.0,0.0,-5.2459,-5.3458,-5.4208,-5.4946,-5.5718,-5.6526,-5.6561,-5.6806,-5.7368,-5.786,-5.8527,-5.9264,-5.9791,-6.0282,-6.0774,-6.0726,-6.063,-6.0665,-6.0497,-6.0496,-6.0461,-6.022,-6.0082,-6.0082,-5.9736,-5.8084,-5.5825,-5.5621,-5.528,-5.4732,-5.4393,-5.4082,-5.3803,0.0,0.0,0.0,0.0,0.0,-4.3684,-4.3684,-4.5168,-4.6885,-4.8564,-4.8798,-4.9891,-5.2819,-5.3639,-5.4576,-5.602,-5.7153,-5.805,-5.8636,-5.9495,-6.0354,-6.1252,-6.2384,-6.3681,-6.5141,-6.5424,-6.6292,-6.7732,-6.767,-6.8195,-6.9319,-6.9234,-6.8579,-6.745,-6.7299,-6.6224,-6.4445,-6.3225,-6.1366,-5.91,-5.7766,-5.652,-5.5207,0.0,0.0,0.0,0.0,0.0,0.0,0.0,0.0,0.0,0.0,0.0,0.0,0.0,0.0,0.0,0.0,0.0,0.0,0.0,0.0,0.0,0.0,0.0,0.0,0.0,0.0,0.0,0.0,0.0,0.0,0.0,0.0,0.0,0.0,0.0,-4.9755,-5.0835,-5.1829,-5.2623,-5.3233,-5.4407,-5.5402,-5.6245,-5.6736,-5.7474,-5.8527,-5.8562,-5.8808,-5.9334,-5.9861,-6.0388,-6.0879,-6.1406,-6.1897,-6.2322,-6.2264,-6.2266,-6.2197,-6.2087,-6.2082,-6.2048,-6.1806,-6.1703,-6.1668,-6.1427,-5.9906,-5.7808,-5.7668,-5.7491,-5.7243,-5.6558,-5.614,-5.5822,0.0,0.0,0.0,0.0,0.0,-4.3684,-4.3684,-4.5168,-4.6885,-4.8564,-4.8798,-5.0126,-5.3639,-5.399,-5.5044,-5.7582,-5.7816,-5.8558,-6.0276,-6.1252,-6.2149,-6.3047,-6.4731,-6.6039,-6.6914,-6.7728,-6.8574,-6.945,-6.938,-6.9358,-6.9397,-6.9328,-6.9239,-6.9119,-6.8989,-6.7949,-6.6263,-6.6196,-6.4132,-6.0911,-6.0699,-5.8604,-5.5517,0.0,0.0,0.0,0.0,0.0,0.0,0.0,0.0,0.0,0.0,0.0,0.0,0.0,0.0,0.0,0.0,0.0,0.0,0.0,0.0,0.0,0.0,0.0,0.0,0.0,0.0,0.0,0.0,0.0,0.0,0.0,0.0,0.0,-4.9603,-5.0631,-5.1844,-5.2431,-5.3717,-5.4816,-5.5507,-5.628,-5.7017,-5.7825,-5.793,-5.8597,-6.0072,-6.0177,-6.0844,-6.2354,-6.2424,-6.2424,-6.2424,-6.2459,-6.2392,-6.2191,-6.2788,-6.2926,-6.2818,-6.3397,-6.3669,-6.3634,-6.291,-6.2565,-6.2496,-6.1737,-6.1321,-6.1071,-6.0818,-6.0597,-6.0313,-5.8564,-5.7803,-5.7379,0.0,0.0,0.0,0.0,0.0,-4.3684,-4.3684,-4.5168,-4.6885,-4.8564,-4.8798,-5.0126,-5.3639,-5.399,-5.5044,-5.7582,-5.8363,-5.9222,-6.0315,-6.1798,-6.333,-6.4828,-6.595,-6.6947,-6.7828,-6.8616,-6.9464,-7.0323,-7.0263,-7.055,-7.1097,-7.1057,-7.0625,-6.9982,-6.9882,-6.9169,-6.7978,-6.7293,-6.5933,-6.4051,-6.1569,-6.0022,-5.8884,0.0,0.0,0.0,0.0,0.0,0.0,0.0,0.0,0.0,0.0,0.0,0.0,0.0,0.0,0.0,0.0,0.0,0.0,0.0,0.0,0.0,0.0,0.0,0.0,0.0,0.0,0.0,0.0,0.0,0.0,0.0,0.0,-5.1479,-5.0951,-5.2714,-5.424,-5.4705,-5.5601,-5.6399,-5.7087,-5.8351,-5.9229,-5.944,-6.0493,-6.13,-6.1722,-6.1757,-6.1932,-6.2389,-6.2951,-6.3199,-6.3063,-6.3588,-6.3799,-6.3624,-6.4176,-6.4377,-6.4412,-6.4985,-6.5255,-6.5255,-6.5048,-6.4634,-6.4083,-6.3841,-6.3462,-6.2768,-6.1302,-6.0597,-6.0415,-5.9749,-5.9279,-5.883,0.0,0.0,0.0,0.0,0.0,-4.3684,-4.3684,-4.5168,-4.6885,-4.8564,-4.8798,-5.0126,-5.3639,-5.399,-5.5162,-5.8089,-5.8792,-5.9612,-6.0861,-6.2579,-6.431,-6.6084,-6.6982,-6.7851,-6.8669,-6.9503,-7.0353,-7.1246,-7.1199,-7.136,-7.1817,-7.1706,-7.1388,-7.0788,-7.0756,-7.0155,-6.9147,-6.8621,-6.7526,-6.5915,-6.3614,-6.1797,-6.0272,-5.8625,-5.7206,-5.596,-5.4676,-5.3164,-5.1579,-5.0183,0.0,0.0,0.0,0.0,0.0,0.0,0.0,0.0,0.0,0.0,0.0,0.0,0.0,0.0,0.0,0.0,0.0,0.0,0.0,0.0,0.0,0.0,0.0,0.0,-5.2941,-5.3478,-5.3353,-5.4524,-5.5688,-5.6552,-5.7585,-5.8308,-5.8737,-6.0142,-6.1055,-6.1055,-6.1862,-6.2529,-6.288,-6.288,-6.3021,-6.3337,-6.4076,-6.4393,-6.4253,-6.4917,-6.5192,-6.5009,-6.5278,-6.5412,-6.5371,-6.5745,-6.5876,0.0,-6.5876,-6.5635,-6.5186,-6.5186,-6.4945,0.0,0.0,0.0,0.0,0.0,-6.0155,-5.9577,0.0,0.0,0.0,-4.1108,-4.2555,-4.3687,-4.3684,-4.5168,-4.6885,-4.8564,-4.8798,-5.0126,-5.3639,-5.399,-5.5396,-5.8792,-5.9104,-5.9924,-6.1876,-6.3438,-6.5087,-6.6823,-6.7811,-6.8668,-6.9377,-7.0348,-7.1234,-7.1987,-7.194,-7.1906,-7.1922,-7.1784,-7.1684,-7.1628,-7.1552,-7.0947,-7.0025,-6.9948,-6.8835,-6.7103,-6.6106,-6.3761,-6.0762,-6.0463,-5.9299,-5.7634,-5.5822,-5.495,-5.422,-5.1126,0.0,0.0,0.0,0.0,0.0,0.0,0.0,0.0,0.0,0.0,0.0,0.0,0.0,0.0,0.0,0.0,0.0,0.0,0.0,0.0,0.0,0.0,0.0,0.0,-5.4884,-5.6177,-5.6396,-5.6374,-5.6846,-5.8104,-5.9468,-6.0352,-6.0352,-6.1687,-6.2529,-6.2529,-6.2599,-6.2986,-6.3793,0.0,0.0,0.0,0.0,-6.565,-6.565,-6.6094,-6.6294,-6.6069,-6.6138,-6.6132,-6.6014,-6.6083,-6.6152,-6.6152,-6.6152,-6.6083,-6.6014,-6.6014,-6.5979,-6.5738,-6.4167,-6.3357,-6.2958,-6.1927,-6.0873,-6.0045,0.0,0.0,0.0,-4.1108,-4.2524,-4.37,-4.3698,-4.5174,-4.6885,-4.8564,-4.8798,-5.0126,-5.3639,-5.399,-5.5396,-5.8792,-5.9104,-6.0432,-6.3594,-6.4101,-6.5082,-6.6805,-6.8394,-6.9295,-6.9397,-7.0943,-7.1813,-7.1932,-7.1893,-7.2199,-7.2744,-7.2029,-7.198,-7.2521,-7.1804,-7.1257,-7.0836,-7.018,-6.9528,-6.879,-6.7257,-6.5303,-6.3154,-6.169,-6.0487,-5.9292,-5.7504,-5.5901,-5.4484,-5.3101,-5.1237,-4.9421,-4.8888,-4.7554,0.0,0.0,0.0,0.0,0.0,0.0,0.0,0.0,0.0,0.0,0.0,0.0,0.0,0.0,0.0,0.0,0.0,0.0,0.0,-5.5491,-5.5952,-5.6958,-5.9335,-5.9567,-5.9549,-5.9678,-6.102,-6.1932,-6.1932,-6.281,-6.3372,-6.3372,-6.3934,-6.4601,-6.5408,-6.5303,0.0,-6.6318,-6.6276,-6.6125,-6.5977,-6.615,-6.6069,-6.5952,0.0,0.0,-6.6807,-6.7394,-6.7669,-6.7669,-6.7669,-6.7325,-6.6773,-6.6773,-6.6428,-6.5842,-6.5069,-6.4357,-6.3577,-6.3204,-6.2425,-6.1559,0.0,0.0,0.0,-4.1108,-4.2522,-4.3698,-4.37,-4.5177,-4.6885,-4.8564,-4.8798,-5.0126,-5.3639,-5.399,-5.5201,-5.8207,-5.9261,-6.1056,-6.4101,-6.431,-6.5091,-6.6834,-6.859,-6.9451,-6.9403,-7.1104,-7.1969,-7.1893,-7.1893,-7.2033,-7.2341,-7.1913,-7.1863,-7.2115,-7.1688,-7.1334,-7.1067,-7.0681,-7.0067,-6.9289,-6.8062,-6.6613,-6.4959,-6.2871,-6.1476,-6.0399,-5.857,-5.7073,-5.5692,-5.435,-5.2714,-5.1082,-5.009,-4.894,-4.7793,0.0,0.0,0.0,0.0,0.0,0.0,0.0,0.0,0.0,0.0,0.0,0.0,0.0,0.0,-5.2413,-5.3447,0.0,-5.5598,-5.6775,-5.7427,-5.8403,-6.0326,-6.0995,-6.136,-6.123,-6.2283,-6.2986,-6.2986,-6.3688,-6.432,-6.4706,-6.5092,-6.5549,-6.6249,-6.6248,-6.6244,-6.6555,-6.6751,-6.6809,-6.6734,-6.6927,-6.7057,-6.7014,-6.7359,-6.7532,-6.7566,-6.7911,-6.8083,-6.8083,-6.8083,-6.7876,-6.7532,-6.7532,-6.7325,-6.698,-6.6508,-6.5585,-6.4438,-6.4119,-6.3721,-6.3155,0.0,0.0,0.0,-4.1108,-4.2522,-4.3698,-4.3702,-4.5177,-4.6885,-4.8564,-4.8798,-5.0048,-5.3405,-5.3912,-5.5083,-5.7816,-5.9495,-6.1447,-6.3906,-6.42,-6.4987,-6.6575,-6.8318,-6.9295,-6.9403,-7.0948,-7.1813,-7.1893,-7.1893,-7.1916,-7.1952,-7.1796,-7.1708,-7.1766,-7.1572,-7.1334,-7.1106,-7.1106,-7.0452,-6.9327,-6.8522,-6.7462,-6.6112,-6.3638,-6.2205,-6.1272,-5.937,-5.8023,-5.6861,-5.522,-5.3958,-5.2772,-5.1323,-5.0288,-4.9403,-4.863,-4.7821,0.0,0.0,0.0,0.0,0.0,0.0,0.0,0.0,-5.009,-5.095,-5.2437,-5.2726,-5.3297,-5.5274,-5.6152,-5.6918,-5.7882,-5.8911,-5.9972,-6.0928,-6.1953,-6.267,-6.281,-6.3407,-6.3793,-6.3793,-6.4495,-6.5198,-6.5829,-6.6005,-6.6284,-6.691,-6.6872,-6.6795,-6.6786,-6.7184,-6.7454,-6.7454,-6.7886,-6.8083,-6.8083,-6.8083,-6.8083,-6.8083,-6.8083,-6.8083,-6.8083,-6.8083,-6.8083,-6.8083,-6.8083,-6.8083,-6.8083,-6.7638,-6.6758,-6.5551,-6.5013,-6.4715,-6.4431,0.0,0.0,0.0,0.0,0.0,-4.371,-4.3704,-4.5177,-4.6885,-4.8564,-4.8798,-4.9813,-5.2546,-5.3522,-5.5357,-5.8675,-5.9846,-6.1174,-6.3008,-6.3888,-6.4721,-6.5702,-6.7422,-6.867,-6.9364,-7.0358,-7.1189,-7.1893,-7.1893,-7.2228,-7.2847,-7.2068,-7.2018,-7.2619,-7.1843,-7.1334,-7.1106,-7.1106,-7.0452,-6.9327,-6.8522,-6.7462,-6.6112,-6.3638,-6.2515,-6.2046,-6.0172,-5.848,-5.6941,-5.583,-5.4378,-5.296,-5.2706,-5.1966,-5.119,-5.0861,-5.0675,-5.0563,-5.0411,-5.0254,-5.009,-4.9997,-5.0059,-5.0402,0.0,-5.2062,-5.2426,-5.3878,-5.4625,-5.531,-5.6116,-5.6918,-5.7917,-5.9416,-6.0083,-6.0999,-6.245,-6.3115,-6.3723,-6.4355,-6.453,-6.4601,-6.4601,-6.5303,-6.5794,-6.5865,-6.6354,-6.6945,-6.7749,-6.7411,-6.7496,-6.8119,-6.8068,-6.798,-6.798,-6.8049,-6.8083,-6.8083,-6.8083,-6.8083,-6.8083,-6.8083,-6.8083,-6.8083,-6.8083,-6.8083,-6.8083,-6.8083,-6.8083,-6.8083,-6.7638,-6.7373,-6.7087,-6.5963,-6.5155,-6.458,0.0,0.0,0.0,0.0,0.0,-4.3711,-4.371,-4.5182,-4.6729,-4.7939,-4.8525,-4.9618,-5.1726,-5.3639,-5.5552,-5.7465,-5.887,-6.0393,-6.2149,-6.3068,-6.4174,-6.5547,-6.6791,-6.7838,-6.8622,-7.0006,-7.0837,-7.1152,-7.1659,-7.2033,-7.2224,-7.1874,-7.1824,-7.2037,-7.1649,-7.1334,-7.1067,-7.0604,-7.0028,-6.9289,-6.7985,-6.7042,-6.6188,-6.4133,-6.2971,-6.2163,-6.0289,-5.8861,0.0,-5.6694,-5.5467,-5.42,-5.3192,-5.2528,-5.2048,-5.138,-5.1156,-5.1078,-5.0805,-5.1261,-5.1864,-5.1734,-5.2291,-5.3106,-5.3748,-5.3761,-5.394,-5.4871,-5.5666,-5.6295,-5.6973,-5.8096,-5.9166,0.0,-6.0651,-6.1671,-6.2769,-6.3291,-6.3863,-6.4636,-6.4706,-6.4882,-6.5338,-6.5689,-6.6251,-6.7164,-6.7333,-6.7675,-6.8369,-6.81,-6.8007,-6.8241,-6.8162,-6.8083,-6.8083,-6.8083,-6.8083,-6.8083,-6.8083,-6.8083,-6.8083,-6.8083,-6.8083,-6.8083,-6.8083,-6.8083,-6.8083,-6.8083,-6.8083,-6.8083,-6.7638,-6.751,-6.736,-6.6641,-6.617,-6.5831,0.0,0.0,0.0,0.0,0.0,-4.3711,-4.371,-4.5186,-4.6619,-4.7474,-4.8291,-4.9579,-5.1531,-5.3678,-5.5396,-5.6489,-5.7894,-5.9495,-6.1213,-6.2169,-6.3315,-6.4805,-6.5961,-6.6922,-6.7757,-6.9225,-7.0057,-7.0255,-7.0879,-7.1097,-7.1018,-7.1018,-7.093,-7.0796,-7.0796,-7.0638,-7.0373,-6.9794,-6.922,-6.8599,-6.7372,-6.643,-6.5541,-6.4095,-6.2933,-6.186,-6.0478,-5.9276,-5.8223,-5.7185,-5.6143,-5.5062,-5.368,-5.3051,-5.2753,-5.2045,-5.1893,-5.1879,-5.1674,-5.2448,-5.3372,-5.3281,-5.4096,-5.4943,-5.516,-5.5062,-5.5202,-5.6109,-5.6635,-5.719,-5.808,-5.9166,-5.9987,-6.0201,-6.1316,-6.2372,-6.284,-6.3533,-6.4177,-6.4636,-6.4706,-6.5127,-6.611,-6.6181,-6.6742,-6.8112,-6.8173,-6.8299,-6.867,-6.8474,-6.8241,-6.8083,-6.8083,-6.8083,-6.8083,-6.8083,-6.8083,-6.8083,-6.8083,-6.8083,-6.8083,-6.8083,-6.8083,-6.8083,-6.8083,-6.8083,-6.8083,-6.8083,-6.8118,-6.8004,-6.7638,-6.751,-6.7346,-6.698,-6.6812,-6.6745,0.0,0.0,0.0,0.0,0.0,-4.371,-4.3706,-4.5188,-4.659,-4.7474,-4.8291,-4.9774,-5.239,-5.3483,-5.4732,-5.645,-5.7348,-5.8597,-6.031,-6.1271,-6.2143,-6.3047,-6.4711,-6.6053,-6.6912,-6.7732,-6.8574,-6.9319,-6.9358,-6.9353,-6.9267,-6.9267,-6.9181,-6.8974,-6.8974,-6.8857,-6.8675,-6.8636,-6.7988,-6.695,-6.6912,-6.5741,-6.3867,-6.3029,-6.2059,-6.1103,-6.0931,-5.9804,-5.8223,-5.7076,-5.607,-5.5137,-5.4242,-5.3794,-5.3637,-5.3484,-5.3713,-5.4115,-5.4115,-5.452,-5.4953,-5.4953,-5.493,-5.5088,-5.5812,-5.5858,-5.6176,-5.7657,-5.7855,-5.8156,-5.9559,-5.988,-6.0165,-6.095,-6.2256,-6.3101,-6.291,-6.4058,-6.4911,-6.4706,-6.4706,-6.5303,0.0,-6.6988,-6.7304,-6.8147,-6.8513,-6.867,-6.8705,-6.8319,-6.8083,-6.8083,-6.8083,-6.8083,-6.8083,-6.8083,-6.8083,-6.8083,-6.8083,-6.8083,-6.8083,-6.8083,-6.8083,-6.8083,-6.8083,-6.8083,-6.8083,-6.8083,-6.8039,-6.7799,-6.7557,-6.7346,-6.718,-6.6896,-6.6812,-6.6812,0.0,0.0,0.0,0.0,0.0,0.0,-4.3704,-4.5188,-4.6395,-4.6694,-4.7939,0.0,0.0,0.0,0.0,0.0,-5.6177,-5.7504,-5.8675,-6.0061,-6.1245,-6.2109,-6.3235,-6.4275,-6.5155,-6.6522,-6.7364,-6.7641,-6.8773,-6.9275,-6.9189,-6.9189,-6.9104,-6.8897,-6.8897,-6.878,-6.8559,-6.7981,-6.7064,-6.5991,-6.5454,-6.4364,-6.2953,-6.2154,-6.1191,-6.0127,0.0,-5.8861,-5.8223,-5.7076,-5.607,-5.5174,-5.428,-5.3831,-5.3748,-5.4068,-5.4553,-5.4993,-5.4903,-5.5301,-5.5741,-5.5692,-5.6079,-5.65,-5.6717,-5.6689,-5.6732,-5.7221,-5.8017,-5.8749,-5.923,-6.0081,-6.0772,-6.1058,-6.1864,-6.2533,-6.284,-6.3635,-6.4348,-6.4671,-6.4706,0.0,0.0,0.0,0.0,-6.8884,-6.8793,-6.8705,-6.8705,-6.8319,-6.8083,-6.8083,-6.8083,-6.8083,-6.8083,-6.8083,-6.8083,-6.8083,-6.8083,-6.8083,-6.8083,-6.8083,-6.8083,-6.8083,-6.8083,-6.8083,-6.8083,-6.8083,-6.7959,-6.7799,-6.7557,-6.7346,-6.718,-6.6896,-6.6812,-6.6812,0.0,0.0,0.0,0.0,0.0,0.0,0.0,0.0,0.0,0.0,0.0,0.0,0.0,0.0,0.0,0.0,0.0,-5.6528,-5.7387,-5.8733,-5.9917,-6.0781,-6.191,-6.2794,-6.336,-6.5038,-6.5887,-6.5886,-6.6939,-6.7433,-6.7399,-6.7399,-6.7277,-6.7074,-6.7074,-6.6961,-6.6746,-6.6167,-6.5447,-6.4649,-6.4151,-6.3064,-6.1697,-6.1164,-6.0096,0.0,-5.8178,-5.7767,-5.7359,-5.6479,-5.5808,-5.5137,-5.4205,-5.3938,-5.4109,-5.4717,-5.531,-5.5743,-5.565,-5.6091,-5.6527,-5.6428,-5.6826,-5.7188,-5.7188,-5.7138,-5.7144,-5.7381,-5.8088,-5.886,-5.9378,-6.016,-6.0831,-6.1117,-6.1711,-6.2311,-6.2931,-6.3554,-6.4133,-6.4773,-6.4706,-6.5198,0.0,0.0,0.0,-6.927,-6.8967,-6.8705,-6.8705,-6.8319,-6.8083,-6.8083,-6.8083,-6.8083,-6.8083,-6.8083,-6.8083,-6.8083,-6.8083,-6.8083,-6.8083,-6.8083,-6.8083,-6.8083,-6.8083,-6.8083,-6.8083,-6.8004,-6.7879,-6.7638,-6.751,-6.7263,-6.7014,-6.6896,-6.6812,-6.6812,0.0,0.0,0.0,0.0,0.0,0.0,0.0,0.0,0.0,0.0,0.0,0.0,0.0,0.0,0.0,0.0,0.0,0.0,-5.6489,-5.7366,-5.8237,-5.9101,-6.0699,-6.1584,-6.1564,-6.3243,-6.4085,-6.4053,-6.4131,-6.412,-6.4091,-6.4091,-6.3973,-6.3779,-6.3779,-6.3671,-6.3505,-6.3505,-6.333,-6.2962,-6.2962,-6.1802,-6.0091,-6.0091,-5.8881,-5.7219,-5.7083,-5.6455,-5.5676,-5.5396,-5.5286,-5.5025,-5.4014,-5.4072,-5.4675,-5.5397,-5.6017,-5.6489,-5.6441,-5.6843,-5.7188,-5.7188,-5.7188,-5.7188,-5.7188,-5.7188,-5.7355,-5.8047,-5.8175,-5.8627,-6.0032,-6.0152,-6.0325,-6.1113,-6.1783,-6.2388,-6.3022,-6.3676,-6.4261,0.0,0.0,0.0,0.0,0.0,0.0,-6.92,0.0,-6.8705,-6.8705,-6.8319,-6.8083,-6.8083,-6.8083,-6.8083,-6.8083,-6.8083,-6.8083,-6.8083,-6.8083,-6.8083,-6.8083,-6.8083,-6.8083,-6.8083,-6.8083,-6.8083,-6.8083,-6.7879,-6.7638,-6.751,-6.7263,-6.7014,-6.6812,-6.6846,-6.688,-6.688,0.0,0.0,0.0,0.0,0.0,0.0,0.0,0.0,0.0,0.0,0.0,0.0,0.0,0.0,0.0,0.0,0.0,0.0,-5.5513,-5.6468,-5.7339,-5.8203,-5.9215,-5.9748,-5.9768,-6.0822,-6.1666,-6.2258,-6.2921,-6.3535,-6.4091,-6.4091,-6.3973,-6.3779,-6.3779,-6.3671,-6.3505,-6.3505,-6.2637,-6.1237,-6.1237,-6.0043,-5.8272,-5.8272,-5.7446,-5.6252,-5.622,-5.5593,-5.4784,-5.5172,-5.4764,-5.4014,-5.3672,-5.4437,-5.5484,-5.5448,-5.6337,-5.7291,-5.7195,-5.7193,-5.7188,-5.7188,-5.7188,-5.7188,-5.7188,-5.7188,-5.7261,-5.7427,-5.7831,-5.832,-5.87,-5.9168,0.0,-6.0289,-6.0554,0.0,-6.2133,-6.2923,0.0,-6.4027,0.0,-6.516,-6.5794,-6.6567,0.0,0.0,-6.8618,-6.8705,-6.8705,-6.8319,-6.8083,-6.8083,-6.8083,-6.8083,-6.8083,-6.8083,-6.8083,-6.8083,-6.8083,-6.8083,-6.8083,-6.8083,-6.8083,-6.8083,-6.8083,-6.8004,-6.7879,-6.7799,-6.7557,-6.7263,-6.718,-6.7014,-6.688,-6.7421,-6.7624,-6.7692,0.0,0.0,0.0,0.0,0.0,0.0,0.0,0.0,0.0,0.0,0.0,0.0,0.0,0.0,0.0,0.0,0.0,0.0,0.0,-5.4984,-5.5854,-5.6719,-5.7575,-5.8189,-5.8558,-5.9417,-6.0065,-6.0503,-6.101,-6.1431,-6.1834,-6.1834,-6.1719,-6.1569,-6.1513,-6.1407,-6.1267,-6.1246,-6.0535,0.0,0.0,-5.8513,-5.7054,-5.7054,-5.6353,-5.5352,-5.5352,-5.4886,-5.4308,-5.4651,-5.4241,-5.3672,-5.3924,-5.4796,-5.5772,-5.597,-5.6776,-5.7583,-5.7486,-5.7338,-5.7188,-5.7188,-5.7188,-5.7188,-5.7188,-5.7188,-5.7188,-5.7188,-5.75,-5.7882,-5.8244,-5.8519,-5.8988,0.0,0.0,0.0,-6.1557,-6.223,-6.2967,0.0,-6.4203,0.0,-6.5303,-6.6356,-6.7199,0.0,-6.8304,-6.8705,-6.8705,-6.8319,-6.8083,-6.8083,-6.8083,-6.8083,-6.8083,-6.8083,-6.8083,-6.8083,-6.8083,-6.8083,-6.8083,-6.8083,-6.8004,-6.7959,0.0,-6.7879,-6.7638,-6.7557,-6.7598,-6.7656,-6.7573,-6.7608,-6.7861,-6.8267,-6.8436,-6.8417,0.0,0.0,0.0,0.0,0.0,0.0,0.0,0.0,0.0,0.0,-4.7744,-4.8798,0.0,0.0,0.0,0.0,0.0,0.0,0.0,0.0,-5.4214,-5.5078,-5.5856,-5.6624,-5.7387,-5.8168,-5.8621,-5.8747,-5.8858,-5.8897,-5.8915,-5.8904,-5.883,-5.87,-5.8612,-5.8508,-5.8392,-5.8312,-5.8143,-5.7939,-5.7824,-5.7072,-5.6064,0.0,-5.5283,-5.4371,-5.4339,-5.4105,-5.3792,-5.3795,-5.3682,-5.3629,-5.433,-5.4938,-5.5611,-5.6418,-5.7005,-5.7473,-5.7583,-5.7388,-5.7188,-5.7188,-5.7116,-5.7043,-5.7043,-5.6971,-5.6899,-5.6899,-5.6899,-5.7116,-5.7804,-5.7918,-5.8139,-5.8933,0.0,-6.011,-6.1042,-6.1533,-6.2391,-6.3825,-6.3912,-6.4066,-6.4704,-6.611,-6.7023,-6.7023,-6.8059,-6.8705,-6.8705,-6.8319,-6.8083,-6.8083,-6.8083,-6.8083,-6.8083,-6.8083,-6.8083,-6.8083,-6.8083,-6.8083,-6.8083,-6.8083,-6.7959,-6.7799,0.0,0.0,-6.7564,-6.7399,-6.7758,-6.8354,-6.815,-6.8504,-6.9113,-6.9214,-6.9248,-6.9161,0.0,0.0,0.0,0.0,0.0,0.0,0.0,0.0,0.0,0.0,-4.7744,-4.8798,0.0,0.0,0.0,0.0,0.0,0.0,0.0,0.0,0.0,-5.418,-5.4372,-5.4518,-5.4654,-5.5465,-5.623,-5.6953,-5.7627,-5.8277,-5.8915,-5.8829,-5.8789,-5.87,-5.8618,-5.851,-5.8392,-5.8346,-5.7812,-5.6942,-5.6242,-5.5288,-5.4237,-5.3514,0.0,0.0,-5.2376,-5.2211,-5.2113,-5.2714,-5.3199,-5.3518,-5.3665,-5.4091,-5.4766,-5.544,-5.6071,-5.6733,-5.7255,-5.7289,-5.7188,-5.7188,-5.6681,-5.621,-5.621,-5.574,-5.5305,-5.5305,-5.5305,-5.5341,-5.5486,-5.5993,-5.6631,-5.7309,-5.7944,-5.8788,-6.011,-6.0867,-6.1757,0.0,-6.3789,-6.4266,-6.4908,-6.6181,0.0,0.0,0.0,0.0,-6.8705,-6.8319,-6.8083,-6.8083,-6.8083,-6.8083,-6.8083,-6.8083,-6.8083,-6.8083,-6.8083,-6.8083,-6.8083,-6.7959,-6.7879,-6.7799,-6.7638,0.0,-6.8182,-6.8098,-6.8456,-6.8996,-6.891,-6.8977,-6.918,-6.9755,-6.9904,-6.9704,0.0,0.0,0.0,0.0,0.0,0.0,0.0,-4.63,-4.6456,-4.6924,-4.8057,-4.8798,-4.8798,-5.036,-5.1414,0.0,0.0,0.0,0.0,0.0,0.0,-5.3281,-5.3317,-5.3542,-5.399,-5.4372,-5.4747,-5.5159,0.0,-5.5891,-5.6269,-5.664,-5.6795,-5.6722,-5.6609,-5.6521,-5.6406,-5.584,-5.5308,-5.4795,-5.4326,-5.3798,-5.3172,-5.2753,0.0,0.0,-5.1898,-5.1694,-5.1628,-5.1968,-5.2159,-5.2451,-5.3262,-5.3907,-5.4473,-5.4752,-5.5359,-5.5962,-5.6234,-5.6248,-5.6152,-5.6152,-5.5861,-5.5571,-5.5571,-5.5316,-5.5062,-5.5062,-5.5062,-5.5062,-5.4967,-5.5257,-5.568,-5.6364,-5.7057,-5.798,-5.9434,-6.016,-6.12,-6.2951,-6.3329,-6.3907,-6.4873,-6.5899,0.0,0.0,0.0,0.0,-6.867,-6.8319,-6.8083,-6.8083,-6.8083,-6.8083,-6.8083,-6.8083,-6.8083,-6.8083,-6.8004,-6.7925,-6.7959,-6.7719,-6.7762,-6.8056,-6.8008,0.0,-6.871,-6.871,-6.9064,-6.9654,-6.9654,-6.9925,-7.0297,-7.0456,-7.0468,-7.032,0.0,0.0,0.0,0.0,0.0,0.0,-4.63,-4.63,-4.6612,-4.751,-4.8291,-4.8876,-4.9072,-5.0477,-5.1414,0.0,0.0,0.0,0.0,0.0,0.0,0.0,0.0,0.0,-5.3448,0.0,0.0,-5.3637,-5.3791,0.0,0.0,0.0,0.0,0.0,-5.4448,-5.436,-5.4284,-5.3413,-5.3037,0.0,0.0,-5.2513,-5.2334,0.0,0.0,0.0,0.0,-5.117,-5.1068,-5.1223,-5.1119,-5.1194,-5.256,-5.3433,-5.4002,-5.4289,-5.4752,-5.5176,-5.5359,-5.5304,-5.5212,-5.5212,-5.5067,-5.4957,-5.4957,-5.4665,-5.4447,-5.4447,-5.4447,-5.4401,-5.4272,-5.4517,-5.4978,-5.5644,-5.6328,-5.7293,-5.8754,-5.945,-6.0603,-6.2515,-6.286,-6.3412,-6.4693,-6.5476,0.0,0.0,0.0,0.0,0.0,-6.8241,-6.8083,-6.8083,-6.8083,-6.8083,-6.8083,-6.8083,-6.8083,-6.8004,-6.7879,-6.7868,-6.7959,-6.7715,-6.7993,-6.8506,-6.854,0.0,0.0,-6.935,-6.9755,-7.0432,-7.0432,-7.077,-7.1222,-7.1007,-7.0825,-7.0733,0.0,0.0,0.0,0.0,0.0,0.0,-4.63,-4.63,-4.6612,-4.751,-4.8291,-4.9111,-4.9891,-5.0828,-5.1414,0.0,0.0,0.0,0.0,0.0,0.0,0.0,0.0,0.0,0.0,0.0,0.0,-5.274,-5.3446,0.0,0.0,0.0,0.0,0.0,0.0,-5.3454,-5.3397,-5.314,0.0,0.0,0.0,0.0,0.0,0.0,0.0,0.0,0.0,-4.9487,-4.9533,-5.0216,-5.0265,-5.0232,-5.1081,-5.1777,-5.2578,-5.4002,-5.4349,-5.4481,-5.5212,-5.5304,-5.5212,-5.5212,-5.4665,-5.4073,-5.4073,-5.2988,-5.193,-5.193,-5.193,-5.193,-5.193,-5.3044,-5.4189,-5.4942,-5.5546,-5.6428,-5.7891,-5.8716,-5.9659,-6.1129,-6.2249,-6.3264,-6.4114,-6.5228,0.0,0.0,0.0,0.0,0.0,-6.8083,-6.8083,-6.8083,-6.8083,-6.8083,-6.8083,-6.8083,-6.8004,-6.7799,-6.7799,-6.8062,-6.85,-6.8334,-6.8608,-6.9322,-6.9064,0.0,0.0,-7.0094,-7.0534,-7.121,-7.121,-7.1064,-7.0916,-7.0916,-7.0641,-7.027,0.0,0.0,0.0,0.0,0.0,0.0,-4.63,-4.6768,-4.7393,-4.8213,-4.9072,-4.9891,-5.0789,-5.118,-5.1414,-5.1414,-5.1414,0.0,0.0,0.0,0.0,0.0,0.0,0.0,0.0,0.0,-5.1882,-5.1882,-5.2113,0.0,0.0,0.0,0.0,0.0,0.0,-5.2587,-5.2548,-5.1795,0.0,0.0,0.0,0.0,0.0,0.0,0.0,0.0,0.0,0.0,-4.86,-4.9388,-4.9514,-4.9488,-5.0232,-5.0563,-5.1001,-5.2495,-5.2889,-5.303,-5.3836,-5.4012,-5.3902,-5.339,-5.306,-5.2694,-5.2175,-5.1595,-5.1119,-5.1119,-5.1119,-5.1224,-5.1658,-5.2193,-5.2943,-5.408,-5.4858,-5.5799,-5.7221,-5.8394,-5.9629,-6.1091,-6.2204,0.0,0.0,0.0,0.0,0.0,0.0,0.0,0.0,-6.8083,-6.8083,-6.8083,-6.8083,-6.8083,-6.8083,-6.7959,-6.7879,-6.7799,-6.8002,-6.8213,-6.847,-6.8693,-6.9218,-6.9931,-6.9843,0.0,0.0,-7.0872,-7.1041,-7.1312,-7.1131,-7.1007,-7.0825,-7.0549,-7.0363,-7.0176,0.0,0.0,0.0,0.0,0.0,-4.63,-4.63,-4.7042,-4.79,-4.8681,-4.9579,-5.0438,-5.1297,-5.1414,-5.1414,-5.1414,-5.1414,0.0,0.0,0.0,0.0,0.0,0.0,0.0,0.0,0.0,-5.1414,-5.1414,-5.1256,-5.1211,0.0,0.0,-5.1953,-5.1953,0.0,0.0,0.0,0.0,0.0,0.0,0.0,0.0,0.0,0.0,0.0,0.0,0.0,0.0,0.0,0.0,0.0,-4.8298,-4.9082,-4.9196,-4.9492,-5.1179,-5.1687,-5.1756,-5.2344,-5.2491,-5.2344,-5.1793,-5.1646,-5.1499,-5.0949,-5.0618,-5.0435,-5.0435,-5.0435,-5.0578,-5.1046,-5.148,-5.2163,-5.3335,-5.4335,-5.5402,-5.6479,-5.8124,-5.9562,-6.0504,0.0,0.0,0.0,0.0,0.0,0.0,0.0,0.0,0.0,-6.8083,-6.8083,-6.8083,-6.8083,-6.8083,-6.8004,-6.7879,-6.7822,-6.798,-6.8198,-6.8506,-6.8863,-6.9267,-6.9823,-7.0534,-7.0534,0.0,0.0,-7.1312,-7.1222,-7.1131,-7.1007,-7.0825,-7.0641,-7.027,-7.0176,-7.0082,0.0,0.0,0.0,0.0,0.0,-4.63,-4.63,-4.7042,-4.79,-4.8681,-4.9579,-5.0438,-5.1297,-5.1414,-5.1414,-5.1414,-5.1414,0.0,0.0,0.0,0.0,0.0,0.0,0.0,0.0,0.0,-5.1414,-5.1414,-5.1256,-5.1211,-5.1211,-5.1127,-5.1101,-5.1087,0.0,0.0,0.0,0.0,-5.05,0.0,0.0,0.0,0.0,0.0,0.0,0.0,0.0,0.0,0.0,0.0,0.0,0.0,0.0,-4.7601,-4.8048,-5.0264,-5.0882,-5.0802,-5.0839,-5.0839,-5.0839,-5.0802,-5.0802,-5.0802,-5.0802,-5.0178,-4.9591,-4.9591,-4.9591,-4.9591,-4.9591,-5.0831,-5.2023,-5.2696,-5.4018,-5.5184,-5.5735,-5.7765,-5.9166,0.0,0.0,0.0,0.0,0.0,0.0,0.0,0.0,0.0,0.0,0.0,-6.8083,-6.8083,-6.8083,-6.8004,-6.7799,-6.7799,-6.7933,-6.8268,-6.8268,-6.8965,-7.0161,-7.0161,-7.0601,0.0,0.0,0.0,0.0,-7.1312,-7.1131,-7.0916,-7.0916,-7.0641,-7.0209,-7.0176,-6.9988,-6.9798,0.0,0.0,0.0,0.0,0.0,0.0,-4.63,-4.751,-4.8525,-4.8759,-5.0087,-5.1102,-5.1375,-5.1414,-5.1414,-5.1414,-5.1414,0.0,0.0,0.0,0.0,0.0,0.0,0.0,0.0,-5.1391,-5.1414,-5.1414,-5.1256,-5.1211,-5.1211,-5.1127,-5.1087,-5.102,-5.088,-5.0738,0.0,-5.0563,-5.0412,0.0,0.0,0.0,0.0,0.0,0.0,0.0,0.0,0.0,0.0,0.0,0.0,0.0,0.0,0.0,0.0,-4.7568,-4.8864,-5.0227,-5.0816,-5.1001,-5.0853,-5.0264,-5.0116,-4.9969,-4.9416,-4.9047,-4.8862,-4.8862,-4.8785,-4.8893,-4.9481,-5.0431,-5.1302,-5.1901,-5.3745,-5.5145,-5.5147,-5.7493,0.0,0.0,0.0,0.0,0.0,0.0,0.0,0.0,0.0,0.0,0.0,0.0,-6.8083,-6.8083,-6.7959,-6.7879,-6.7799,-6.7988,-6.8198,-6.8302,-6.9151,-6.9809,-7.0195,-7.0737,-7.1075,0.0,0.0,0.0,0.0,-7.1007,-7.0825,-7.0608,-7.0456,-7.0363,-7.0176,-6.9988,-6.9893,-6.9864,0.0,0.0,0.0,0.0,0.0,0.0,-4.63,-4.7705,-4.8798,-4.8798,-5.0321,-5.1414,-5.1414,-5.1414,-5.1414,-5.1414,-5.1414,0.0,0.0,0.0,0.0,0.0,0.0,0.0,-5.1414,-5.1391,-5.1414,-5.1414,-5.1256,-5.1211,-5.1211,-5.1127,-5.1073,-5.1005,-5.088,-5.072,0.0,-5.0462,-5.0283,-5.0051,0.0,0.0,-4.8045,0.0,0.0,0.0,0.0,0.0,0.0,0.0,0.0,0.0,0.0,0.0,0.0,0.0,-4.7416,-4.8715,-4.9492,-4.9713,-4.964,-4.9418,-4.9344,-4.9233,-4.8716,-4.8569,-4.8532,-4.8494,-4.8419,-4.8528,-4.9003,-5.0031,-5.0867,-5.1134,-5.3425,-5.5119,-5.4955,0.0,0.0,0.0,0.0,0.0,0.0,0.0,0.0,0.0,0.0,0.0,0.0,0.0,-6.8118,-6.8039,-6.7879,-6.7937,-6.813,-6.8198,-6.8574,-6.9067,-6.9809,-7.0331,-7.0635,-7.1109,-7.1312,0.0,0.0,0.0,0.0,-7.0825,-7.0641,-7.0363,-7.027,-7.0082,-6.9988,-6.9893,-6.9868,-7.007,0.0,0.0,0.0,0.0,0.0,0.0,0.0,-4.774,-4.8833,-4.8873,-5.0356,-5.141,-5.141,-5.1414,-5.1414,-5.1414,-5.1414,0.0,0.0,0.0,0.0,0.0,0.0,0.0,-5.1414,-5.1391,-5.1414,-5.1414,-5.1256,-5.1211,-5.1201,-5.1127,-5.1073,-5.099,-5.088,-5.072,-5.0567,-5.0374,-5.0212,-5.0012,-4.9062,-4.8124,0.0,0.0,0.0,0.0,0.0,0.0,0.0,0.0,0.0,0.0,0.0,0.0,0.0,0.0,0.0,0.0,0.0,-4.7311,-4.7533,-4.8272,-4.8494,-4.8531,-4.8531,-4.8605,0.0,-4.8532,-4.8494,-4.8494,-4.8418,-4.9701,-5.0758,-5.0623,-5.3207,-5.5156,-5.51,-5.7546,0.0,0.0,0.0,0.0,0.0,0.0,0.0,0.0,0.0,0.0,0.0,0.0,-6.8004,-6.7799,-6.7834,-6.8049,-6.8569,-6.8421,-6.8999,-7.0195,-7.0229,-7.0635,-7.1312,-7.1312,-7.1312,0.0,0.0,0.0,0.0,-7.0608,-7.0363,-7.0176,-7.0176,-6.9988,-6.9798,-6.9864,-7.0103,-7.0502,0.0,0.0,0.0,0.0,0.0,0.0,0.0,0.0,0.0,0.0,-5.0723,-5.1386,-5.1386,-5.1396,-5.1401,0.0,0.0,0.0,0.0,0.0,0.0,0.0,0.0,0.0,-5.1414,-5.1391,-5.1414,-5.1414,-5.1256,-5.1201,-5.1219,-5.1114,-5.1044,-5.0913,-5.0846,-5.0682,-5.0483,-5.0306,-5.0163,-4.9974,-4.8416,-4.7593,0.0,0.0,0.0,0.0,-4.4524,-4.4468,0.0,0.0,0.0,0.0,0.0,0.0,0.0,0.0,-4.4581,-4.4766,-4.5588,0.0,-4.6743,-4.6928,-4.7448,-4.7893,0.0,-4.8377,-4.8751,-4.8715,-4.8606,-4.8678,-4.9266,-5.0144,-5.1124,-5.2083,-5.39,-5.5556,-5.655,0.0,0.0,0.0,0.0,0.0,0.0,0.0,0.0,0.0,0.0,0.0,0.0,0.0,-6.8004,-6.7799,-6.8186,-6.8432,-6.8352,-6.871,-6.9369,-7.0195,-7.077,-7.1142,-7.1312,-7.1312,-7.1222,0.0,0.0,0.0,-7.0363,-7.027,-7.0082,-6.9893,-6.9893,-6.9893,-6.9864,-7.0235,-7.0435,-7.0568,0.0,0.0,0.0,0.0,0.0,0.0,0.0,0.0,0.0,0.0,-5.0868,-5.1414,-5.1414,-5.1391,-5.1396,0.0,0.0,0.0,0.0,0.0,0.0,0.0,-5.1403,-5.1391,-5.1414,-5.1391,-5.1414,-5.1414,-5.1256,-5.1201,-5.1208,-5.1114,-5.1044,-5.088,-5.074,-5.0624,-5.05,-5.0236,-5.0114,-4.9949,-4.8163,0.0,0.0,0.0,0.0,0.0,-4.4496,-4.4496,0.0,-4.4411,-4.4383,-4.4383,0.0,0.0,0.0,0.0,-4.4116,-4.4197,-4.4681,-4.5356,-4.603,-4.6401,-4.7107,-4.7701,-4.7701,-4.8298,-4.8857,-4.8822,-4.8975,-4.9195,-4.9636,-5.0625,-5.1674,-5.2667,-5.4155,-5.5873,0.0,0.0,0.0,0.0,0.0,0.0,0.0,0.0,0.0,0.0,0.0,0.0,0.0,0.0,-6.7879,-6.7638,-6.8193,-6.8607,-6.8812,-6.9301,-6.9958,-7.0703,-7.1109,-7.1312,-7.1312,-7.1222,-7.1007,0.0,0.0,0.0,-7.0176,-7.0082,-6.9893,-6.9798,-6.9798,-6.9901,-7.0136,-7.0435,-7.07,-7.1189,0.0,0.0,0.0,0.0,0.0,0.0,0.0,0.0,0.0,0.0,0.0,0.0,0.0,0.0,0.0,0.0,0.0,0.0,0.0,0.0,0.0,-5.1406,-5.1403,-5.1391,-5.1414,-5.1391,-5.1414,-5.1414,-5.1256,-5.119,-5.1159,-5.114,-5.1029,-5.0863,-5.0624,-5.05,-5.0478,-5.0188,-5.0089,-4.9949,-4.8112,0.0,0.0,0.0,0.0,0.0,0.0,0.0,0.0,-4.429,-4.4224,-4.4224,-4.3988,0.0,0.0,0.0,0.0,0.0,-4.4214,-4.4675,-4.5319,-4.6104,-4.6921,-4.7553,-4.7664,-4.8333,-4.8892,-4.897,-4.9418,-4.9861,-5.0043,-5.125,-5.2407,-5.3069,-5.4692,0.0,0.0,0.0,0.0,0.0,0.0,0.0,0.0,0.0,0.0,0.0,0.0,0.0,0.0,0.0,0.0,-6.751,-6.8164,-6.8778,-6.9338,-6.9911,-7.0567,-7.1312,-7.1312,-7.1312,-7.1222,-7.1007,-7.0825,-7.0733,0.0,0.0,-7.0082,-6.9893,-6.9798,-6.9798,-6.9931,-7.0136,-7.0535,-7.0634,-7.1189,-7.1857,0.0,0.0,0.0,0.0,0.0,0.0,0.0,0.0,0.0,0.0,0.0,0.0,0.0,0.0,0.0,0.0,0.0,0.0,0.0,0.0,0.0,-5.14,-5.1405,-5.1391,-5.1414,-5.1391,-5.1414,-5.1414,-5.1256,-5.118,-5.1125,-5.1089,-5.0975,-5.0812,-5.0604,-5.05,-5.0478,-5.0188,-5.0089,-4.9949,-4.8112,0.0,0.0,0.0,0.0,0.0,0.0,0.0,0.0,-4.3707,-4.3482,-4.3342,-4.251,0.0,0.0,0.0,0.0,0.0,-4.4304,-4.4349,-4.4617,-4.5319,-4.6104,-4.6847,-4.7553,-4.8333,-4.9113,-4.9746,-4.9861,-5.0231,-5.1632,-5.2504,-5.3396,-5.4638,0.0,0.0,0.0,0.0,0.0,0.0,0.0,0.0,0.0,0.0,0.0,0.0,0.0,0.0,0.0,0.0,0.0,-6.751,-6.8591,-6.9203,-6.92,-6.9823,-7.0567,-7.1312,-7.1312,-7.1222,-7.0916,-7.0916,-7.0641,-7.027,0.0,-7.0082,-6.9893,-6.9798,-6.9798,-6.9864,-7.0268,-7.0403,-7.0536,-7.1349,-7.1662,-7.1818,0.0,0.0,0.0,0.0,0.0,0.0,0.0,0.0,0.0,0.0,0.0,0.0,0.0,0.0,0.0,0.0,0.0,0.0,0.0,-5.141,-5.1382,-5.1398,-5.1406,-5.1398,-5.1414,-5.1391,-5.1414,-5.1414,-5.1256,-5.118,-5.1125,-5.0981,-5.0897,-5.0773,-5.0604,-5.05,-5.0478,-5.0188,-5.0089,-4.9949,0.0,0.0,0.0,0.0,0.0,0.0,0.0,0.0,0.0,0.0,-4.3294,-4.3144,-4.2227,0.0,0.0,0.0,0.0,0.0,-4.4354,-4.4325,-4.4603,-4.5743,-4.6313,-4.6764,-4.7516,-4.8667,-4.967,-5.0042,-5.0676,-5.1562,-5.2742,0.0,-5.4473,-5.6207,0.0,0.0,0.0,0.0,0.0,0.0,0.0,0.0,0.0,0.0,0.0,0.0,0.0,0.0,0.0,0.0,0.0,0.0,-6.8846,-6.9369,-6.9688,-7.0432,-7.0973,-7.1312,-7.1131,-7.1007,-7.0916,-7.0641,-7.0363,-7.0176,0.0,-6.9893,-6.9798,-6.9798,-6.9934,-7.0235,-7.0468,-7.0765,-7.1284,-7.1916,-7.2201,-7.2161,0.0,0.0,0.0,0.0,0.0,0.0,0.0,0.0,0.0,0.0,0.0,0.0,0.0,0.0,0.0,0.0,0.0,0.0,0.0,-5.1098,-5.1187,-5.1394,-5.1404,-5.1403,-5.1414,-5.1391,-5.1414,-5.1414,-5.1256,-5.1169,-5.1101,-5.089,-5.0812,-5.0773,-5.0604,-5.05,-5.0478,-5.0188,-5.0089,-4.9949,0.0,0.0,0.0,0.0,0.0,0.0,0.0,0.0,0.0,0.0,0.0,0.0,0.0,0.0,0.0,-4.2994,-4.368,-4.4411,-4.4411,-4.4533,-4.4961,-4.6389,-4.6663,-4.6866,-4.7843,-4.9148,-5.0226,-5.0376,-5.1602,-5.2934,-5.3665,0.0,0.0,0.0,0.0,0.0,0.0,0.0,0.0,0.0,0.0,0.0,0.0,0.0,0.0,0.0,0.0,0.0,0.0,0.0,0.0,0.0,-6.8965,-6.9451,-7.0195,-7.0939,-7.1312,-7.1222,-7.1007,-7.0825,-7.0733,-7.0363,-7.0176,-7.0082,-6.9893,-6.9798,-6.9798,-6.9703,-7.0037,-7.0502,-7.0601,-7.112,-7.2046,-7.2388,-7.2508,-7.2401,0.0,0.0,0.0,0.0,0.0,0.0,0.0,0.0,0.0,0.0,0.0,0.0,0.0,0.0,0.0,0.0,0.0,0.0,0.0,-5.0196,-5.0555,-5.1379,-5.1402,-5.1403,-5.1414,-5.1396,-5.1386,-5.1414,-5.1256,-5.1159,-5.1101,-5.0897,-5.0812,-5.0773,-5.0604,-5.05,-5.0478,-5.0188,-5.0089,-4.9949,-4.8112,0.0,0.0,0.0,0.0,0.0,0.0,0.0,0.0,0.0,0.0,0.0,0.0,0.0,-4.2066,-4.2066,-4.323,-4.4468,-4.4468,-4.5031,-4.5781,-4.6593,-4.6725,-4.7111,-4.8654,-4.9697,-5.0482,-5.1156,-5.253,-5.3822,-5.4478,0.0,0.0,0.0,0.0,0.0,0.0,0.0,0.0,0.0,0.0,0.0,0.0,0.0,0.0,0.0,0.0,0.0,0.0,0.0,0.0,0.0,0.0,-6.9451,-7.0195,-7.0939,-7.1222,-7.0916,-7.0916,-7.0641,-7.027,-7.0176,-7.0082,-6.9798,-6.9798,-6.9798,-6.9798,-6.9478,-6.9843,-7.0568,-7.0659,-7.1493,-7.2411,-7.2476,-7.2294,-7.2079,0.0,0.0,0.0,0.0,0.0,0.0,0.0,0.0,0.0,0.0,0.0,-5.1304,-5.132,0.0,0.0,0.0,0.0,0.0,-5.0054,-5.0108,-5.0508,-5.1375,-5.1396,-5.1406,-5.1391,-5.1406,-5.1386,-5.1414,-5.123,-5.1113,-5.1101,-5.0897,-5.0812,-5.0773,-5.0604,-5.05,-5.0478,-5.0188,-5.0089,-4.9987,-4.8719,-4.787,0.0,0.0,0.0,0.0,0.0,0.0,0.0,0.0,-4.1991,-4.1717,-4.0103,-4.0703,-4.1991,-4.1991,-4.3219,-4.4496,-4.4496,-4.5097,-4.5923,-4.6719,-4.7702,-4.869,-4.965,-5.0514,-5.1264,-5.2046,-5.3423,-5.5013,-5.662,0.0,0.0,0.0,0.0,0.0,0.0,0.0,0.0,0.0,0.0,0.0,0.0,0.0,0.0,0.0,0.0,0.0,0.0,0.0,0.0,0.0,0.0,-6.9688,-7.0872,-7.0996,-7.0916,-7.0608,-7.0608,-7.0456,-7.0176,-6.9988,-6.9893,-6.9798,-6.9798,-6.9703,-6.9544,-6.9876,-7.0305,-7.0793,-7.1558,-7.2128,-7.2508,-7.2294,-7.2187,-7.2079,0.0,0.0,0.0,0.0,0.0,0.0,0.0,0.0,-5.122,0.0,0.0,0.0,0.0,-5.0299,0.0,0.0,0.0,0.0,-4.9229,-4.9557,-5.0074,-5.0945,-5.1235,-5.1405,-5.1398,-5.1414,-5.1391,-5.1414,-5.122,-5.1139,-5.1101,-5.0913,-5.0829,-5.0773,-5.0604,-5.05,-5.0478,-5.0212,-5.0114,-5.0025,-4.9086,-4.82,0.0,0.0,0.0,0.0,0.0,0.0,0.0,0.0,-4.1991,-4.1717,-4.0103,-4.0703,-4.1991,-4.1991,-4.3219,-4.4496,-4.4496,-4.5284,-4.6261,-4.6861,-4.8438,-5.0059,-5.0717,-5.1439,-5.219,-5.2939,-5.4501,-5.6348,-5.8363,-5.9164,0.0,0.0,0.0,0.0,0.0,0.0,0.0,0.0,0.0,0.0,0.0,0.0,0.0,0.0,0.0,0.0,0.0,0.0,0.0,0.0,-6.9338,-6.9823,-7.1312,-7.1007,-7.0733,-7.0515,-7.0423,-7.027,-7.0082,-6.9893,-6.9798,-6.9798,-6.9703,-6.9607,-6.9448,-6.9977,-7.0564,-7.1065,-7.2128,-7.2508,-7.2508,-7.2187,-7.2079,-7.1862,0.0,0.0,0.0,0.0,0.0,0.0,0.0,0.0,-5.1211,-5.1211,-5.1211,0.0,0.0,0.0,0.0,0.0,0.0,0.0,-4.7435,-4.8309,-4.9176,-5.0044,-5.0923,-5.1405,-5.1398,-5.1385,-5.1401,-5.1414,-5.1278,-5.1163,-5.1101,-5.0945,-5.0863,-5.0773,-5.0604,-5.05,-5.05,-5.0283,-5.0163,-5.0025,-4.9176,-4.8251,-4.7302,0.0,0.0,0.0,0.0,0.0,0.0,0.0,-4.2018,-4.1717,-4.0103,-4.0703,-4.2018,-4.2018,-4.3182,-4.4496,-4.4496,-4.5735,-4.7012,-4.7012,-4.8852,-5.0917,-5.1705,-5.2503,-5.3225,-5.387,-5.58,-5.7783,-5.9361,-6.0186,0.0,0.0,0.0,0.0,0.0,0.0,0.0,0.0,0.0,0.0,0.0,0.0,0.0,0.0,0.0,0.0,0.0,0.0,0.0,0.0,-6.9338,-6.9823,-7.1312,-7.1007,-7.0733,-7.0515,-7.027,-7.0082,-6.9798,-6.9798,-6.9798,-6.9798,-6.9511,-6.9415,-6.9448,-6.9614,-7.035,-7.1504,-7.2217,-7.2508,-7.2508,-7.2187,-7.1862,-7.1534,0.0,0.0,0.0,0.0,0.0,0.0,0.0,0.0,-5.1197,-5.118,-5.118,0.0,0.0,0.0,0.0,0.0,0.0,0.0,-4.7457,-4.7747,-4.8543,-5.0044,-5.0337,-5.0779,-5.1402,-5.1414,-5.1369,-5.132,-5.1249,-5.1163,-5.1101,-5.096,-5.0841,-5.0773,-5.0645,-5.0545,-5.05,-5.0344,-5.0188,-5.0063,-4.9784,-4.8745,-4.7378,0.0,0.0,0.0,0.0,0.0,0.0,0.0,0.0,0.0,-4.0188,-4.0791,-4.2146,-4.2146,-4.3314,-4.4632,-4.4632,-4.5865,0.0,-4.7146,-4.9386,-5.1657,-5.192,-5.2986,-5.4387,-5.6181,-5.7475,-5.872,-6.0211,-6.0997,0.0,0.0,0.0,0.0,0.0,0.0,0.0,0.0,0.0,0.0,0.0,0.0,0.0,0.0,0.0,0.0,0.0,0.0,0.0,0.0,-6.9252,-6.9823,-7.1312,-7.0825,-7.0608,-7.0515,-7.0049,-6.9893,-6.9798,-6.9798,-6.9703,-6.9478,-6.9382,-6.9484,-6.9647,-7.0582,-7.1447,-7.2217,-7.2411,-7.2401,-7.2187,-7.1862,-7.1534,-7.1377,0.0,0.0,0.0,0.0,0.0,0.0,-5.1202,-5.1202,-5.1202,-5.1186,-5.1197,-5.0897,0.0,0.0,0.0,-4.747,-4.6653,0.0,-4.6943,-4.7312,-4.7952,-4.9032,-4.9745,-5.0505,-5.1396,-5.1406,-5.1362,-5.132,-5.122,-5.1186,-5.1075,-5.1005,-5.0874,-5.0773,-5.0682,-5.0566,-5.05,-5.039,-5.0236,-5.0114,-5.0063,-4.8998,-4.7467,0.0,0.0,0.0,0.0,0.0,0.0,0.0,0.0,0.0,-4.0637,-4.1127,-4.2184,-4.2184,-4.3391,-4.4787,-4.5127,-4.6183,0.0,0.0,-4.9927,-5.2429,-5.3677,0.0,0.0,0.0,-5.8524,-5.9589,-6.0663,0.0,0.0,0.0,0.0,0.0,0.0,0.0,0.0,0.0,0.0,0.0,0.0,0.0,0.0,0.0,0.0,0.0,0.0,0.0,0.0,0.0,-6.9166,-6.9735,-7.1098,-7.0699,-7.0423,-7.0363,-6.9988,-6.9798,-6.9798,-6.9798,-6.9703,-6.9415,-6.9517,-6.9647,-7.0025,-7.1058,-7.1828,-7.2508,-7.2401,-7.2294,-7.2079,-7.1644,-7.1473,-7.168,0.0,0.0,-5.119,-5.119,0.0,0.0,-5.119,-5.119,-5.119,-5.119,-5.1202,-5.0825,0.0,0.0,0.0,-4.7345,-4.6614,-4.6201,-4.6196,-4.6955,-4.7406,-4.751,-4.915,-5.0464,-5.1261,-5.1362,-5.138,-5.1317,-5.1248,-5.1169,-5.1114,-5.1048,-5.0945,-5.0773,-5.0682,-5.0586,-5.05,-5.0435,-5.0344,-5.0188,-5.0114,-4.9087,-4.7593,-4.7441,0.0,0.0,0.0,0.0,0.0,0.0,0.0,0.0,-4.1378,-4.168,-4.2359,-4.2359,-4.3492,-4.4889,-4.5682,0.0,0.0,0.0,0.0,0.0,0.0,0.0,0.0,0.0,0.0,-6.038,-6.0907,0.0,0.0,0.0,0.0,0.0,0.0,0.0,0.0,0.0,0.0,0.0,0.0,0.0,0.0,0.0,0.0,0.0,0.0,0.0,0.0,0.0,-6.9166,-6.9701,-7.0916,-7.0608,-7.0456,0.0,-6.9893,-6.9798,-6.9798,-6.9798,-6.9574,-6.9351,-6.9647,-6.9993,-7.0468,-7.1213,-7.1893,-7.2401,-7.2187,-7.2079,-7.197,-7.1424,-7.1617,-7.2108,0.0,0.0,-5.1127,-5.1127,0.0,0.0,-5.1127,-5.1127,-5.1127,-5.1127,-5.1127,-5.0557,-4.9038,-4.8727,0.0,-4.6523,-4.623,-4.6138,-4.6201,-4.6359,-4.6777,-4.7484,-4.9163,-5.0195,-5.0379,-5.1054,-5.138,-5.1369,-5.1256,-5.1169,-5.1114,-5.1114,-5.0975,-5.0812,-5.0756,-5.0645,-5.05,-5.0478,-5.039,-5.0188,-5.0114,-4.9467,-4.8428,-4.7669,-4.6771,0.0,0.0,0.0,0.0,0.0,0.0,0.0,-4.2366,-4.2669,-4.3388,-4.3388,-4.407,-4.4903,-4.5092,-4.6228,0.0,0.0,0.0,0.0,0.0,0.0,0.0,0.0,0.0,0.0,0.0,0.0,0.0,0.0,0.0,0.0,0.0,0.0,0.0,0.0,0.0,0.0,0.0,0.0,0.0,0.0,0.0,0.0,0.0,0.0,0.0,-6.9132,-6.9079,-6.9701,-7.0916,-7.0608,-7.0456,0.0,-6.9893,-6.9703,-6.9511,-6.9511,-6.9188,-6.8863,-6.9798,-7.0345,-7.05,-7.1763,-7.224,-7.2187,-7.2079,-7.1862,-7.1424,-7.1203,-7.1537,-7.1895,0.0,0.0,0.0,0.0,0.0,0.0,0.0,0.0,-5.1101,-5.1089,-5.1089,-5.0442,-4.8771,-4.8615,0.0,0.0,-4.6095,-4.6113,-4.6185,-4.6183,-4.661,-4.7455,-4.8384,-4.9296,-5.0072,-5.0559,-5.0962,-5.1414,-5.1312,-5.1201,-5.1163,-5.1127,-5.1029,-5.0846,-5.0829,-5.0721,-5.0542,-5.0521,-5.0435,-5.0298,-5.0163,-4.9632,-4.8783,-4.8251,-4.729,-4.6127,-4.5672,0.0,0.0,0.0,0.0,0.0,0.0,0.0,-4.3701,-4.3701,-4.427,-4.499,-4.5407,0.0,0.0,0.0,0.0,0.0,0.0,0.0,0.0,0.0,0.0,0.0,0.0,0.0,0.0,0.0,0.0,0.0,0.0,0.0,0.0,0.0,0.0,0.0,0.0,0.0,0.0,0.0,0.0,0.0,0.0,-6.751,-6.8027,-6.9045,-6.9113,-6.9613,-7.0699,-7.0515,-7.033,-6.9988,-6.9893,-6.9607,-6.9188,-6.9091,-6.9092,-6.9186,-7.002,-7.0598,-7.0986,-7.1949,-7.2187,-7.2079,-7.1753,-7.1534,-7.1235,-7.1361,-7.1705,-7.217,0.0,0.0,0.0,0.0,0.0,0.0,0.0,0.0,0.0,-5.1087,-5.1087,-5.0441,-4.8761,-4.858,-4.7905,0.0,0.0,0.0,-4.6177,-4.6169,-4.6527,-4.7276,-4.7486,-4.8318,-4.9839,-5.0019,-5.0542,-5.1414,-5.132,-5.1269,-5.1219,-5.1114,-5.1044,-5.0897,-5.0846,-5.074,-5.0584,-5.0521,-5.0457,-5.039,-5.0236,-4.9782,-4.9099,-4.8897,-4.7909,-4.6607,-4.6341,-4.5773,-4.5103,-4.4952,0.0,0.0,0.0,0.0,-4.3929,-4.3929,-4.4383,-4.5066,-4.5786,0.0,-4.8211,-5.1547,0.0,0.0,0.0,0.0,0.0,0.0,0.0,0.0,0.0,0.0,0.0,0.0,0.0,0.0,0.0,0.0,0.0,0.0,0.0,0.0,0.0,0.0,0.0,0.0,0.0,0.0,0.0,-6.751,-6.8027,-6.9045,-6.9113,-6.9524,-7.0515,-7.0423,-7.0236,-6.9798,-6.9703,-6.9382,-6.8896,-6.8699,-6.8891,-6.9639,-7.0182,-7.0792,-7.1367,-7.1896,-7.2079,-7.1862,-7.1424,-7.1203,-7.1187,-7.1547,-7.2013,-7.2324,0.0,0.0,0.0,0.0,0.0,0.0,0.0,0.0,0.0,0.0,-5.102,-5.0361,-4.8697,-4.8528,-4.7854,-4.6158,-4.6056,-4.6095,-4.6122,0.0,0.0,-4.6456,-4.7201,-4.8039,-4.8941,-4.9706,-5.0542,-5.1414,-5.132,-5.1278,-5.1201,-5.1127,-5.102,-5.089,-5.0808,-5.072,-5.0606,-5.0542,-5.0457,-5.039,-5.0236,-5.0111,-4.9935,-4.9175,-4.8707,-4.8277,-4.6833,-4.6177,-4.5899,-4.5141,-4.4838,0.0,0.0,0.0,-4.4724,-4.4724,-4.4838,-4.4914,0.0,0.0,-4.8211,0.0,-5.2419,-5.3101,0.0,0.0,0.0,0.0,0.0,0.0,0.0,0.0,0.0,0.0,0.0,0.0,0.0,0.0,0.0,0.0,0.0,0.0,0.0,0.0,0.0,0.0,0.0,0.0,-6.7475,-6.751,-6.8027,-6.9045,-6.8904,-6.9346,-7.0515,-7.0363,-7.0082,-6.9798,-6.9285,-6.8994,-6.86,-6.8401,-6.8691,-6.9436,-7.0079,-7.0688,-7.1049,-7.1789,-7.1753,-7.1314,-7.1203,-7.1092,-7.0852,-7.1206,-7.175,-7.2324,0.0,0.0,0.0,0.0,0.0,0.0,0.0,0.0,0.0,0.0,0.0,-5.0496,-4.9315,-4.8748,-4.796,-4.6845,-4.6324,-4.6056,-4.6113,-4.6144,-4.6226,-4.6245,-4.6647,-4.7252,-4.8125,-4.897,-4.984,-5.0678,-5.1076,-5.1265,-5.1211,-5.1125,-5.1037,-5.0937,-5.0863,-5.0738,-5.0664,-5.0584,-5.0521,-5.0457,-5.0367,-5.0259,-5.0149,-4.9782,-4.9314,-4.8745,-4.8022,-4.7148,-4.625,-4.587,-4.5413,-4.5033,-4.5033,0.0,0.0,0.0,-4.5033,-4.5223,-4.6149,-4.6947,-4.8201,0.0,-5.2134,-5.3006,-5.4996,0.0,0.0,0.0,0.0,0.0,0.0,0.0,0.0,0.0,0.0,0.0,0.0,0.0,0.0,0.0,0.0,0.0,0.0,0.0,0.0,0.0,0.0,-6.8241,-6.7557,-6.751,-6.8027,-6.9045,-6.8816,-6.9312,-7.0515,-7.027,-6.9988,-6.9607,-6.8994,-6.8699,-6.86,-6.8301,-6.8816,-6.9917,-7.0034,-7.0671,-7.1628,-7.1625,-7.1424,-7.1203,-7.0981,-7.101,-7.1194,-7.1656,-7.2081,-7.2444,0.0,0.0,0.0,0.0,0.0,0.0,0.0,0.0,0.0,0.0,0.0,-5.0587,-4.9761,0.0,0.0,0.0,-4.6678,-4.6268,-4.6113,-4.6169,-4.6209,-4.6187,-4.6249,-4.6703,-4.7575,-4.8469,-4.9302,-5.0098,-5.0894,-5.1281,-5.1211,-5.1109,-5.1076,-5.102,-5.0897,-5.0773,-5.072,-5.0875,-5.087,-5.0828,-5.0971,-5.0979,-5.0846,-5.0631,-5.0125,-4.9504,-4.9086,-4.8134,-4.7006,-4.6777,-4.613,-4.5445,-4.5445,-4.5293,0.0,0.0,0.0,-4.5483,0.0,0.0,-4.8199,-5.0696,-5.195,-5.2845,0.0,0.0,0.0,0.0,0.0,0.0,0.0,0.0,0.0,0.0,0.0,0.0,0.0,0.0,0.0,0.0,0.0,0.0,0.0,0.0,0.0,0.0,0.0,-6.8319,-6.7557,-6.751,-6.7925,-6.8741,-6.8715,-6.9122,-7.0214,-7.0076,-6.9798,-6.9285,-6.8797,-6.86,-6.8501,-6.8201,-6.8909,-7.0299,-7.0059,-7.0653,-7.1862,-7.1424,-7.1203,-7.1092,-7.0757,-7.0942,-7.1405,-7.1862,-7.2195,-7.2517,0.0,0.0,0.0,0.0,0.0,0.0,0.0,0.0,0.0,0.0,0.0,-5.0499,-4.9682,-4.9575,-4.8909,-4.7326,-4.7236,-4.6918,-4.6152,-4.6154,-4.6196,-4.6187,-4.6249,0.0,-4.7575,-4.8436,-4.9277,-5.0098,-5.0894,-5.1281,-5.1211,-5.1109,-5.1088,-5.1087,-5.0937,-5.0858,-5.085,-5.1549,-5.1777,-5.1792,-5.2487,-5.2747,-5.2671,-5.1835,-5.1457,-5.1141,-4.9577,-4.8881,-4.8642,-4.7829,-4.7006,-4.6321,-4.6321,-4.575,-4.5103,0.0,0.0,0.0,-4.7158,-4.7615,0.0,-5.0774,0.0,0.0,0.0,0.0,0.0,0.0,0.0,0.0,0.0,0.0,0.0,0.0,0.0,0.0,0.0,0.0,0.0,0.0,0.0,0.0,0.0,0.0,0.0,0.0,0.0,-6.8319,-6.7557,-6.751,-6.7686,-6.7929,-6.8236,-6.8707,-6.9444,-6.9434,-6.9285,-6.8994,-6.8699,-6.8501,-6.8201,-6.7899,-6.857,-6.9922,-6.9922,-7.0407,-7.1203,-7.1203,-7.1092,-7.0789,-7.0419,-7.0714,-7.1289,-7.1391,-7.1835,-7.2396,0.0,0.0,0.0,0.0,0.0,0.0,0.0,0.0,0.0,0.0,0.0,0.0,0.0,-4.9914,-4.9366,-4.8793,-4.7882,-4.6957,-4.6152,-4.6107,-4.6144,-4.6187,-4.6249,-4.6466,-4.6752,-4.8163,-4.9007,-4.9254,-5.0678,-5.1342,-5.1278,-5.1201,-5.1125,-5.1101,-5.0975,-5.1167,-5.1661,-5.1857,-5.2202,-5.2658,-5.2922,-5.2992,-5.2862,-5.2533,-5.237,-5.2207,-5.1061,-5.0274,-4.9678,-4.8861,-4.7999,-4.7198,-4.6625,-4.6244,-4.59,-4.5366,-4.5213,-4.5595,-4.7274,-4.7732,0.0,-5.0125,-5.1243,0.0,0.0,0.0,0.0,0.0,0.0,0.0,0.0,0.0,0.0,0.0,0.0,0.0,0.0,0.0,0.0,0.0,0.0,0.0,0.0,0.0,0.0,0.0,0.0,0.0,-6.7557,-6.751,-6.757,-6.7723,-6.8115,-6.8636,-6.9368,-6.925,-6.8994,-6.8699,-6.8501,-6.8201,-6.7899,-6.7797,-6.8363,-6.9425,-6.9425,-7.0116,-7.1203,-7.0981,-7.0757,-7.0419,-7.0306,-7.0767,-7.1416,-7.1428,-7.1872,-7.2521,0.0,0.0,0.0,-5.05,0.0,-5.05,-5.05,-5.0542,-5.0563,-5.0566,0.0,0.0,0.0,0.0,-4.9859,-4.9614,-4.8438,-4.7489,-4.6951,-4.6705,-4.6559,-4.6616,-4.6401,-4.642,-4.6712,-4.8124,-4.897,-4.9224,-5.0684,-5.1349,-5.1295,-5.123,-5.1159,-5.1089,-5.1291,-5.1625,-5.2141,-5.2627,-5.3147,-5.3605,-5.3832,-5.3881,-5.3775,-5.3483,-5.3322,-5.3159,-5.2332,-5.1644,-5.1009,-5.0206,-4.9366,-4.8487,-4.7646,-4.7188,-4.6768,-4.5965,-4.5927,-4.6385,-4.7494,-4.8028,-4.8541,0.0,0.0,0.0,0.0,0.0,0.0,0.0,0.0,0.0,0.0,0.0,0.0,0.0,0.0,0.0,0.0,0.0,0.0,0.0,0.0,0.0,0.0,0.0,0.0,0.0,0.0,0.0,-6.7557,-6.751,-6.7486,-6.7463,-6.7937,-6.8452,-6.902,-6.896,-6.8896,-6.86,-6.8201,-6.8,-6.7797,-6.7593,-6.8084,-6.9104,-6.8889,-6.9571,-7.0869,-7.0757,-7.0419,-7.0161,-7.0047,-7.0544,-7.1402,-7.1162,-7.166,-7.2452,-5.05,-5.05,-5.05,-5.05,-5.05,-5.05,-5.05,-5.05,-5.05,-5.05,0.0,0.0,0.0,0.0,0.0,-4.9653,-4.8966,-4.8541,-4.8593,-4.7884,-4.747,-4.7546,-4.6738,-4.6687,-4.761,-4.8437,-4.9246,-5.0087,-5.0957,-5.1356,-5.132,-5.123,-5.118,-5.1163,-5.1981,-5.2283,-5.231,-5.3917,-5.4555,-5.4592,-5.5314,-5.5615,-5.5538,-5.4703,-5.435,-5.4164,-5.3307,-5.2915,-5.2728,-5.1926,-5.1085,-5.0245,-4.9404,-4.8525,-4.7646,-4.6806,-4.715,-4.7799,0.0,0.0,0.0,-5.0092,0.0,0.0,0.0,0.0,0.0,0.0,0.0,0.0,0.0,0.0,0.0,0.0,0.0,0.0,0.0,0.0,0.0,0.0,0.0,0.0,0.0,0.0,0.0,0.0,0.0,-6.7557,-6.7488,-6.7475,-6.7403,-6.72,-6.7702,-6.8069,-6.8295,-6.873,-6.8896,-6.86,-6.8,-6.7797,-6.7797,-6.7213,-6.7769,-6.8997,-6.8422,-6.9018,-7.0275,-7.0275,-7.0047,-6.9818,-6.9472,-7.0193,-7.1282,-7.0678,-7.1291,-7.2326,-5.0188,-5.0188,-5.0188,-5.0188,-5.0188,-5.0212,-5.0259,-5.0306,-5.039,0.0,0.0,0.0,-5.0604,-5.0682,-5.0443,-4.9653,-4.9509,-4.9188,-4.8638,-4.8458,-4.8366,-4.8431,-4.822,-4.8205,-4.8535,-4.9336,-4.9873,-5.0087,-5.0957,-5.1362,-5.1303,-5.1239,-5.1491,-5.2096,-5.2873,-5.3553,-5.4072,-5.4491,-5.4979,-5.544,-5.5651,-5.6049,-5.6499,-5.6268,-5.6145,-5.5959,0.0,-5.4388,-5.3752,-5.2824,-5.2379,-5.192,-5.0459,-4.8984,-4.7761,-4.7532,-4.7608,-4.7952,-4.8563,0.0,0.0,0.0,0.0,0.0,0.0,0.0,0.0,0.0,0.0,0.0,0.0,0.0,0.0,0.0,0.0,0.0,0.0,0.0,0.0,0.0,0.0,0.0,0.0,0.0,0.0,0.0,-6.6999,-6.7315,-6.6621,-6.6558,-6.669,-6.7167,-6.7306,-6.757,-6.8009,-6.8438,-6.8501,-6.8,-6.7899,-6.7593,-6.7213,-6.7109,-6.7557,-6.8453,-6.8312,-6.8795,-6.9703,-6.9818,-6.9818,-6.9472,-6.9387,-6.9957,-7.0678,-7.0435,-7.0918,-7.1692,-5.0089,-5.0089,-5.0089,-5.0089,-5.0089,-5.0089,-5.0139,-5.0188,-5.0212,0.0,0.0,0.0,-5.0602,-5.0991,-5.0948,-5.0185,-5.0216,-5.0106,-4.9664,-4.9381,-4.9253,-4.9315,-4.8995,-4.8977,-4.9387,-4.9843,-5.0266,-5.0633,-5.1152,-5.1369,-5.1323,-5.1248,-5.1657,-5.248,-5.3288,-5.4086,-5.4894,-5.5565,-5.6018,-5.6387,-5.6346,-5.6785,-5.7473,-5.7466,-5.742,0.0,0.0,0.0,-5.5677,-5.4426,-5.3522,-5.2755,-5.1752,-5.0505,-4.9373,-4.899,-4.8853,-4.8869,-4.906,-4.9328,-4.971,-5.0168,0.0,0.0,-5.1218,-5.1763,0.0,0.0,0.0,0.0,0.0,0.0,0.0,0.0,0.0,0.0,0.0,0.0,0.0,0.0,0.0,0.0,0.0,0.0,0.0,-6.5331,-6.6056,-6.6367,-6.6038,-6.612,-6.6296,-6.6589,-6.6751,-6.7048,-6.7454,-6.7786,-6.791,-6.7797,-6.7593,-6.7317,-6.7005,-6.6796,-6.7237,-6.8233,-6.787,-6.8457,-6.9387,-6.924,-6.924,-6.9123,-6.9006,-6.9601,-7.0343,-7.0066,-7.0542,-7.1405,0.0,-5.0076,-5.0076,-5.0076,-5.0076,-5.0076,-5.0215,-5.0215,-5.0279,0.0,-5.0541,-5.0658,-5.087,-5.1585,-5.178,-5.112,-5.1199,-5.1305,-5.1373,-5.0692,-5.0265,-5.0283,-4.9529,-4.9435,-5.0243,-5.023,-5.0622,-5.1414,-5.1391,-5.1414,-5.1414,-5.1373,-5.1794,-5.2689,-5.3494,-5.4308,-5.5273,-5.6792,-5.7422,-5.7486,-5.7312,-5.7734,-5.8466,0.0,-5.8412,-5.8366,-5.8342,-5.8242,-5.7887,-5.6314,-5.468,-5.3299,-5.3299,-5.2602,-5.1698,-5.0933,-5.0581,-5.0283,-4.958,-4.9824,-5.0283,-5.0283,-5.0283,0.0,-5.1104,-5.1345,-5.1787,0.0,0.0,0.0,0.0,0.0,0.0,0.0,0.0,0.0,0.0,0.0,0.0,0.0,0.0,0.0,0.0,-6.3937,-6.4242,-6.5018,-6.4971,-6.513,-6.5677,-6.5883,-6.5942,-6.578,-6.6064,-6.6297,-6.6638,-6.6972,-6.7289,-6.7599,-6.7149,-6.7005,-6.6901,-6.6406,-6.6883,-6.7998,-6.7505,-6.8055,-6.9147,-6.8623,-6.8535,-6.8772,-6.8505,-6.9122,-7.0189,-6.9571,-7.0163,-7.1277,-4.9778,-4.9778,-4.9778,-4.9778,-4.9778,-5.0062,-5.0789,-5.0892,-5.1212,-5.203,-5.2234,-5.2356,-5.2532,-5.2794,-5.2897,-5.2818,-5.2945,-5.3042,-5.3117,-5.2407,-5.2018,-5.1996,-5.1271,-5.0957,-5.1141,-5.1164,-5.1249,-5.1414,-5.1396,-5.138,-5.1414,-5.1996,-5.2728,-5.3574,-5.4336,-5.5511,-5.694,-5.7257,-5.8175,-5.932,-5.853,-5.8703,-5.9395,-5.937,-5.9348,-5.9326,-5.9281,-5.8835,-5.8197,-5.7805,-5.6491,-5.5025,-5.5025,-5.3989,-5.2702,-5.2548,-5.1989,-5.1385,-5.1232,-5.075,-5.0283,-5.0283,-5.0283,0.0,-5.0342,-5.0888,-5.1444,0.0,0.0,0.0,0.0,0.0,0.0,0.0,0.0,0.0,0.0,0.0,0.0,0.0,0.0,0.0,0.0,-6.2676,-6.3088,-6.345,-6.3939,-6.4664,-6.5595,-6.5413,-6.532,-6.5481,-6.5758,-6.5661,-6.5318,-6.6353,-6.6662,-6.6384,-6.6823,-6.6796,-6.6299,-6.6192,-6.6416,-6.6647,-6.7094,-6.7434,-6.7856,-6.8172,-6.8386,-6.8505,-6.8179,-6.8637,-6.9571,-6.9446,-6.9909,-7.0658,-4.9692,-4.9692,-4.9692,-4.9692,-5.0032,-5.0476,-5.0912,-5.1386,-5.1897,-5.2427,-5.3008,-5.3276,-5.2915,-5.3437,-5.3584,-5.3282,-5.3374,-5.3514,-5.3567,-5.3288,-5.3097,-5.3147,-5.2831,-5.2679,-5.2702,-5.2255,-5.2031,-5.2052,-5.1609,-5.1625,-5.1999,-5.2372,-5.3215,-5.4469,-5.4801,-5.5877,-5.7489,-5.787,-5.8751,-5.9878,-5.934,0.0,-6.1,-6.0899,-6.1186,-6.1533,-6.1466,-6.0612,-5.955,-5.9527,-5.8327,0.0,-5.6883,-5.5708,-5.4303,-5.4303,-5.3376,-5.2334,-5.2334,-5.1676,-5.1017,-5.1017,-5.065,0.0,0.0,-5.0456,0.0,0.0,0.0,0.0,0.0,0.0,0.0,0.0,0.0,0.0,0.0,0.0,0.0,0.0,0.0,0.0,0.0,-6.1312,-6.1765,-6.2504,-6.3124,-6.3747,-6.4184,-6.4707,-6.4934,-6.4685,-6.5049,-6.5143,-6.5027,-6.5737,-6.6044,-6.5956,-6.6375,-6.6512,-6.6192,-6.587,-6.5888,-6.635,-6.6694,-6.7028,-6.7439,-6.7786,-6.7939,-6.7939,-6.785,-6.8423,-6.9321,-6.907,-6.9526,-7.0397,-4.9604,-4.9604,-4.9642,-4.9792,-5.0395,-5.0922,-5.1254,-5.1986,-5.2643,-5.3034,-5.3878,-5.4268,-5.3811,-5.4508,-5.4786,-5.4205,-5.4284,-5.4431,-5.4575,-5.4479,-5.4369,-5.4305,-5.4188,-5.4117,-5.3986,-5.3307,-5.2968,-5.2961,-5.2244,-5.2221,-5.2857,-5.3011,-5.3827,-5.5102,-5.538,-5.6343,-5.779,-5.8599,-5.952,-6.0416,0.0,-6.1099,-6.2336,-6.2429,-6.2909,-6.3527,-6.3422,-6.2529,-6.1328,-6.1304,-6.0188,-5.8803,-5.8781,-5.7566,-5.6099,-5.5907,-5.4748,-5.3475,-5.3322,-5.2625,-5.1966,-5.1905,-5.1385,-5.0741,0.0,0.0,0.0,0.0,0.0,0.0,0.0,0.0,0.0,0.0,0.0,0.0,0.0,0.0,0.0,0.0,0.0,0.0,0.0,-6.0058,-6.0386,-6.1517,-6.2248,-6.2639,-6.258,-6.3802,-6.4295,-6.389,-6.4178,-6.4463,-6.4609,-6.4863,-6.5267,-6.5663,-6.587,-6.596,-6.5978,-6.5406,-6.5496,-6.5942,-6.6208,-6.662,-6.7052,-6.7396,-6.7487,-6.7365,-6.7365,-6.8054,-6.9196,-6.8564,-6.9139,-7.0134,-4.9262,-4.9262,-4.9487,-5.0198,-5.0488,-5.1115,-5.2639,-5.3043,-5.3805,-5.5458,-5.594,-5.6387,-5.7134,-5.7481,-5.7642,-5.7627,-5.7734,-5.7911,-5.8015,-5.7441,-5.6783,-5.6153,-5.5428,-5.4729,-5.4033,-5.3884,-5.3867,-5.3859,-5.3764,-5.3704,-5.3754,-5.4531,-5.4956,-5.5141,-5.6664,-5.782,-5.8722,-5.9522,-6.0755,0.0,-6.2198,-6.2277,0.0,-6.3186,-6.3513,-6.357,-6.3527,-6.3351,-6.3174,0.0,-6.1989,-6.0602,-6.0535,-5.9358,-5.7857,-5.7088,-5.6121,-5.5154,-5.4425,-5.3574,-5.2855,0.0,-5.2671,0.0,0.0,0.0,0.0,0.0,0.0,0.0,0.0,0.0,0.0,0.0,0.0,0.0,0.0,0.0,0.0,0.0,0.0,0.0,0.0,0.0,-5.9564,-5.986,-6.0815,-6.1548,-6.181,-6.2316,-6.2835,-6.3645,-6.3323,-6.3156,-6.3421,-6.3864,-6.4165,-6.4318,-6.4905,-6.5245,-6.5406,-6.5046,-6.4777,-6.4677,-6.565,-6.591,-6.5827,-6.6974,-6.7121,-6.6629,-6.6629,-6.7433,-6.8436,-6.8052,-6.8619,-6.947,-4.9351,-4.9571,-4.9982,-5.0355,-5.1249,-5.218,-5.2919,-5.3992,-5.5249,-5.6608,-5.6922,-5.7156,-5.7634,-5.8322,-5.8782,-5.8904,0.0,-5.9205,0.0,0.0,-5.8117,-5.7854,-5.7563,-5.7017,-5.6212,-5.5759,-5.5272,-5.4757,-5.4232,-5.4211,-5.4651,-5.5028,-5.5693,-5.6641,-5.7309,-5.8363,-5.9671,-6.0444,-6.1462,0.0,0.0,0.0,0.0,-6.4966,-6.5698,-6.6488,-6.5964,-6.544,-6.4933,0.0,-6.3406,0.0,0.0,-6.118,-5.9733,-5.9386,-5.8264,-5.6967,-5.6143,-5.5215,0.0,0.0,0.0,0.0,-5.2322,0.0,-5.1992,0.0,0.0,0.0,0.0,0.0,0.0,0.0,-5.201,0.0,0.0,0.0,0.0,0.0,0.0,0.0,0.0,0.0,0.0,0.0,-5.9186,-5.9751,-6.0846,-6.1318,-6.1673,-6.1988,-6.2561,-6.2772,-6.2428,-6.3249,-6.3836,-6.4089,-6.4464,-6.4723,-6.4967,-6.4715,-6.4382,-6.4249,-6.488,-6.5136,-6.5233,-6.6041,-6.6272,-6.6132,-6.6007,-6.6568,-6.755,-6.7548,-6.8151,-6.8839,-4.9889,-5.0219,-5.0666,-5.089,-5.1968,-5.3009,-5.3599,-5.5047,-5.6534,-5.7758,-5.804,-5.8318,-5.8889,-5.9731,-6.0303,-6.0405,-6.0619,-6.0789,0.0,0.0,-6.0123,-5.9993,-5.9805,-5.935,-5.852,-5.7711,-5.6991,-5.6321,-5.5716,-5.5694,-5.6251,-5.6251,-5.6925,-5.8063,-5.8226,-5.9126,-6.0579,0.0,-6.2307,-6.3456,-6.4898,-6.6203,-6.7329,-6.7018,-6.7673,-6.8635,-6.8017,-6.7377,-6.6676,-6.5826,-6.4916,0.0,-6.3951,-6.2827,-6.1533,-6.107,-6.0025,-5.8765,-5.7649,0.0,0.0,0.0,0.0,0.0,0.0,0.0,0.0,0.0,0.0,0.0,0.0,0.0,-5.0847,-5.1267,0.0,-5.1146,0.0,0.0,0.0,0.0,0.0,0.0,0.0,0.0,0.0,-5.7703,-5.7751,-5.8178,-5.9239,-6.0191,-6.0529,-6.0461,-6.1763,-6.2137,-6.1694,-6.2604,-6.3217,-6.3599,-6.376,-6.4011,-6.4439,-6.4209,-6.4075,-6.391,-6.4116,-6.4543,-6.4935,-6.5228,-6.5542,-6.5882,-6.5601,-6.5768,-6.6422,-6.6984,-6.7582,-6.809,-5.1043,-5.1043,-5.134,-5.2156,-5.2493,-5.3237,-5.5134,-5.6178,-5.7409,-5.9276,-5.9711,0.0,0.0,0.0,0.0,0.0,0.0,-6.3394,-6.3478,0.0,-6.3425,-6.2729,-6.1948,-6.1144,-6.0327,-5.9472,-5.9022,-5.8979,-5.8961,-5.8934,-5.8981,-5.8981,-5.8952,-5.8997,-5.9783,-6.0565,-6.1434,-6.2288,-6.3604,-6.5203,-6.6018,-6.7847,-6.9963,0.0,-6.8738,-6.8816,-6.8777,0.0,0.0,-6.763,-6.6758,0.0,0.0,0.0,0.0,-6.146,-6.0938,-6.0448,0.0,0.0,0.0,-5.7059,0.0,0.0,0.0,0.0,-5.3628,0.0,0.0,0.0,-5.2183,-5.186,-5.1481,-5.1341,-5.1194,0.0,0.0,0.0,0.0,0.0,0.0,0.0,0.0,0.0,0.0,-5.5996,-5.6886,-5.7205,-5.6857,-5.8429,-5.9487,-5.9716,-6.0688,-6.128,-6.1403,-6.1802,-6.2089,-6.229,-6.2624,-6.3087,-6.3434,-6.3546,-6.3538,-6.3568,-6.365,-6.3951,-6.4545,-6.4862,-6.5264,-6.5475,-6.5475,-6.5124,-6.4814,-6.6288,-6.7024,-6.742,-5.2344,-5.2422,-5.2471,-5.2336,-5.3304,-5.4721,-5.663,-5.7716,0.0,0.0,0.0,0.0,0.0,0.0,-6.4794,0.0,0.0,-6.6013,-6.6185,-6.5255,0.0,0.0,0.0,-6.289,0.0,-6.1252,-6.0538,-5.9957,-5.939,-5.909,-5.9098,-5.9098,-5.9389,-5.9883,-6.0711,-6.1534,0.0,0.0,0.0,0.0,0.0,-6.9494,-7.0213,0.0,0.0,-7.0505,-6.9924,-6.9711,0.0,-6.8664,-6.8158,-6.775,-6.6879,-6.5947,-6.4999,-6.3917,-6.3102,0.0,0.0,0.0,-5.9672,-5.8135,0.0,0.0,0.0,0.0,0.0,0.0,0.0,0.0,-5.2975,-5.2236,-5.137,-5.0635,-5.038,-5.0153,0.0,-4.9683,0.0,0.0,0.0,0.0,0.0,0.0,0.0,-5.4262,-5.5156,-5.5913,-5.6447,-5.7495,-5.8227,-5.8534,-5.9402,-6.0076,-6.0386,-6.0683,-6.1215,-6.1915,-6.2304,-6.2652,-6.2849,-6.3063,-6.3049,-6.2847,-6.2705,-6.3059,-6.397,-6.4082,-6.4539,-6.5094,-6.4868,-6.474,-6.4656,-6.6054,-6.6499,-6.6442,-5.3405,-5.3719,-5.3775,-5.3216,-5.4556,-5.6236,-5.7776,0.0,0.0,0.0,-6.2372,0.0,-6.4537,0.0,-6.6522,0.0,-6.7525,-6.7726,-6.7905,-6.7019,0.0,-6.6685,-6.5901,0.0,0.0,-6.3506,-6.2677,-6.1797,-6.1232,-6.0929,-6.0912,-6.09,-6.119,-6.1694,-6.2211,-6.2919,-6.3792,-6.5181,-6.6242,0.0,0.0,-7.0926,0.0,0.0,-7.1765,-7.1882,0.0,-7.1087,-7.0913,-6.975,-6.9324,-6.9149,-6.8277,-6.7346,-6.6474,-6.5603,-6.4711,-6.3681,-6.2271,-6.1841,0.0,-5.9588,-5.9072,0.0,-5.7468,0.0,0.0,0.0,0.0,0.0,-5.395,-5.2907,-5.1852,-5.1117,-5.038,-4.9599,0.0,-4.8848,0.0,0.0,0.0,0.0,0.0,0.0,-5.2187,-5.2909,-5.3536,-5.4394,0.0,0.0,-5.7001,-5.7533,-5.8455,-5.916,-5.9718,-5.9942,-6.0465,-6.1366,-6.1859,-6.2092,-6.1958,-6.263,-6.2701,-6.2381,-6.2116,-6.2494,-6.3603,-6.3356,-6.3864,-6.474,-6.4483,-6.4224,-6.4238,-6.563,-6.6242,-6.635,-5.4182,-5.4829,-5.5339,-5.4785,-5.614,-5.7682,0.0,0.0,-6.1082,0.0,-6.4067,-6.5162,-6.636,-6.7364,-6.8056,-6.8445,-6.8641,0.0,-6.8949,-6.9033,0.0,0.0,-6.855,-6.7745,-6.6939,-6.616,-6.529,-6.4408,-6.4365,-6.4301,-6.4219,-6.4184,-6.4193,-6.4216,-6.4208,-6.4683,-6.5528,-6.6374,-6.7228,-6.82,-7.0681,-7.218,-7.3074,-7.3929,-7.3721,-7.2948,-7.2871,-7.2871,-7.258,-7.0913,-7.0331,-7.0176,-6.9227,-6.8394,-6.7542,-6.6592,-6.5719,-6.4827,-6.3938,-6.3582,-6.3068,-6.1434,0.0,0.0,0.0,0.0,-5.7668,0.0,0.0,0.0,-5.4931,-5.3875,-5.304,-5.2642,-5.1083,-4.9412,-4.7964,-4.7949,-4.7998,0.0,0.0,0.0,0.0,-5.053,-5.0773,-5.1933,-5.2157,-5.2752,0.0,0.0,-5.5841,-5.6774,-5.7666,-5.8562,-5.9425,-5.961,-5.988,-6.0407,-6.1074,-6.1267,-6.0992,-6.2106,-6.2351,-6.2116,-6.1732,-6.2374,-6.348,-6.2861,-6.336,-6.4483,-6.4095,-6.3704,-6.3612,-6.5231,-6.6321,-6.7125,-5.4782,-5.6061,-5.7161,-5.6988,-5.7589,-5.8443,0.0,0.0,0.0,0.0,-6.5304,-6.7089,-6.8792,-6.9353,-7.0205,-7.1751,-7.2073,0.0,0.0,0.0,0.0,-7.1077,-7.029,-6.946,-6.8695,-6.7877,-6.7047,-6.6166,-6.5543,-6.4899,-6.4219,-6.4184,-6.4193,-6.4255,-6.5465,-6.6146,-6.6474,-6.7903,-6.9383,-7.0805,-7.2041,-7.3074,0.0,0.0,-7.4999,-7.4709,-7.4049,-7.3798,-7.3607,-7.2481,-7.2152,-7.1882,-7.0351,-6.9692,-6.9382,-6.8472,-6.76,-6.667,-6.5698,-6.4999,-6.4222,-6.3053,-6.2252,-6.1426,0.0,0.0,0.0,0.0,0.0,0.0,0.0,0.0,-5.4387,-5.2901,-5.1412,-4.998,-4.8762,-4.8353,0.0,-4.7427,0.0,-4.8557,-4.9148,-4.9854,-5.0473,-5.0794,-5.1612,-5.2458,-5.3396,0.0,0.0,-5.6271,-5.6738,-5.7556,-5.89,-5.8846,-5.9112,-5.9743,-6.0636,-6.0962,-6.0767,-6.1497,-6.185,-6.1732,-6.1135,-6.1646,-6.2861,-6.236,-6.295,-6.4095,-6.3675,-6.3565,-6.3807,-6.473,-6.5521,-6.6116,-5.5946,-5.7498,-5.8786,-5.8835,-5.9742,0.0,-6.1217,0.0,0.0,-6.4961,-6.6883,0.0,-6.9778,-7.0723,-7.1811,-7.3092,-7.3313,0.0,0.0,0.0,0.0,-7.2812,-7.2419,-7.1643,-7.045,-7.0018,0.0,-6.7922,-6.7498,-6.6973,-6.6483,-6.6447,-6.6424,-6.6455,-6.7433,-6.7831,-6.7938,-6.964,-7.1083,-7.239,-7.3605,-7.4382,0.0,-7.5782,-7.6132,-7.6054,-7.5549,-7.5072,-7.4593,-7.37,-7.3177,-7.2675,-7.1648,-7.0834,-7.0117,-6.9614,-6.8859,-6.7949,-6.7018,-6.6397,-6.5737,-6.4415,-6.3631,-6.2998,-6.2016,-6.1032,-6.0059,0.0,0.0,0.0,0.0,0.0,-5.4872,-5.2865,-5.1735,-5.0738,-4.9597,0.0,0.0,0.0,-4.8135,-4.8355,-4.8367,-4.9101,-4.9843,-5.0359,-5.0707,-5.1525,0.0,0.0,0.0,-5.562,-5.5928,-5.6745,-5.827,-5.8206,-5.8395,-5.8894,-6.0185,-6.0624,-6.02,-6.1146,-6.1494,-6.1135,-6.0802,-6.1307,-6.236,-6.1953,-6.2566,-6.3675,-6.331,-6.3243,-6.3532,-6.4295,-6.4996,-6.5752,-5.7514,-5.9037,-6.0368,-6.0468,-6.2034,0.0,0.0,-6.4279,0.0,-6.653,0.0,-7.0073,-7.0498,-7.2016,-7.3222,-7.382,0.0,-7.4137,-7.4345,-7.453,-7.4693,-7.4716,-7.4717,-7.3982,-7.2439,-7.2359,-7.1534,-6.9911,-6.9803,-6.9667,-6.9567,-6.938,-6.9327,-6.9319,-6.9431,-6.9606,-6.9907,-7.1471,-7.2614,-7.3469,-7.4987,-7.5687,-7.5843,-7.6621,-7.6894,-7.6894,-7.6894,-7.6381,-7.5538,-7.4684,-7.3868,-7.319,-7.2923,-7.1819,-7.0615,-7.0446,-6.9768,-6.8897,-6.8142,-6.7793,-6.7268,-6.5659,-6.5071,-6.4648,-6.369,-6.2721,-6.1824,-6.0922,-5.9912,-5.8897,0.0,0.0,-5.5023,-5.2971,-5.2353,-5.1688,0.0,0.0,0.0,0.0,0.0,0.0,-4.8141,-4.8483,-4.915,-5.0258,-4.9842,-5.0334,0.0,0.0,0.0,-5.4837,-5.5121,-5.5999,-5.7525,0.0,-5.7872,-5.8035,-5.9674,-6.017,-5.9741,-6.091,-6.1135,-6.0681,-6.056,-6.1155,-6.1953,-6.1543,-6.2151,-6.3282,-6.2914,-6.2781,-6.295,-6.3747,-6.4665,-6.5529,-5.9128,-6.0659,-6.1959,0.0,0.0,-6.5557,-6.7036,-6.7614,-6.8045,-6.8398,-7.0304,0.0,-7.3871,-7.4448,-7.5508,-7.7232,-7.7539,0.0,0.0,0.0,0.0,-7.7347,-7.6777,-7.6025,-7.5131,-7.4435,-7.3603,-7.2606,-7.1912,-7.119,-7.0465,-6.9706,-6.9334,-6.9319,-7.0034,-7.1136,-7.2518,-7.3496,0.0,-7.5184,-7.5468,-7.6038,-7.6699,-7.6855,-7.6894,-7.6894,-7.6894,-7.6777,-7.6529,-7.5673,-7.5245,-7.488,-7.341,-7.2773,-7.2368,-7.1586,-7.0735,-6.9998,-6.9788,-6.9208,-6.8413,-6.7307,-6.6449,-6.5581,-6.46,-6.3604,-6.2793,-6.2529,-6.1667,-6.0646,-5.9555,0.0,0.0,-5.4642,-5.417,0.0,0.0,0.0,0.0,0.0,0.0,-4.8633,-4.8167,-4.845,-4.9053,-4.9885,0.0,-5.0042,0.0,0.0,0.0,0.0,-5.445,0.0,0.0,0.0,-5.7378,-5.7851,-5.9227,-5.9797,-5.9741,-6.0435,-6.0802,-6.0681,-6.01,-6.0535,-6.1543,-6.1316,-6.1688,-6.2515,-6.2515,-6.2248,-6.209,-6.3308,-6.3834,-6.4249,0.0,0.0,0.0,0.0,0.0,0.0,0.0,-6.9447,0.0,-7.0191,-7.1996,-7.3699,-7.4781,-7.5854,-7.6996,-7.819,-7.8423,-7.8536,-7.8679,-7.8959,-7.898,-7.8707,-7.8411,0.0,-7.7121,-7.6262,-7.5438,-7.4637,-7.3787,-7.3143,-7.2729,-7.2242,-7.2034,-7.201,-7.2404,-7.3036,-7.3843,0.0,0.0,-7.5729,-7.6651,-7.7261,-7.765,-7.8079,-7.8001,-7.7611,-7.7611,-7.7339,-7.6871,-7.6441,-7.596,-7.5454,-7.4622,-7.3713,-7.292,-7.2469,-7.1714,-7.0921,-7.0386,-6.9962,-6.9401,-6.8472,-6.7539,-6.6659,-6.6121,-6.4922,-6.3847,-6.3713,-6.2862,-6.1628,-5.9946,-5.835,0.0,0.0,0.0,0.0,0.0,0.0,0.0,0.0,0.0,0.0,0.0,0.0,0.0,0.0,0.0,-4.9807,0.0,0.0,0.0,0.0,0.0,0.0,0.0,0.0,0.0,-5.7024,-5.8855,-5.9596,-5.9306,-6.0225,-6.056,-6.0194,-5.9853,-6.0313,-6.1373,-6.1632,-6.1852,-6.2086,-6.2086,-6.1951,-6.1955,-6.2894,-6.3361,-6.3554,0.0,-6.4383,0.0,0.0,-6.6884,0.0,0.0,-7.0991,-7.2248,-7.1861,-7.3575,-7.4984,-7.5615,-7.7222,-7.8484,-7.9071,-7.9383,-7.9614,-7.9759,-8.0043,-8.0221,-8.0377,-8.0147,-7.9754,-7.9149,-7.8129,-7.7347,0.0,-7.582,-7.5298,-7.5149,-7.4903,-7.4687,-7.4507,-7.4811,0.0,0.0,0.0,-7.6493,-7.6649,-7.8012,-7.8558,-7.8636,-7.9259,-7.9104,-7.8558,-7.8558,-7.8012,-7.726,-7.7209,-7.6611,-7.5871,-7.5663,-7.4651,-7.3508,-7.3324,-7.2648,-7.1801,-7.1076,-7.0732,-7.0347,-6.9401,-6.8607,-6.7944,-6.7641,-6.6328,-6.5103,-6.4972,-6.3915,-6.2395,-6.0443,-5.9177,0.0,0.0,0.0,0.0,0.0,0.0,0.0,0.0,0.0,0.0,-4.9317,0.0,0.0,0.0,0.0,-4.9669,-5.0717,-5.1403,-5.2197,0.0,0.0,-5.4901,-5.575,0.0,-5.6793,-5.6437,-5.8541,-5.9248,-5.8838,-5.9985,-6.0194,-5.973,-5.9606,-6.0062,-6.0914,-6.188,-6.2086,-6.1681,-6.1681,-6.1681,-6.1684,-6.2644,-6.2969,-6.3133,0.0,0.0,0.0,0.0,0.0,0.0,0.0,-7.2955,-7.3378,-7.3553,-7.4816,-7.6344,-7.8078,-7.9274,-8.0469,-8.1639,-8.2534,-8.3118,-8.3307,-8.3565,-8.3751,-8.3913,-8.2526,-8.1792,-8.1831,-8.022,-7.9366,0.0,0.0,-7.7651,-7.6867,-7.6047,-7.5248,-7.4585,0.0,0.0,0.0,-7.848,-7.9142,-7.9181,-7.9337,-7.9376,-7.9415,-7.9454,-7.9454,-7.9376,-7.9376,-7.887,-7.8168,-7.8156,-7.7572,-7.6715,-7.5872,-7.5509,-7.5184,-7.4403,-7.3557,-7.2866,-7.2788,-7.2142,-7.124,-7.0292,-6.9904,-6.9551,-6.8751,-6.7702,-6.6833,-6.6754,-6.5146,-6.336,-6.2135,-6.0943,-5.9811,0.0,0.0,0.0,0.0,0.0,-5.3282,-5.2072,0.0,-5.0738,-5.0096,-4.9488,0.0,0.0,-4.9603,-4.9641,-5.1184,-5.1328,-5.1771,-5.2606,0.0,-5.4389,-5.522,-5.5975,-5.6496,-5.6757,-5.8205,-5.8809,-5.8838,-5.9529,-5.973,-5.973,-5.908,-5.9273,-6.0235,-6.1292,-6.1681,-6.1302,-6.1302,-6.1166,-6.1056,-6.2112,-6.2546,-6.2709,0.0,0.0,0.0,0.0,0.0,0.0,0.0,-7.4067,-7.5299,-7.6579,-7.7071,-7.7817,-7.9177,-8.0262,-8.1421,-8.2713,-8.3226,-8.358,-8.3799,-8.403,-8.4255,-8.4379,-8.3809,-8.3584,-8.3752,-8.2561,-8.1726,0.0,0.0,-7.9529,-7.8649,-7.8284,-7.7947,0.0,0.0,-7.8564,-7.8592,-7.9232,-7.9493,-7.9571,-8.0078,-8.0273,-8.035,-8.0857,-8.074,-8.0273,-8.0335,-7.9439,-7.8319,-7.8291,-7.7735,-7.6921,-7.6559,-7.6079,-7.5573,-7.5184,-7.4509,-7.3703,-7.3153,-7.2734,-7.2219,-7.1278,-7.0602,-7.0021,-6.9589,-6.8722,-6.7846,-6.7179,-6.5388,-6.3726,-6.3113,-6.2033,-6.0862,0.0,0.0,0.0,0.0,0.0,0.0,-5.2755,-5.2149,-5.1527,-5.0841,-5.0258,0.0,0.0,0.0,-4.9973,-5.12,-5.1277,-5.1871,-5.3191,0.0,-5.4473,-5.5718,-5.6048,-5.6417,-5.6514,-5.8119,-5.8574,-5.8246,-5.9257,-5.968,-5.9669,-5.9523,-5.9772,-6.0364,-6.1216,-6.1302,-6.1029,-6.1029,-6.0892,-6.0918,-6.2112,-6.2546,-6.2709,-6.8805,0.0,-7.0108,0.0,-7.1779,-7.3186,-7.396,-7.5476,-7.7122,-7.8858,-7.9252,-7.9668,-8.0466,-8.1516,-8.2565,-8.3594,-8.4033,-8.4427,-8.4918,-8.4959,-8.5109,-8.5505,-8.5093,0.0,-8.5156,-8.4308,-8.3592,-8.3074,-8.2451,-8.1718,-8.0847,-8.0314,-7.9945,0.0,-7.989,-7.9988,-8.0007,-8.0179,-8.0246,-8.0312,-8.0935,-8.1169,-8.1259,-8.1882,-8.1738,-8.1232,-8.1265,-8.0329,-7.9052,-7.875,-7.8106,-7.7334,-7.7061,-7.6593,-7.6076,-7.6013,-7.5417,-7.4613,-7.3936,-7.3387,-7.285,-7.2147,-7.1278,-7.0602,-7.0465,-6.9678,-6.869,-6.7641,-6.6021,-6.4622,-6.4323,-6.3088,-6.1839,-6.0789,0.0,0.0,0.0,-5.5754,0.0,-5.3563,-5.2949,-5.2283,-5.1586,-5.1061,0.0,0.0,0.0,0.0,-5.1438,-5.178,0.0,0.0,0.0,0.0,0.0,-5.6179,-5.6376,-5.6731,-5.806,-5.8422,-5.8143,-5.8974,-5.9417,-5.9395,-5.9745,-5.9984,-6.0319,-6.092,-6.1029,-6.0782,-6.0782,-6.0782,-6.0918,-6.2112,-6.2546,-6.2709,-6.8678,-7.022,-7.1583,-7.1891,-7.33,-7.4897,-7.6301,-7.7515,-7.8702,-7.9754,-8.1082,-8.2048,-8.2285,-8.3302,-8.4129,-8.4552,-8.5493,-8.6467,-8.7503,-8.7049,-8.7165,0.0,0.0,-8.5843,-8.5976,-8.5195,-8.4794,-8.487,0.0,0.0,-8.3503,-8.1803,-8.053,-7.9729,-8.0548,-8.0874,-8.0942,-8.1722,-8.2062,-8.2065,-8.2065,-8.2089,-8.2073,-8.2112,-8.2133,-8.2192,-8.2192,-8.1607,-8.0748,-7.9851,-7.8993,-7.8135,-7.7277,-7.6985,-7.6965,-7.6965,-7.6298,-7.5586,-7.5586,-7.4286,-7.2983,-7.2896,-7.2224,-7.1532,-7.1396,-7.0595,-6.9586,-6.8416,-6.7271,-6.6407,-6.6135,-6.437,-6.285,-6.2426,0.0,0.0,0.0,-5.7909,0.0,-5.457,-5.3748,-5.3072,-5.2365,-5.1832,0.0,0.0,0.0,0.0,0.0,0.0,0.0,-5.3884,-5.4262,0.0,-5.6308,-5.5957,-5.6456,-5.7801,-5.8112,-5.8383,-5.8645,-5.8675,-5.8657,-5.8619,-5.9249,-5.9612,-5.9941,-6.0538,-6.0782,-6.0782,-6.0782,-6.0782,-6.0918,-6.2112,-6.2546,-6.2709,-7.1914,-7.2539,-7.3289,-7.3567,-7.4665,-7.5861,-7.7245,-7.8424,-7.9799,-8.1435,-8.2284,-8.3105,-8.3953,-8.4024,-8.4587,0.0,-8.6684,-8.7352,0.0,-8.852,-8.8678,-8.9079,-8.8671,-8.853,-8.8667,-8.7848,-8.7126,-8.6588,0.0,0.0,0.0,-8.3861,-8.3426,-8.3185,-8.3444,-8.3545,-8.3575,-8.383,-8.3927,-8.3927,-8.3927,-8.3576,-8.304,-8.304,-8.2689,-8.2192,-8.221,-8.1633,-8.0852,-8.0634,-7.9587,-7.8338,-7.8026,-7.7536,-7.6995,-7.6995,-7.677,-7.6426,-7.583,-7.5249,-7.4495,-7.3255,-7.2741,-7.2284,-7.161,-7.0634,-6.977,-6.9201,-6.8242,-6.7229,-6.6356,-6.5464,-6.4359,-6.2827,-6.1982,0.0,-5.9684,0.0,-5.8279,-5.7152,-5.6484,-5.5761,-5.5041,-5.4359,0.0,0.0,0.0,0.0,0.0,0.0,0.0,0.0,-5.4745,0.0,-5.6308,-5.618,-5.6586,-5.7511,-5.7757,-5.8249,-5.8675,-5.8657,-5.8906,-5.9249,-5.9612,-6.0077,-6.0511,-6.0701,-6.0782,-6.0782,-6.0782,-6.0782,-6.0918,-6.2112,-6.2546,-6.2709,-7.3424,-7.391,-7.453,-7.5207,-7.6089,-7.7243,-7.8537,-7.978,-8.1047,-8.2257,-8.3148,-8.4087,-8.5204,-8.5089,0.0,-8.6967,-8.7529,-8.8238,-8.9316,-8.9333,-8.9492,-8.9973,-8.9799,-8.9738,-8.9915,0.0,0.0,-8.8383,-8.7834,-8.6953,-8.5825,-8.5813,-8.5416,-8.4792,-8.4817,-8.481,-8.4802,-8.4785,-8.4815,-8.4805,-8.4805,-8.4464,-8.3956,-8.3605,-8.3146,-8.2647,-8.2351,-8.1883,-8.1382,-8.1083,-8.0263,-7.9248,-7.8624,-7.7987,-7.7458,-7.7137,-7.7004,-7.6897,-7.6331,-7.5908,-7.5366,-7.4233,-7.3682,-7.3152,-7.2153,-7.1115,-7.0285,-7.0036,-6.9144,-6.8171,-6.7376,-6.6636,-6.5645,-6.3925,-6.3185,-6.2351,-6.0674,-5.9996,-5.9342,-5.8426,-5.7693,0.0,0.0,-5.5579,-5.5168,0.0,0.0,0.0,0.0,0.0,0.0,-5.4643,-5.537,0.0,-5.6662,-5.6543,-5.6937,-5.7737,-5.7994,-5.8323,-5.8479,-5.8576,-5.8789,-5.9285,-5.975,-6.0213,-6.0782,-6.0782,-6.0782,-6.0782,-6.0782,-6.0782,-6.0918,-6.2112,-6.2546,-6.2709,-7.364,-7.4524,0.0,0.0,-7.7797,0.0,-8.0087,-8.1376,-8.2296,-8.2481,-8.3726,-8.4956,-8.6,-8.6419,-8.684,-8.7235,0.0,0.0,0.0,-8.9797,-8.988,-9.0845,-9.0226,-8.9932,-9.0071,-9.0032,-8.9983,-8.9991,-8.9994,-8.9178,-8.7565,-8.7576,-8.6705,-8.5143,-8.5143,-8.5137,-8.5075,-8.5075,-8.5028,-8.4971,-8.4971,-8.4941,-8.4802,-8.3982,-8.3607,-8.3386,-8.2645,-8.2332,-8.2176,-8.1356,-8.1044,-8.0732,-7.9092,-7.8507,-7.8233,-7.7355,-7.7059,-7.7004,-7.7014,-7.6409,-7.5741,-7.5638,-7.488,-7.3945,-7.2948,-7.1904,-7.1133,-7.0843,-7.0056,-6.9266,-6.8894,-6.7884,-6.6704,-6.5502,-6.4865,-6.3788,-6.1784,-6.0955,-6.006,-5.871,0.0,0.0,0.0,-5.599,-5.5984,0.0,0.0,0.0,0.0,0.0,-5.5689,-5.5918,-5.6041,-5.6482,-5.7222,-5.6959,-5.7397,-5.8275,-5.8519,-5.8479,-5.8281,-5.8502,-5.874,-5.91,-5.9697,-6.0267,-6.0782,-6.0782,-6.0782,-6.0782,-6.0782,-6.0782,-6.0918,-6.2112,-6.2546,-6.2709,0.0,0.0,-7.745,-7.8449,-7.9196,-7.9977,-8.1034,-8.1863,-8.2593,-8.3393,-8.4605,-8.561,-8.6168,-8.7579,-8.8641,-8.896,-8.9374,-9.0009,-9.1052,-9.1229,-9.1393,-9.1721,-9.1665,-9.1685,-9.1866,-9.1242,-9.0586,-9.0017,-8.9998,-8.9803,-8.9361,-8.9378,-8.9164,-8.8774,-8.8774,-8.8383,-8.7791,-8.7791,-8.7401,-8.6769,-8.6769,-8.6378,-8.5761,-8.5566,-8.4675,-8.3465,-8.3269,-8.2801,-8.2254,-8.2059,-8.1552,-8.0927,-8.0498,-7.9483,-7.8233,-7.7368,-7.7082,-7.7059,-7.7004,-7.6858,-7.6515,-7.5794,-7.488,-7.395,-7.2987,-7.2474,-7.1941,-7.1094,-7.0537,-6.9948,-6.9108,-6.8525,-6.7728,-6.6537,-6.5911,-6.5297,-6.4383,-6.3257,-6.2269,0.0,-6.0741,-5.9997,-5.9254,-5.906,-5.8824,0.0,0.0,0.0,0.0,-5.7025,-5.671,-5.5948,-5.6492,-5.6958,-5.7222,-5.728,-5.7558,-5.8325,-5.8342,-5.8574,-5.8916,-5.8898,-5.9233,-5.9697,-6.0294,-6.0647,-6.0782,-6.0782,-6.0782,-6.0782,-6.0782,-6.0782,-6.0918,-6.2112,-6.2546,-6.2709,-7.738,-7.7945,-7.8644,-7.9543,-8.0214,-8.0886,-8.192,-8.2904,-8.3732,-8.4309,-8.547,-8.6555,-8.7353,-8.8423,-8.9367,-9.011,-9.0409,-9.0807,-9.1361,-9.1694,-9.2091,-9.2576,-9.2715,-9.3048,-9.3621,-9.3192,-9.2576,-9.1783,-9.1365,-9.0975,-9.058,-9.0594,-9.0374,-8.9984,-8.9984,-8.975,-8.9281,-8.9281,-8.8774,-8.7993,-8.7993,-8.7486,-8.6666,-8.6236,-8.5495,-8.4597,-8.3777,-8.323,-8.2801,-8.2411,-8.1981,-8.1513,-8.1122,-8.0341,-7.9326,-7.8077,-7.7407,-7.7082,-7.7067,-7.7004,-7.6887,-7.6326,-7.5448,-7.4611,-7.4073,-7.3463,-7.2761,-7.1801,-7.1363,-7.0853,-6.9785,-6.9319,-6.8714,-6.7484,-6.6859,-6.6197,-6.5331,-6.4348,-6.3517,-6.2867,-6.221,-6.1492,-6.0738,-6.0291,-5.9866,-5.9411,-5.8834,0.0,-5.8116,-5.8373,-5.7978,-5.6889,-5.7273,-5.7732,-5.8136,-5.8176,-5.8377,-5.8727,-5.8689,-5.8778,-5.9137,-5.9258,-5.9589,-5.9914,-6.0511,-6.0782,-6.0782,-6.0782,-6.0782,-6.0782,-6.0782,-6.0782,-6.0918,-6.2112,-6.2546,-6.2709,-7.8279,-7.8813,-7.948,-8.0448,-8.1057,-8.1796,-8.277,-8.402,-8.4966,-8.53,-8.6335,-8.7537,-8.8729,-8.9152,-8.9752,-9.08,-9.1287,-9.1567,-9.1592,-9.1926,-9.2542,-9.3469,-9.361,-9.41,-9.4987,-9.4997,-9.4731,-9.4083,-9.3357,-9.2539,-9.1679,-9.1697,-9.124,-9.0374,-9.0374,-9.0296,-9.0179,-9.0179,-8.9672,-8.8891,-8.8735,-8.8266,-8.7486,-8.6627,-8.6197,-8.5885,-8.4284,-8.3621,-8.3386,-8.2567,-8.2293,-8.2176,-8.1435,-8.1122,-8.0693,-7.9248,-7.8077,-7.7251,-7.716,-7.7059,-7.6975,-7.6936,-7.6265,-7.556,-7.5372,-7.4608,-7.3674,-7.2714,-7.2342,-7.1835,-7.0735,-7.0228,-6.9625,-6.8387,-6.7718,-6.6987,-6.5772,0.0,-6.4311,-6.3617,-6.2988,-6.2296,-6.1532,-6.0938,-6.0472,-6.0225,-6.0075,-5.9788,-5.9474,-5.9627,-5.9278,-5.8255,-5.8279,-5.8515,-5.9152,-5.9184,-5.92,-5.9233,-5.9062,-5.9137,-5.9275,-5.9773,-5.9941,-6.005,-6.0565,-6.0782,-6.0782,-6.0782,-6.0782,-6.0782,-6.0782,-6.0782,-6.0918,-6.2112,-6.2546,-6.2709,-7.8962,-7.968,-8.0417,-8.1287,-8.2031,-8.2707,-8.3582,-8.4391,-8.5246,-8.6159,-8.7306,-8.823,-8.8897,-8.9735,-9.0447,-9.0838,-9.1861,-9.2512,-9.2574,-9.287,-9.3458,-9.4426,-9.4562,-9.4723,-9.4987,-9.5065,-9.502,-9.4916,-9.4838,-9.4336,-9.3515,-9.3507,-9.302,-9.217,-9.2131,-9.1741,-9.1116,-9.1116,-9.0609,-8.9711,-8.9008,-8.8618,-8.8383,-8.7525,-8.6744,-8.5963,-8.4948,-8.4128,-8.3386,-8.2567,-8.2293,-8.2293,-8.2137,-8.1591,-8.0966,-8.0693,-7.9444,-7.8038,-7.7316,-7.7043,-7.6994,-7.6922,-7.6777,-7.6404,-7.5508,-7.5136,-7.4679,-7.3677,-7.3273,-7.2771,-7.1675,-7.1139,-7.0495,-6.9214,-6.8614,-6.8062,-6.7353,0.0,-6.5141,-6.4501,-6.3801,-6.3065,-6.2292,-6.2642,-6.2556,-6.1781,-6.1578,-6.1165,-6.0518,-6.0446,-6.0307,-5.9936,-5.9182,-5.8932,-5.9176,-5.9137,-5.92,-5.9233,-5.9062,-5.9358,-5.9883,-5.983,-6.0158,-6.0647,-6.0728,-6.0782,-6.0782,-6.0782,-6.0782,-6.0782,-6.0782,-6.0782,-6.0918,-6.2112,-6.2546,-6.2709,-7.9861,-8.0583,-8.1141,-8.1542,-8.2582,-8.3471,-8.3929,-8.5232,-8.65,-8.7222,-8.8277,-8.9161,-8.9589,-9.0203,-9.0872,-9.1606,-9.2315,-9.3161,-9.423,-9.402,-9.4311,-9.534,-9.5476,-9.5775,-9.6391,-9.6011,-9.5801,-9.5801,-9.5376,-9.4959,-9.4609,-9.4562,-9.4113,-9.3302,-9.3224,-9.2717,-9.1936,-9.1936,-9.1467,-9.0609,-8.975,-8.9125,-8.8618,-8.772,-8.7134,-8.6705,-8.5807,-8.4948,-8.4089,-8.3269,-8.2696,-8.2315,-8.2315,-8.2003,-8.1612,-8.1128,-7.9756,-7.8188,-7.7301,-7.7004,-7.6965,-7.691,-7.6908,-7.6747,-7.6167,-7.5932,-7.5592,-7.4552,-7.4186,-7.3684,-7.2549,-7.2013,-7.1479,-7.068,-6.9733,0.0,-6.8382,-6.7081,-6.6079,-6.5832,-6.5184,-6.4567,-6.426,-6.4108,-6.3631,-6.2794,-6.2615,-6.2188,-6.1249,-6.1613,-6.1628,-6.0897,-6.0406,-5.9856,-5.9251,-5.9594,-5.9711,-5.9711,-5.9561,-5.9911,-6.0518,-6.0483,-6.0511,-6.0782,-6.0782,-6.0782,-6.0782,-6.0782,-6.0782,-6.0782,-6.0782,-6.0782,-6.0918,-6.2112,-6.2546,-6.2709,-8.0508,-8.1272,-8.187,-8.187,-8.317,-8.431,-8.4645,-8.6185,-8.7548,-8.8179,-8.906,-8.9741,-9.0159,-9.0665,-9.1335,-9.2218,-9.2926,-9.3956,-9.5504,-9.5235,-9.5398,-9.6293,-9.6408,-9.6834,-9.76,-9.7026,-9.6699,-9.6699,-9.6027,-9.5658,-9.5508,-9.5421,-9.4972,-9.4161,-9.3927,-9.3419,-9.2795,-9.26,-9.2131,-9.1507,-9.0648,-8.9789,-8.8891,-8.8032,-8.7564,-8.729,-8.6392,-8.5651,-8.4948,-8.3945,-8.3174,-8.2562,-8.2373,-8.2295,-8.2171,-8.149,-8.0191,-7.8774,-7.7645,-7.7324,-7.7219,-7.6987,-7.6922,-7.6864,-7.6651,-7.6534,-7.625,-7.5362,-7.5033,-7.4528,-7.3428,-7.285,-7.2425,-7.1808,0.0,0.0,0.0,-6.8065,-6.7234,-6.7189,-6.6527,-6.5964,-6.5814,-6.5198,-6.4521,-6.3643,-6.3678,-6.3344,-6.2428,-6.2915,-6.2716,-6.1737,-6.1297,-6.0618,-5.96,-6.0079,-6.0279,-6.0132,-6.0116,-6.0463,-6.0933,-6.0893,-6.0782,-6.0782,-6.0782,-6.0782,-6.0782,-6.0782,-6.0782,-6.0782,-6.0782,-6.0782,-6.0918,-6.2112,-6.2546,-6.2851,-8.0508,-8.1707,-8.2709,-8.2709,-8.3978,-8.5345,-8.6275,-8.6929,-8.7735,-8.8931,-8.94,-8.9741,-9.0159,-9.12,-9.1987,-9.2295,-9.4044,-9.527,-9.5581,-9.6359,-9.6936,-9.7266,-9.7408,-9.7511,-9.76,-9.7611,-9.7597,-9.7597,-9.755,-9.7142,-9.6406,-9.632,-9.5832,-9.4981,-9.4161,-9.3771,-9.3654,-9.2834,-9.2482,-9.2326,-9.1546,-9.0687,-8.9828,-8.893,-8.811,-8.729,-8.6392,-8.6041,-8.5774,-8.4159,-8.3569,-8.3359,-8.2536,-8.2301,-8.2292,-8.2214,-8.1534,-8.0459,-7.876,-7.8269,-7.8009,-7.7206,-7.6949,-7.6864,-7.6651,-7.6614,-7.651,-7.6173,-7.5908,-7.5464,-7.4308,-7.3801,-7.3106,-7.1883,0.0,0.0,-7.011,-6.9377,-6.8677,-6.8046,-6.7339,-6.6631,-6.5883,-6.5676,-6.5295,-6.4647,-6.5016,-6.4961,-6.4449,-6.4197,-6.3543,-6.2445,-6.1545,-6.097,-6.0624,-6.086,-6.0705,-6.0132,-6.0532,-6.085,-6.0933,-6.0893,-6.0782,-6.0782,-6.0782,-6.0782,-6.0782,-6.0782,-6.0782,-6.0782,-6.0782,-6.0782,-6.0918,-6.2112,-6.2687,-6.3273,-8.1525,-8.2685,-8.3618,-8.3893,-8.4956,-8.6074,-8.6784,-8.7593,-8.8448,-8.9189,-8.9642,-9.0162,-9.0928,-9.1705,-9.2603,-9.3791,-9.4737,-9.5618,-9.641,-9.6812,-9.713,-9.7401,-9.7525,-9.76,-9.76,-9.765,-9.7714,-9.7714,-9.7706,-9.7533,-9.7226,-9.7225,-9.6743,-9.5879,-9.5567,-9.4825,-9.3771,-9.3458,-9.299,-9.2443,-9.1624,-9.0765,-8.9906,-8.9047,-8.8149,-8.7368,-8.7017,-8.6549,-8.593,-8.4784,-8.4053,-8.3432,-8.2578,-8.2301,-8.2292,-8.2315,-8.2071,-8.1552,-8.0335,-7.9565,-7.8906,-7.8007,-7.7702,-7.7447,-7.6803,-7.6633,-7.651,-7.625,-7.6052,-7.5695,-7.5034,-7.46,-7.4086,-7.3312,0.0,-7.142,-7.0919,-6.985,-6.9038,-6.8832,-6.8152,-6.7609,-6.7384,-6.6941,-6.6492,-6.6276,-6.6006,-6.5665,-6.5352,-6.4412,-6.3749,-6.3456,-6.2731,-6.2113,-6.1623,-6.1241,-6.1257,-6.1542,-6.108,-6.1098,-6.1457,-6.1057,-6.0782,-6.0782,-6.0782,-6.0782,-6.0782,-6.0782,-6.0782,-6.0782,-6.0782,-6.0782,-6.0918,-6.2365,-6.2969,-6.3414,-8.2577,-8.3556,-8.4527,-8.4872,-8.5935,-8.6878,-8.7376,-8.818,-8.8898,-8.9371,-9.0006,-9.0675,-9.1469,-9.2397,-9.3525,-9.4862,-9.5388,-9.6074,-9.6941,-9.7082,-9.7199,-9.7401,-9.7525,-9.76,-9.76,-9.765,-9.7714,-9.7714,-9.7706,-9.7689,-9.7695,-9.7695,-9.7377,-9.6791,-9.6511,-9.5567,-9.42,-9.3927,-9.3302,-9.2443,-9.1897,-9.1155,-9.0296,-8.9437,-8.8579,-8.7759,-8.7486,-8.7017,-8.6392,-8.5565,-8.4721,-8.3867,-8.2969,-8.2536,-8.2289,-8.2299,-8.2293,-8.2176,-8.1552,-8.0938,-8.0154,-7.8974,-7.8624,-7.8318,-7.7676,-7.7235,-7.6936,-7.6636,-7.6244,-7.581,-7.5455,-7.5057,-7.4653,-7.4168,-7.3205,-7.2272,-7.1765,-7.0615,-6.9796,-6.9721,-6.907,-6.8667,-6.8829,-6.8027,-6.7624,-6.7678,-6.714,-6.6543,-6.6017,-6.4839,-6.4236,-6.4266,-6.3563,-6.3175,-6.3042,-6.2083,-6.2038,-6.2507,-6.1761,-6.1536,-6.1789,-6.1166,-6.0892,-6.0782,-6.0782,-6.0782,-6.0782,-6.0782,-6.0782,-6.0782,-6.0782,-6.1028,-6.1438,-6.2586,-6.3359,-6.3941,-8.3409,-8.4392,-8.5367,-8.5715,-8.6782,-8.7693,-8.8232,-8.8554,-8.8898,-8.9371,-9.0499,-9.1368,-9.1597,-9.3434,-9.4792,-9.5087,-9.5962,-9.6653,-9.6979,-9.7242,-9.7401,-9.7401,-9.7525,-9.76,-9.76,-9.765,-9.7714,-9.7714,-9.7706,-9.7689,-9.7695,-9.7695,-9.7693,-9.7641,-9.6791,-9.5918,-9.5059,-9.4161,-9.3302,-9.2522,-9.2482,-9.2014,-9.1194,-9.0335,-8.9477,-8.8579,-8.772,-8.7407,-8.7258,-8.6385,-8.5582,-8.4765,-8.3867,-8.3004,-8.2289,-8.2299,-8.2293,-8.2293,-8.2293,-8.2265,-8.1763,-8.0046,-7.9493,-7.9408,-7.9308,-7.8593,-7.7827,-7.755,-7.6668,-7.5848,-7.5455,-7.5057,-7.4653,-7.4168,-7.3653,-7.3087,-7.2553,-7.1927,-7.1304,-7.0781,-7.0026,-6.966,-6.9826,-6.906,-6.8659,-6.8715,-6.846,-6.7818,-6.6659,-6.5731,-6.5165,-6.4904,-6.4006,-6.4039,-6.4976,-6.363,-6.2894,-6.2507,-6.2501,-6.2248,-6.1789,-6.1438,-6.1166,-6.0782,-6.0782,-6.0782,-6.0782,-6.0782,-6.0782,-6.0782,-6.0782,-6.1411,-6.226,-6.2863,-6.3886,-6.5195,-8.4573,-8.5445,-8.6242,-8.6863,-8.7415,-8.7858,-8.8414,-8.8785,-8.9345,-9.0163,-9.0976,-9.1918,-9.3206,-9.4161,-9.5022,-9.5935,-9.6309,-9.6653,-9.6979,-9.7242,-9.7401,-9.7401,-9.7525,-9.76,-9.76,-9.765,-9.7714,-9.7714,-9.7706,-9.7689,-9.7695,-9.7695,-9.7693,-9.768,-9.7415,-9.6816,-9.5957,-9.5098,-9.42,-9.3341,-9.2756,-9.2014,-9.1272,-9.0999,-8.9984,-8.8657,-8.8422,-8.7915,-8.7258,-8.6385,-8.5973,-8.5547,-8.4062,-8.3004,-8.2289,-8.2299,-8.2293,-8.2293,-8.2293,-8.2265,-8.1919,-8.0787,-8.0389,-8.0147,-7.9424,-7.902,-7.8679,-7.8412,-7.8017,-7.7462,-7.6488,-7.597,-7.5376,-7.4289,-7.3653,-7.3087,-7.2553,-7.2024,-7.1685,-7.157,-7.0984,-7.0617,-7.086,-7.0096,-6.9696,-6.9634,-6.8814,-6.7774,-6.6691,-6.5731,-6.5165,-6.4904,-6.4455,-6.4422,-6.4976,-6.363,-6.3251,-6.3549,-6.283,-6.2248,-6.1789,-6.1438,-6.1166,-6.0782,-6.0782,-6.0782,-6.0782,-6.0782,-6.0782,-6.0782,-6.1029,-6.1548,-6.2288,-6.3418,-6.4444,-6.5195,-8.5591,-8.6208,-8.6819,-8.7431,-8.7693,-8.8047,-8.8436,-8.9161,-8.9959,-9.0646,-9.1784,-9.2924,-9.4141,-9.4819,-9.5521,-9.639,-9.659,-9.6803,-9.7082,-9.7264,-9.742,-9.7398,-9.7539,-9.76,-9.76,-9.765,-9.7714,-9.7714,-9.7706,-9.7689,-9.7695,-9.7695,-9.7693,-9.7719,-9.7689,-9.7206,-9.6347,-9.5488,-9.4591,-9.3732,-9.2834,-9.2209,-9.1741,-9.1428,-9.0413,-8.9164,-8.8813,-8.8149,-8.7329,-8.6806,-8.6438,-8.5898,-8.4135,-8.3232,-8.2757,-8.2383,-8.2293,-8.2293,-8.2287,-8.2218,-8.2075,-8.1519,-8.1273,-8.1042,-8.0434,-7.9951,-7.9532,-7.9262,-7.8826,-7.8231,-7.7329,-7.6845,-7.6284,-7.5267,-7.4661,-7.4088,-7.3508,-7.3033,-7.2653,-7.253,-7.1944,-7.165,-7.182,-7.1134,-7.0482,-7.0052,-6.8893,-6.7797,-6.6796,-6.6197,-6.5757,-6.5559,-6.5291,-6.535,-6.5388,-6.4289,-6.3851,-6.3965,-6.3046,-6.2381,-6.2086,-6.1681,-6.1302,-6.1029,-6.0892,-6.0782,-6.0782,-6.0782,-6.0892,-6.1057,-6.1439,-6.2151,-6.317,-6.4194,-6.5084,-6.581,-8.632,-8.6715,-8.7132,-8.7431,-8.7821,-8.8171,-8.8548,-8.9649,-9.0615,-9.1066,-9.2782,-9.4151,-9.4543,-9.5399,-9.6098,-9.6459,-9.6803,-9.7057,-9.7199,-9.7343,-9.742,-9.7511,-9.763,-9.7756,-9.7834,-9.7728,-9.7714,-9.7714,-9.7706,-9.7687,-9.7695,-9.7695,-9.7693,-9.7719,-9.7689,-9.7245,-9.6464,-9.5606,-9.4708,-9.3849,-9.2951,-9.2561,-9.2404,-9.1702,-9.0882,-8.9984,-8.9125,-8.8266,-8.7486,-8.7446,-8.6858,-8.5897,-8.4307,-8.376,-8.3538,-8.2651,-8.2411,-8.2365,-8.2234,-8.221,-8.2182,-8.2112,-8.2039,-8.1959,-8.1833,-8.1116,-8.0461,-8.015,-7.9365,-7.8577,-7.8094,-7.7682,-7.7225,-7.6695,-7.6154,-7.5569,-7.4978,-7.4493,-7.4022,-7.3564,-7.2976,-7.2684,-7.2894,-7.2012,-7.1026,-6.9921,-6.8797,-6.7829,-6.7101,-6.682,-6.6629,-6.6491,-6.6368,-6.6281,-6.6007,-6.5378,-6.4612,-6.3965,-6.331,-6.2781,-6.2381,-6.1951,-6.1681,-6.1302,-6.1029,-6.0892,-6.0892,-6.0892,-6.1029,-6.1357,-6.2097,-6.3115,-6.4276,-6.4889,-6.5782,-6.6735,-8.632,-8.6715,-8.7132,-8.7431,-8.7884,-8.854,-8.951,-9.023,-9.1212,-9.2809,-9.3552,-9.438,-9.5308,-9.5785,-9.6174,-9.6459,-9.6803,-9.7057,-9.7199,-9.7343,-9.7692,-9.8406,-9.8566,-9.8927,-9.9629,-9.8353,-9.7714,-9.7714,-9.7682,-9.7715,-9.7695,-9.7695,-9.7693,-9.7719,-9.7689,-9.7597,-9.7362,-9.6503,-9.5606,-9.4747,-9.3888,-9.3107,-9.2482,-9.2326,-9.1741,-9.0882,-9.0023,-8.9164,-8.8305,-8.7621,-8.6819,-8.6044,-8.5686,-8.5088,-8.4369,-8.3543,-8.3269,-8.3068,-8.239,-8.221,-8.2182,-8.2128,-8.2051,-8.1959,-8.1833,-8.162,-8.1352,-8.1076,-8.0713,-8.0152,-7.9088,-7.8557,-7.7949,-7.6808,-7.6154,-7.5569,-7.4978,-7.4616,-7.4333,-7.4356,-7.3975,-7.3683,-7.3667,-7.2242,-7.0861,-6.986,-6.8797,-6.8022,-6.7737,-6.7072,-6.6846,-6.7133,-6.6728,-6.6281,-6.6007,-6.5378,-6.4612,-6.3965,-6.3573,-6.3046,-6.2381,-6.2248,-6.2113,-6.1681,-6.1681,-6.1546,-6.1546,-6.1546,-6.1681,-6.1737,-6.2643,-6.3526,-6.4276,-6.5167,-6.62,-6.7154,-8.6644,-8.6995,-8.7298,-8.7693,-8.8468,-8.9242,-8.9947,-9.1131,-9.2337,-9.3517,-9.4268,-9.4967,-9.57,-9.602,-9.6284,-9.6653,-9.6898,-9.7082,-9.7264,-9.7732,-9.8177,-9.8743,-9.9241,-9.9718,-10.0197,-9.9376,-9.8736,-9.8325,-9.7916,-9.7711,-9.7695,-9.7695,-9.7693,-9.7719,-9.7689,-9.7714,-9.7636,-9.6777,-9.5918,-9.502,-9.4161,-9.3263,-9.2482,-9.2482,-9.2014,-9.1194,-9.0296,-8.9164,-8.7993,-8.7537,-8.7113,-8.665,-8.622,-8.578,-8.526,-8.4401,-8.4167,-8.3926,-8.3077,-8.2825,-8.2679,-8.2182,-8.2036,-8.1959,-8.1815,-8.1716,-8.1624,-8.1347,-8.1137,-8.0767,-7.9968,-7.947,-7.8895,-7.7974,-7.7312,-7.6718,-7.6116,-7.575,-7.5451,-7.5184,-7.4798,-7.4173,-7.3392,-7.2056,-7.0983,-7.0358,-6.9419,-6.8807,-6.8681,-6.817,-6.7897,-6.7843,-6.736,-6.6853,-6.6257,-6.5756,-6.5124,-6.4224,-6.3675,-6.315,-6.2648,-6.2515,-6.2248,-6.2086,-6.1951,-6.1789,-6.1789,-6.1789,-6.2117,-6.2585,-6.336,-6.4355,-6.5246,-6.617,-6.7037,-6.7736,-8.6925,-8.7446,-8.7813,-8.817,-8.9248,-9.0205,-9.0606,-9.2145,-9.3449,-9.397,-9.4867,-9.556,-9.5859,-9.6136,-9.6425,-9.687,-9.6979,-9.7169,-9.7577,-9.8218,-9.8796,-9.9228,-10.0007,-10.0498,-10.0607,-10.0595,-9.9999,-9.9008,-9.8292,-9.7832,-9.7695,-9.7695,-9.7693,-9.7719,-9.7689,-9.7714,-9.7636,-9.6933,-9.6113,-9.5254,-9.4356,-9.3497,-9.2717,-9.2561,-9.2092,-9.1389,-9.0531,-8.9086,-8.7603,-8.7446,-8.7407,-8.729,-8.6549,-8.6314,-8.6158,-8.5299,-8.5026,-8.4824,-8.3956,-8.3713,-8.3498,-8.2454,-8.2201,-8.2154,-8.1757,-8.1674,-8.1624,-8.1347,-8.1107,-8.0888,-8.058,-8.0116,-7.9645,-7.9177,-7.8581,-7.7977,-7.7389,-7.6993,-7.6512,-7.5868,-7.5226,-7.4258,-7.2769,-7.1844,-7.1194,-7.0888,-7.0272,-6.989,-6.966,-6.9335,-6.8933,-6.852,-6.8142,-6.7608,-6.6629,-6.6257,-6.5504,-6.4612,-6.3965,-6.3442,-6.2914,-6.2648,-6.2515,-6.2515,-6.2086,-6.1951,-6.1951,-6.2062,-6.2665,-6.3492,-6.4218,-6.519,-6.6275,-6.7065,-6.7873,-6.8421,-8.6995,-8.7955,-8.8831,-8.9124,-9.013,-9.1334,-9.2392,-9.3078,-9.3896,-9.4877,-9.5341,-9.5686,-9.59,-9.6248,-9.659,-9.6953,-9.7006,-9.7402,-9.8355,-9.853,-9.9341,-10.1022,-10.1216,-10.159,-10.2402,-10.1796,-10.0578,-9.9008,-9.8863,-9.8437,-9.7695,-9.7695,-9.7693,-9.7719,-9.7689,-9.7714,-9.7675,-9.7558,-9.7011,-9.6152,-9.5293,-9.4395,-9.3537,-9.2795,-9.2443,-9.2248,-9.1428,-8.9984,-8.8422,-8.7642,-8.7407,-8.7368,-8.7251,-8.7212,-8.7056,-8.6197,-8.5924,-8.5722,-8.4863,-8.461,-8.4395,-8.336,-8.312,-8.2876,-8.191,-8.1669,-8.1553,-8.1347,-8.1077,-8.0822,-8.058,-8.0116,-7.9645,-7.9177,-7.8581,-7.7977,-7.7389,-7.6902,-7.6415,-7.5868,-7.4784,-7.3667,-7.2686,-7.2322,-7.1766,-7.0921,-7.0764,-7.0636,-7.0503,-6.962,-6.9264,-6.9201,-6.8386,-6.7608,-6.6999,-6.6257,-6.563,-6.4996,-6.4483,-6.3965,-6.3282,-6.3046,-6.2781,-6.2781,-6.2781,-6.2781,-6.2837,-6.3314,-6.3594,-6.3926,-6.5351,-6.5968,-6.6412,-6.7644,-6.8421,-6.8799,-8.8066,-8.9062,-8.9942,-9.0193,-9.1231,-9.2258,-9.2974,-9.3751,-9.4478,-9.5105,-9.5471,-9.5734,-9.59,-9.6284,-9.6622,-9.6979,-9.7432,-9.7984,-9.855,-9.9503,-10.0509,-10.1399,-10.1879,-10.2304,-10.2811,-10.2507,-10.1515,-9.9711,-9.9255,-9.8554,-9.7695,-9.7695,-9.7693,-9.7719,-9.7689,-9.7714,-9.7714,-9.7714,-9.7206,-9.6308,-9.5449,-9.4591,-9.3693,-9.2834,-9.2482,-9.2404,-9.1585,-9.0179,-8.8657,-8.8266,-8.7798,-8.7407,-8.7407,-8.7407,-8.7329,-8.6939,-8.6815,-8.6644,-8.5712,-8.5458,-8.5231,-8.4202,-8.3976,-8.3809,-8.3229,-8.2631,-8.2045,-8.1435,-8.1116,-8.0822,-8.058,-8.0116,-7.9645,-7.9177,-7.8581,-7.7977,-7.7389,-7.6902,-7.6244,-7.5406,-7.4482,-7.3682,-7.3273,-7.2662,-7.2203,-7.1985,-7.1751,-7.1454,-7.1132,-7.0474,-6.9929,-6.9588,-6.8535,-6.7729,-6.7243,-6.6382,-6.5756,-6.5222,-6.474,-6.4095,-6.3413,-6.331,-6.3046,-6.2942,-6.2942,-6.2942,-6.297,-6.356,-6.4145,-6.4674,-6.585,-6.6691,-6.7473,-6.8441,-6.8934,-6.9203]}]]